<?xml version="1.0" encoding="UTF-8" standalone="no" ?>
<gpx xmlns="http://www.topografix.com/GPX/1/1" xmlns:xsi="http://www.w3.org/2001/XMLSchema-instance" xsi:schemaLocation="http://www.topografix.com/GPX/1/1 http://www.topografix.com/GPX/1/1/gpx.xsd" version="1.1" creator="VisuGPX - https://www.visugpx.com">
  <metadata>
    <name>Course à pied en soirée</name>
  </metadata>
  <trk>
    <name><![CDATA[Course à pied en soirée_1]]></name>
    <trkseg>
      <trkpt lat="43.64741" lon="1.3763">
        <ele>140</ele>
        <time>2024-11-05T17:07:18Z</time>
      </trkpt>
      <trkpt lat="43.64743" lon="1.37631">
        <ele>140</ele>
        <time>2024-11-05T17:07:19Z</time>
      </trkpt>
      <trkpt lat="43.64745" lon="1.37631">
        <ele>140</ele>
        <time>2024-11-05T17:07:20Z</time>
      </trkpt>
      <trkpt lat="43.64747" lon="1.37631">
        <ele>140</ele>
        <time>2024-11-05T17:07:21Z</time>
      </trkpt>
      <trkpt lat="43.64748" lon="1.37631">
        <ele>140</ele>
        <time>2024-11-05T17:07:22Z</time>
      </trkpt>
      <trkpt lat="43.6475" lon="1.37631">
        <ele>140</ele>
        <time>2024-11-05T17:07:23Z</time>
      </trkpt>
      <trkpt lat="43.64751" lon="1.37631">
        <ele>140</ele>
        <time>2024-11-05T17:07:24Z</time>
      </trkpt>
      <trkpt lat="43.64753" lon="1.37632">
        <ele>140</ele>
        <time>2024-11-05T17:07:25Z</time>
      </trkpt>
      <trkpt lat="43.64754" lon="1.37632">
        <ele>140</ele>
        <time>2024-11-05T17:07:26Z</time>
      </trkpt>
      <trkpt lat="43.64755" lon="1.37632">
        <ele>140</ele>
        <time>2024-11-05T17:07:27Z</time>
      </trkpt>
      <trkpt lat="43.64755" lon="1.37632">
        <ele>140</ele>
        <time>2024-11-05T17:07:28Z</time>
      </trkpt>
      <trkpt lat="43.66123" lon="1.38207">
        <ele>134</ele>
        <time>2024-11-05T17:21:14Z</time>
      </trkpt>
      <trkpt lat="43.66125" lon="1.38207">
        <ele>135</ele>
        <time>2024-11-05T17:21:15Z</time>
      </trkpt>
      <trkpt lat="43.66128" lon="1.38207">
        <ele>135</ele>
        <time>2024-11-05T17:21:16Z</time>
      </trkpt>
      <trkpt lat="43.66128" lon="1.38207">
        <ele>135</ele>
        <time>2024-11-05T17:21:17Z</time>
      </trkpt>
      <trkpt lat="43.6613" lon="1.38206">
        <ele>135</ele>
        <time>2024-11-05T17:21:18Z</time>
      </trkpt>
      <trkpt lat="43.6613" lon="1.38206">
        <ele>135</ele>
        <time>2024-11-05T17:21:19Z</time>
      </trkpt>
      <trkpt lat="43.66132" lon="1.38205">
        <ele>135</ele>
        <time>2024-11-05T17:21:20Z</time>
      </trkpt>
      <trkpt lat="43.66132" lon="1.38205">
        <ele>135</ele>
        <time>2024-11-05T17:21:21Z</time>
      </trkpt>
      <trkpt lat="43.66151" lon="1.38194">
        <ele>136</ele>
        <time>2024-11-05T17:21:38Z</time>
      </trkpt>
      <trkpt lat="43.66151" lon="1.38194">
        <ele>135</ele>
        <time>2024-11-05T17:21:39Z</time>
      </trkpt>
      <trkpt lat="43.66151" lon="1.38194">
        <ele>136</ele>
        <time>2024-11-05T17:21:40Z</time>
      </trkpt>
      <trkpt lat="43.66151" lon="1.38194">
        <ele>136</ele>
        <time>2024-11-05T17:21:41Z</time>
      </trkpt>
      <trkpt lat="43.66151" lon="1.38194">
        <ele>136</ele>
        <time>2024-11-05T17:21:42Z</time>
      </trkpt>
      <trkpt lat="43.66151" lon="1.38194">
        <ele>136</ele>
        <time>2024-11-05T17:21:43Z</time>
      </trkpt>
      <trkpt lat="43.66151" lon="1.38194">
        <ele>136</ele>
        <time>2024-11-05T17:21:44Z</time>
      </trkpt>
      <trkpt lat="43.66151" lon="1.38194">
        <ele>136</ele>
        <time>2024-11-05T17:21:45Z</time>
      </trkpt>
      <trkpt lat="43.66185" lon="1.38207">
        <ele>135</ele>
        <time>2024-11-05T17:32:15Z</time>
      </trkpt>
      <trkpt lat="43.66185" lon="1.38207">
        <ele>135</ele>
        <time>2024-11-05T17:32:16Z</time>
      </trkpt>
      <trkpt lat="43.66186" lon="1.38211">
        <ele>135</ele>
        <time>2024-11-05T17:32:17Z</time>
      </trkpt>
      <trkpt lat="43.66187" lon="1.38213">
        <ele>135</ele>
        <time>2024-11-05T17:32:18Z</time>
      </trkpt>
      <trkpt lat="43.66189" lon="1.38216">
        <ele>134</ele>
        <time>2024-11-05T17:32:19Z</time>
      </trkpt>
      <trkpt lat="43.6619" lon="1.38219">
        <ele>135</ele>
        <time>2024-11-05T17:32:20Z</time>
      </trkpt>
      <trkpt lat="43.66192" lon="1.38222">
        <ele>135</ele>
        <time>2024-11-05T17:32:21Z</time>
      </trkpt>
      <trkpt lat="43.66193" lon="1.38224">
        <ele>135</ele>
        <time>2024-11-05T17:32:22Z</time>
      </trkpt>
      <trkpt lat="43.66195" lon="1.38227">
        <ele>135</ele>
        <time>2024-11-05T17:32:23Z</time>
      </trkpt>
      <trkpt lat="43.66195" lon="1.38228">
        <ele>135</ele>
        <time>2024-11-05T17:32:24Z</time>
      </trkpt>
      <trkpt lat="43.66195" lon="1.38228">
        <ele>135</ele>
        <time>2024-11-05T17:32:25Z</time>
      </trkpt>
      <trkpt lat="43.66199" lon="1.3823">
        <ele>135</ele>
        <time>2024-11-05T17:32:26Z</time>
      </trkpt>
      <trkpt lat="43.66201" lon="1.38231">
        <ele>135</ele>
        <time>2024-11-05T17:32:27Z</time>
      </trkpt>
      <trkpt lat="43.66203" lon="1.38231">
        <ele>135</ele>
        <time>2024-11-05T17:32:28Z</time>
      </trkpt>
      <trkpt lat="43.66205" lon="1.38232">
        <ele>135</ele>
        <time>2024-11-05T17:32:29Z</time>
      </trkpt>
      <trkpt lat="43.66207" lon="1.38232">
        <ele>135</ele>
        <time>2024-11-05T17:32:30Z</time>
      </trkpt>
      <trkpt lat="43.66209" lon="1.38233">
        <ele>135</ele>
        <time>2024-11-05T17:32:31Z</time>
      </trkpt>
      <trkpt lat="43.6621" lon="1.38235">
        <ele>135</ele>
        <time>2024-11-05T17:32:32Z</time>
      </trkpt>
      <trkpt lat="43.66212" lon="1.38239">
        <ele>135</ele>
        <time>2024-11-05T17:32:33Z</time>
      </trkpt>
      <trkpt lat="43.66213" lon="1.3824">
        <ele>135</ele>
        <time>2024-11-05T17:32:34Z</time>
      </trkpt>
      <trkpt lat="43.66214" lon="1.38242">
        <ele>134</ele>
        <time>2024-11-05T17:32:35Z</time>
      </trkpt>
      <trkpt lat="43.66214" lon="1.38242">
        <ele>134</ele>
        <time>2024-11-05T17:32:36Z</time>
      </trkpt>
      <trkpt lat="43.66215" lon="1.38247">
        <ele>134</ele>
        <time>2024-11-05T17:32:37Z</time>
      </trkpt>
      <trkpt lat="43.66216" lon="1.3825">
        <ele>134</ele>
        <time>2024-11-05T17:32:38Z</time>
      </trkpt>
      <trkpt lat="43.66216" lon="1.38253">
        <ele>134</ele>
        <time>2024-11-05T17:32:39Z</time>
      </trkpt>
      <trkpt lat="43.66217" lon="1.38256">
        <ele>134</ele>
        <time>2024-11-05T17:32:40Z</time>
      </trkpt>
      <trkpt lat="43.66217" lon="1.38259">
        <ele>133</ele>
        <time>2024-11-05T17:32:41Z</time>
      </trkpt>
      <trkpt lat="43.66218" lon="1.38261">
        <ele>133</ele>
        <time>2024-11-05T17:32:42Z</time>
      </trkpt>
      <trkpt lat="43.66219" lon="1.38264">
        <ele>133</ele>
        <time>2024-11-05T17:32:43Z</time>
      </trkpt>
      <trkpt lat="43.66219" lon="1.38267">
        <ele>134</ele>
        <time>2024-11-05T17:32:44Z</time>
      </trkpt>
      <trkpt lat="43.6622" lon="1.3827">
        <ele>134</ele>
        <time>2024-11-05T17:32:45Z</time>
      </trkpt>
      <trkpt lat="43.6622" lon="1.38272">
        <ele>134</ele>
        <time>2024-11-05T17:32:46Z</time>
      </trkpt>
      <trkpt lat="43.66221" lon="1.38275">
        <ele>134</ele>
        <time>2024-11-05T17:32:47Z</time>
      </trkpt>
      <trkpt lat="43.66222" lon="1.38277">
        <ele>134</ele>
        <time>2024-11-05T17:32:48Z</time>
      </trkpt>
      <trkpt lat="43.66223" lon="1.38279">
        <ele>134</ele>
        <time>2024-11-05T17:32:49Z</time>
      </trkpt>
      <trkpt lat="43.66224" lon="1.38283">
        <ele>134</ele>
        <time>2024-11-05T17:32:50Z</time>
      </trkpt>
      <trkpt lat="43.66225" lon="1.38285">
        <ele>134</ele>
        <time>2024-11-05T17:32:51Z</time>
      </trkpt>
      <trkpt lat="43.66225" lon="1.38287">
        <ele>134</ele>
        <time>2024-11-05T17:32:52Z</time>
      </trkpt>
      <trkpt lat="43.66226" lon="1.3829">
        <ele>134</ele>
        <time>2024-11-05T17:32:53Z</time>
      </trkpt>
      <trkpt lat="43.66226" lon="1.38293">
        <ele>134</ele>
        <time>2024-11-05T17:32:54Z</time>
      </trkpt>
      <trkpt lat="43.66227" lon="1.38295">
        <ele>134</ele>
        <time>2024-11-05T17:32:55Z</time>
      </trkpt>
      <trkpt lat="43.66228" lon="1.38298">
        <ele>134</ele>
        <time>2024-11-05T17:32:56Z</time>
      </trkpt>
      <trkpt lat="43.66229" lon="1.383">
        <ele>134</ele>
        <time>2024-11-05T17:32:57Z</time>
      </trkpt>
      <trkpt lat="43.66229" lon="1.38303">
        <ele>134</ele>
        <time>2024-11-05T17:32:58Z</time>
      </trkpt>
      <trkpt lat="43.6623" lon="1.38306">
        <ele>134</ele>
        <time>2024-11-05T17:32:59Z</time>
      </trkpt>
      <trkpt lat="43.6623" lon="1.3831">
        <ele>133</ele>
        <time>2024-11-05T17:33:00Z</time>
      </trkpt>
      <trkpt lat="43.6623" lon="1.38312">
        <ele>133</ele>
        <time>2024-11-05T17:33:01Z</time>
      </trkpt>
      <trkpt lat="43.6623" lon="1.38314">
        <ele>133</ele>
        <time>2024-11-05T17:33:02Z</time>
      </trkpt>
      <trkpt lat="43.66229" lon="1.38317">
        <ele>133</ele>
        <time>2024-11-05T17:33:03Z</time>
      </trkpt>
      <trkpt lat="43.66229" lon="1.38319">
        <ele>133</ele>
        <time>2024-11-05T17:33:04Z</time>
      </trkpt>
      <trkpt lat="43.66227" lon="1.38322">
        <ele>134</ele>
        <time>2024-11-05T17:33:05Z</time>
      </trkpt>
      <trkpt lat="43.66226" lon="1.38324">
        <ele>134</ele>
        <time>2024-11-05T17:33:06Z</time>
      </trkpt>
      <trkpt lat="43.66223" lon="1.38327">
        <ele>134</ele>
        <time>2024-11-05T17:33:07Z</time>
      </trkpt>
      <trkpt lat="43.66222" lon="1.38328">
        <ele>134</ele>
        <time>2024-11-05T17:33:08Z</time>
      </trkpt>
      <trkpt lat="43.6622" lon="1.3833">
        <ele>134</ele>
        <time>2024-11-05T17:33:09Z</time>
      </trkpt>
      <trkpt lat="43.66219" lon="1.38331">
        <ele>134</ele>
        <time>2024-11-05T17:33:10Z</time>
      </trkpt>
      <trkpt lat="43.66217" lon="1.38332">
        <ele>134</ele>
        <time>2024-11-05T17:33:11Z</time>
      </trkpt>
      <trkpt lat="43.66215" lon="1.38334">
        <ele>134</ele>
        <time>2024-11-05T17:33:12Z</time>
      </trkpt>
      <trkpt lat="43.66213" lon="1.38335">
        <ele>135</ele>
        <time>2024-11-05T17:33:13Z</time>
      </trkpt>
      <trkpt lat="43.6621" lon="1.38338">
        <ele>135</ele>
        <time>2024-11-05T17:33:14Z</time>
      </trkpt>
      <trkpt lat="43.6621" lon="1.38339">
        <ele>135</ele>
        <time>2024-11-05T17:33:15Z</time>
      </trkpt>
      <trkpt lat="43.66208" lon="1.3834">
        <ele>134</ele>
        <time>2024-11-05T17:33:16Z</time>
      </trkpt>
      <trkpt lat="43.66206" lon="1.38342">
        <ele>134</ele>
        <time>2024-11-05T17:33:17Z</time>
      </trkpt>
      <trkpt lat="43.66204" lon="1.38344">
        <ele>134</ele>
        <time>2024-11-05T17:33:18Z</time>
      </trkpt>
      <trkpt lat="43.66202" lon="1.38345">
        <ele>134</ele>
        <time>2024-11-05T17:33:19Z</time>
      </trkpt>
      <trkpt lat="43.662" lon="1.38347">
        <ele>134</ele>
        <time>2024-11-05T17:33:20Z</time>
      </trkpt>
      <trkpt lat="43.66198" lon="1.38348">
        <ele>134</ele>
        <time>2024-11-05T17:33:21Z</time>
      </trkpt>
      <trkpt lat="43.66196" lon="1.3835">
        <ele>134</ele>
        <time>2024-11-05T17:33:22Z</time>
      </trkpt>
      <trkpt lat="43.66194" lon="1.38351">
        <ele>134</ele>
        <time>2024-11-05T17:33:23Z</time>
      </trkpt>
      <trkpt lat="43.66192" lon="1.38352">
        <ele>134</ele>
        <time>2024-11-05T17:33:24Z</time>
      </trkpt>
      <trkpt lat="43.6619" lon="1.38352">
        <ele>134</ele>
        <time>2024-11-05T17:33:25Z</time>
      </trkpt>
      <trkpt lat="43.66188" lon="1.38353">
        <ele>134</ele>
        <time>2024-11-05T17:33:26Z</time>
      </trkpt>
      <trkpt lat="43.66186" lon="1.38354">
        <ele>134</ele>
        <time>2024-11-05T17:33:27Z</time>
      </trkpt>
      <trkpt lat="43.66185" lon="1.38355">
        <ele>134</ele>
        <time>2024-11-05T17:33:28Z</time>
      </trkpt>
      <trkpt lat="43.66183" lon="1.38355">
        <ele>134</ele>
        <time>2024-11-05T17:33:29Z</time>
      </trkpt>
      <trkpt lat="43.66181" lon="1.38357">
        <ele>134</ele>
        <time>2024-11-05T17:33:30Z</time>
      </trkpt>
      <trkpt lat="43.66179" lon="1.38358">
        <ele>134</ele>
        <time>2024-11-05T17:33:31Z</time>
      </trkpt>
      <trkpt lat="43.66177" lon="1.38359">
        <ele>134</ele>
        <time>2024-11-05T17:33:32Z</time>
      </trkpt>
      <trkpt lat="43.66175" lon="1.3836">
        <ele>134</ele>
        <time>2024-11-05T17:33:33Z</time>
      </trkpt>
      <trkpt lat="43.66173" lon="1.38361">
        <ele>134</ele>
        <time>2024-11-05T17:33:34Z</time>
      </trkpt>
      <trkpt lat="43.66171" lon="1.38362">
        <ele>134</ele>
        <time>2024-11-05T17:33:35Z</time>
      </trkpt>
      <trkpt lat="43.66169" lon="1.38364">
        <ele>134</ele>
        <time>2024-11-05T17:33:36Z</time>
      </trkpt>
      <trkpt lat="43.66167" lon="1.38365">
        <ele>134</ele>
        <time>2024-11-05T17:33:37Z</time>
      </trkpt>
      <trkpt lat="43.66165" lon="1.38366">
        <ele>134</ele>
        <time>2024-11-05T17:33:38Z</time>
      </trkpt>
      <trkpt lat="43.66163" lon="1.38367">
        <ele>135</ele>
        <time>2024-11-05T17:33:39Z</time>
      </trkpt>
      <trkpt lat="43.66161" lon="1.38368">
        <ele>135</ele>
        <time>2024-11-05T17:33:40Z</time>
      </trkpt>
      <trkpt lat="43.66159" lon="1.3837">
        <ele>135</ele>
        <time>2024-11-05T17:33:41Z</time>
      </trkpt>
      <trkpt lat="43.66157" lon="1.38372">
        <ele>135</ele>
        <time>2024-11-05T17:33:42Z</time>
      </trkpt>
      <trkpt lat="43.66156" lon="1.38374">
        <ele>135</ele>
        <time>2024-11-05T17:33:43Z</time>
      </trkpt>
      <trkpt lat="43.66154" lon="1.38377">
        <ele>134</ele>
        <time>2024-11-05T17:33:44Z</time>
      </trkpt>
      <trkpt lat="43.66153" lon="1.38379">
        <ele>134</ele>
        <time>2024-11-05T17:33:45Z</time>
      </trkpt>
      <trkpt lat="43.66153" lon="1.38382">
        <ele>134</ele>
        <time>2024-11-05T17:33:46Z</time>
      </trkpt>
      <trkpt lat="43.66153" lon="1.38385">
        <ele>134</ele>
        <time>2024-11-05T17:33:47Z</time>
      </trkpt>
      <trkpt lat="43.66153" lon="1.38388">
        <ele>134</ele>
        <time>2024-11-05T17:33:48Z</time>
      </trkpt>
      <trkpt lat="43.66153" lon="1.38391">
        <ele>134</ele>
        <time>2024-11-05T17:33:49Z</time>
      </trkpt>
      <trkpt lat="43.66153" lon="1.38391">
        <ele>134</ele>
        <time>2024-11-05T17:33:50Z</time>
      </trkpt>
      <trkpt lat="43.66154" lon="1.38396">
        <ele>134</ele>
        <time>2024-11-05T17:33:51Z</time>
      </trkpt>
      <trkpt lat="43.66154" lon="1.38399">
        <ele>134</ele>
        <time>2024-11-05T17:33:52Z</time>
      </trkpt>
      <trkpt lat="43.66155" lon="1.38401">
        <ele>134</ele>
        <time>2024-11-05T17:33:53Z</time>
      </trkpt>
      <trkpt lat="43.66157" lon="1.38406">
        <ele>134</ele>
        <time>2024-11-05T17:33:54Z</time>
      </trkpt>
      <trkpt lat="43.66157" lon="1.38407">
        <ele>134</ele>
        <time>2024-11-05T17:33:55Z</time>
      </trkpt>
      <trkpt lat="43.66158" lon="1.3841">
        <ele>134</ele>
        <time>2024-11-05T17:33:56Z</time>
      </trkpt>
      <trkpt lat="43.66159" lon="1.38413">
        <ele>134</ele>
        <time>2024-11-05T17:33:57Z</time>
      </trkpt>
      <trkpt lat="43.6616" lon="1.38415">
        <ele>134</ele>
        <time>2024-11-05T17:33:58Z</time>
      </trkpt>
      <trkpt lat="43.66161" lon="1.38418">
        <ele>134</ele>
        <time>2024-11-05T17:33:59Z</time>
      </trkpt>
      <trkpt lat="43.66162" lon="1.3842">
        <ele>134</ele>
        <time>2024-11-05T17:34:00Z</time>
      </trkpt>
      <trkpt lat="43.66163" lon="1.38423">
        <ele>134</ele>
        <time>2024-11-05T17:34:01Z</time>
      </trkpt>
      <trkpt lat="43.66164" lon="1.38426">
        <ele>134</ele>
        <time>2024-11-05T17:34:02Z</time>
      </trkpt>
      <trkpt lat="43.66164" lon="1.38428">
        <ele>134</ele>
        <time>2024-11-05T17:34:03Z</time>
      </trkpt>
      <trkpt lat="43.66165" lon="1.3843">
        <ele>134</ele>
        <time>2024-11-05T17:34:04Z</time>
      </trkpt>
      <trkpt lat="43.66166" lon="1.38433">
        <ele>134</ele>
        <time>2024-11-05T17:34:05Z</time>
      </trkpt>
      <trkpt lat="43.66166" lon="1.38436">
        <ele>134</ele>
        <time>2024-11-05T17:34:06Z</time>
      </trkpt>
      <trkpt lat="43.66166" lon="1.38439">
        <ele>134</ele>
        <time>2024-11-05T17:34:07Z</time>
      </trkpt>
      <trkpt lat="43.66164" lon="1.38442">
        <ele>134</ele>
        <time>2024-11-05T17:34:08Z</time>
      </trkpt>
      <trkpt lat="43.66163" lon="1.38443">
        <ele>134</ele>
        <time>2024-11-05T17:34:09Z</time>
      </trkpt>
      <trkpt lat="43.66162" lon="1.38444">
        <ele>134</ele>
        <time>2024-11-05T17:34:10Z</time>
      </trkpt>
      <trkpt lat="43.66162" lon="1.38444">
        <ele>134</ele>
        <time>2024-11-05T17:34:11Z</time>
      </trkpt>
      <trkpt lat="43.66158" lon="1.38447">
        <ele>134</ele>
        <time>2024-11-05T17:34:12Z</time>
      </trkpt>
      <trkpt lat="43.66158" lon="1.38447">
        <ele>134</ele>
        <time>2024-11-05T17:34:13Z</time>
      </trkpt>
      <trkpt lat="43.66155" lon="1.38449">
        <ele>134</ele>
        <time>2024-11-05T17:34:14Z</time>
      </trkpt>
      <trkpt lat="43.66153" lon="1.3845">
        <ele>134</ele>
        <time>2024-11-05T17:34:15Z</time>
      </trkpt>
      <trkpt lat="43.66152" lon="1.38451">
        <ele>134</ele>
        <time>2024-11-05T17:34:16Z</time>
      </trkpt>
      <trkpt lat="43.6615" lon="1.38452">
        <ele>134</ele>
        <time>2024-11-05T17:34:17Z</time>
      </trkpt>
      <trkpt lat="43.66148" lon="1.38453">
        <ele>134</ele>
        <time>2024-11-05T17:34:18Z</time>
      </trkpt>
      <trkpt lat="43.66147" lon="1.38454">
        <ele>134</ele>
        <time>2024-11-05T17:34:19Z</time>
      </trkpt>
      <trkpt lat="43.66143" lon="1.38456">
        <ele>134</ele>
        <time>2024-11-05T17:34:20Z</time>
      </trkpt>
      <trkpt lat="43.66142" lon="1.38457">
        <ele>134</ele>
        <time>2024-11-05T17:34:21Z</time>
      </trkpt>
      <trkpt lat="43.6614" lon="1.38458">
        <ele>134</ele>
        <time>2024-11-05T17:34:22Z</time>
      </trkpt>
      <trkpt lat="43.66138" lon="1.38459">
        <ele>134</ele>
        <time>2024-11-05T17:34:23Z</time>
      </trkpt>
      <trkpt lat="43.66136" lon="1.3846">
        <ele>134</ele>
        <time>2024-11-05T17:34:24Z</time>
      </trkpt>
      <trkpt lat="43.66134" lon="1.38461">
        <ele>134</ele>
        <time>2024-11-05T17:34:25Z</time>
      </trkpt>
      <trkpt lat="43.66132" lon="1.38462">
        <ele>134</ele>
        <time>2024-11-05T17:34:26Z</time>
      </trkpt>
      <trkpt lat="43.66131" lon="1.38463">
        <ele>134</ele>
        <time>2024-11-05T17:34:27Z</time>
      </trkpt>
      <trkpt lat="43.66129" lon="1.38464">
        <ele>134</ele>
        <time>2024-11-05T17:34:28Z</time>
      </trkpt>
      <trkpt lat="43.66126" lon="1.38465">
        <ele>134</ele>
        <time>2024-11-05T17:34:29Z</time>
      </trkpt>
      <trkpt lat="43.66123" lon="1.38467">
        <ele>134</ele>
        <time>2024-11-05T17:34:30Z</time>
      </trkpt>
      <trkpt lat="43.66122" lon="1.38468">
        <ele>134</ele>
        <time>2024-11-05T17:34:31Z</time>
      </trkpt>
      <trkpt lat="43.66119" lon="1.3847">
        <ele>134</ele>
        <time>2024-11-05T17:34:32Z</time>
      </trkpt>
      <trkpt lat="43.66117" lon="1.38471">
        <ele>134</ele>
        <time>2024-11-05T17:34:33Z</time>
      </trkpt>
      <trkpt lat="43.66115" lon="1.38472">
        <ele>134</ele>
        <time>2024-11-05T17:34:34Z</time>
      </trkpt>
      <trkpt lat="43.66113" lon="1.38472">
        <ele>134</ele>
        <time>2024-11-05T17:34:35Z</time>
      </trkpt>
      <trkpt lat="43.66111" lon="1.38472">
        <ele>134</ele>
        <time>2024-11-05T17:34:36Z</time>
      </trkpt>
      <trkpt lat="43.66109" lon="1.38473">
        <ele>134</ele>
        <time>2024-11-05T17:34:37Z</time>
      </trkpt>
      <trkpt lat="43.66107" lon="1.38473">
        <ele>134</ele>
        <time>2024-11-05T17:34:38Z</time>
      </trkpt>
      <trkpt lat="43.66105" lon="1.38474">
        <ele>134</ele>
        <time>2024-11-05T17:34:39Z</time>
      </trkpt>
      <trkpt lat="43.66102" lon="1.38476">
        <ele>134</ele>
        <time>2024-11-05T17:34:40Z</time>
      </trkpt>
      <trkpt lat="43.66101" lon="1.38476">
        <ele>134</ele>
        <time>2024-11-05T17:34:41Z</time>
      </trkpt>
      <trkpt lat="43.66098" lon="1.38478">
        <ele>134</ele>
        <time>2024-11-05T17:34:42Z</time>
      </trkpt>
      <trkpt lat="43.66097" lon="1.38478">
        <ele>134</ele>
        <time>2024-11-05T17:34:43Z</time>
      </trkpt>
      <trkpt lat="43.66095" lon="1.38479">
        <ele>134</ele>
        <time>2024-11-05T17:34:44Z</time>
      </trkpt>
      <trkpt lat="43.66092" lon="1.3848">
        <ele>134</ele>
        <time>2024-11-05T17:34:45Z</time>
      </trkpt>
      <trkpt lat="43.6609" lon="1.38481">
        <ele>135</ele>
        <time>2024-11-05T17:34:46Z</time>
      </trkpt>
      <trkpt lat="43.66088" lon="1.38482">
        <ele>135</ele>
        <time>2024-11-05T17:34:47Z</time>
      </trkpt>
      <trkpt lat="43.66086" lon="1.38483">
        <ele>135</ele>
        <time>2024-11-05T17:34:48Z</time>
      </trkpt>
      <trkpt lat="43.66084" lon="1.38484">
        <ele>135</ele>
        <time>2024-11-05T17:34:49Z</time>
      </trkpt>
      <trkpt lat="43.66083" lon="1.38485">
        <ele>134</ele>
        <time>2024-11-05T17:34:50Z</time>
      </trkpt>
      <trkpt lat="43.6608" lon="1.38486">
        <ele>133</ele>
        <time>2024-11-05T17:34:51Z</time>
      </trkpt>
      <trkpt lat="43.66079" lon="1.38487">
        <ele>133</ele>
        <time>2024-11-05T17:34:52Z</time>
      </trkpt>
      <trkpt lat="43.66077" lon="1.38489">
        <ele>133</ele>
        <time>2024-11-05T17:34:53Z</time>
      </trkpt>
      <trkpt lat="43.66074" lon="1.3849">
        <ele>133</ele>
        <time>2024-11-05T17:34:54Z</time>
      </trkpt>
      <trkpt lat="43.66072" lon="1.38491">
        <ele>134</ele>
        <time>2024-11-05T17:34:55Z</time>
      </trkpt>
      <trkpt lat="43.6607" lon="1.38491">
        <ele>134</ele>
        <time>2024-11-05T17:34:56Z</time>
      </trkpt>
      <trkpt lat="43.66068" lon="1.38492">
        <ele>134</ele>
        <time>2024-11-05T17:34:57Z</time>
      </trkpt>
      <trkpt lat="43.66066" lon="1.38493">
        <ele>134</ele>
        <time>2024-11-05T17:34:58Z</time>
      </trkpt>
      <trkpt lat="43.66064" lon="1.38495">
        <ele>134</ele>
        <time>2024-11-05T17:34:59Z</time>
      </trkpt>
      <trkpt lat="43.66062" lon="1.38496">
        <ele>134</ele>
        <time>2024-11-05T17:35:00Z</time>
      </trkpt>
      <trkpt lat="43.6606" lon="1.38497">
        <ele>134</ele>
        <time>2024-11-05T17:35:01Z</time>
      </trkpt>
      <trkpt lat="43.66058" lon="1.38497">
        <ele>134</ele>
        <time>2024-11-05T17:35:02Z</time>
      </trkpt>
      <trkpt lat="43.66055" lon="1.38498">
        <ele>134</ele>
        <time>2024-11-05T17:35:03Z</time>
      </trkpt>
      <trkpt lat="43.66053" lon="1.38499">
        <ele>134</ele>
        <time>2024-11-05T17:35:04Z</time>
      </trkpt>
      <trkpt lat="43.6605" lon="1.38501">
        <ele>134</ele>
        <time>2024-11-05T17:35:05Z</time>
      </trkpt>
      <trkpt lat="43.66049" lon="1.38501">
        <ele>134</ele>
        <time>2024-11-05T17:35:06Z</time>
      </trkpt>
      <trkpt lat="43.66047" lon="1.38503">
        <ele>134</ele>
        <time>2024-11-05T17:35:07Z</time>
      </trkpt>
      <trkpt lat="43.66043" lon="1.38505">
        <ele>134</ele>
        <time>2024-11-05T17:35:08Z</time>
      </trkpt>
      <trkpt lat="43.66042" lon="1.38505">
        <ele>134</ele>
        <time>2024-11-05T17:35:09Z</time>
      </trkpt>
      <trkpt lat="43.6604" lon="1.38507">
        <ele>134</ele>
        <time>2024-11-05T17:35:10Z</time>
      </trkpt>
      <trkpt lat="43.66038" lon="1.38508">
        <ele>134</ele>
        <time>2024-11-05T17:35:11Z</time>
      </trkpt>
      <trkpt lat="43.66035" lon="1.3851">
        <ele>134</ele>
        <time>2024-11-05T17:35:12Z</time>
      </trkpt>
      <trkpt lat="43.66033" lon="1.38511">
        <ele>134</ele>
        <time>2024-11-05T17:35:13Z</time>
      </trkpt>
      <trkpt lat="43.66031" lon="1.38512">
        <ele>134</ele>
        <time>2024-11-05T17:35:14Z</time>
      </trkpt>
      <trkpt lat="43.66029" lon="1.38514">
        <ele>134</ele>
        <time>2024-11-05T17:35:15Z</time>
      </trkpt>
      <trkpt lat="43.66027" lon="1.38516">
        <ele>134</ele>
        <time>2024-11-05T17:35:16Z</time>
      </trkpt>
      <trkpt lat="43.66026" lon="1.38516">
        <ele>134</ele>
        <time>2024-11-05T17:35:17Z</time>
      </trkpt>
      <trkpt lat="43.66023" lon="1.38519">
        <ele>134</ele>
        <time>2024-11-05T17:35:18Z</time>
      </trkpt>
      <trkpt lat="43.66021" lon="1.38519">
        <ele>134</ele>
        <time>2024-11-05T17:35:19Z</time>
      </trkpt>
      <trkpt lat="43.6602" lon="1.38521">
        <ele>133</ele>
        <time>2024-11-05T17:35:20Z</time>
      </trkpt>
      <trkpt lat="43.66017" lon="1.38523">
        <ele>133</ele>
        <time>2024-11-05T17:35:21Z</time>
      </trkpt>
      <trkpt lat="43.66016" lon="1.38524">
        <ele>133</ele>
        <time>2024-11-05T17:35:22Z</time>
      </trkpt>
      <trkpt lat="43.66013" lon="1.38526">
        <ele>133</ele>
        <time>2024-11-05T17:35:23Z</time>
      </trkpt>
      <trkpt lat="43.66011" lon="1.38527">
        <ele>134</ele>
        <time>2024-11-05T17:35:24Z</time>
      </trkpt>
      <trkpt lat="43.66009" lon="1.38529">
        <ele>134</ele>
        <time>2024-11-05T17:35:25Z</time>
      </trkpt>
      <trkpt lat="43.66007" lon="1.3853">
        <ele>134</ele>
        <time>2024-11-05T17:35:26Z</time>
      </trkpt>
      <trkpt lat="43.66005" lon="1.38531">
        <ele>134</ele>
        <time>2024-11-05T17:35:27Z</time>
      </trkpt>
      <trkpt lat="43.66003" lon="1.38533">
        <ele>133</ele>
        <time>2024-11-05T17:35:28Z</time>
      </trkpt>
      <trkpt lat="43.66" lon="1.38535">
        <ele>133</ele>
        <time>2024-11-05T17:35:29Z</time>
      </trkpt>
      <trkpt lat="43.65999" lon="1.38536">
        <ele>133</ele>
        <time>2024-11-05T17:35:30Z</time>
      </trkpt>
      <trkpt lat="43.65997" lon="1.38537">
        <ele>133</ele>
        <time>2024-11-05T17:35:31Z</time>
      </trkpt>
      <trkpt lat="43.65995" lon="1.38539">
        <ele>133</ele>
        <time>2024-11-05T17:35:32Z</time>
      </trkpt>
      <trkpt lat="43.65993" lon="1.3854">
        <ele>133</ele>
        <time>2024-11-05T17:35:33Z</time>
      </trkpt>
      <trkpt lat="43.65991" lon="1.38541">
        <ele>133</ele>
        <time>2024-11-05T17:35:34Z</time>
      </trkpt>
      <trkpt lat="43.65989" lon="1.38543">
        <ele>133</ele>
        <time>2024-11-05T17:35:35Z</time>
      </trkpt>
      <trkpt lat="43.65987" lon="1.38544">
        <ele>133</ele>
        <time>2024-11-05T17:35:36Z</time>
      </trkpt>
      <trkpt lat="43.65985" lon="1.38546">
        <ele>133</ele>
        <time>2024-11-05T17:35:37Z</time>
      </trkpt>
      <trkpt lat="43.65983" lon="1.38547">
        <ele>134</ele>
        <time>2024-11-05T17:35:38Z</time>
      </trkpt>
      <trkpt lat="43.65981" lon="1.38549">
        <ele>134</ele>
        <time>2024-11-05T17:35:39Z</time>
      </trkpt>
      <trkpt lat="43.65979" lon="1.38551">
        <ele>134</ele>
        <time>2024-11-05T17:35:40Z</time>
      </trkpt>
      <trkpt lat="43.65977" lon="1.38553">
        <ele>133</ele>
        <time>2024-11-05T17:35:41Z</time>
      </trkpt>
      <trkpt lat="43.65975" lon="1.38555">
        <ele>133</ele>
        <time>2024-11-05T17:35:42Z</time>
      </trkpt>
      <trkpt lat="43.65973" lon="1.38557">
        <ele>133</ele>
        <time>2024-11-05T17:35:43Z</time>
      </trkpt>
      <trkpt lat="43.65971" lon="1.38559">
        <ele>133</ele>
        <time>2024-11-05T17:35:44Z</time>
      </trkpt>
      <trkpt lat="43.6597" lon="1.38561">
        <ele>133</ele>
        <time>2024-11-05T17:35:45Z</time>
      </trkpt>
      <trkpt lat="43.65968" lon="1.38562">
        <ele>133</ele>
        <time>2024-11-05T17:35:46Z</time>
      </trkpt>
      <trkpt lat="43.65966" lon="1.38564">
        <ele>133</ele>
        <time>2024-11-05T17:35:47Z</time>
      </trkpt>
      <trkpt lat="43.65964" lon="1.38566">
        <ele>133</ele>
        <time>2024-11-05T17:35:48Z</time>
      </trkpt>
      <trkpt lat="43.65962" lon="1.38568">
        <ele>133</ele>
        <time>2024-11-05T17:35:49Z</time>
      </trkpt>
      <trkpt lat="43.6596" lon="1.3857">
        <ele>133</ele>
        <time>2024-11-05T17:35:50Z</time>
      </trkpt>
      <trkpt lat="43.65958" lon="1.38572">
        <ele>133</ele>
        <time>2024-11-05T17:35:51Z</time>
      </trkpt>
      <trkpt lat="43.65956" lon="1.38573">
        <ele>133</ele>
        <time>2024-11-05T17:35:52Z</time>
      </trkpt>
      <trkpt lat="43.65953" lon="1.38576">
        <ele>133</ele>
        <time>2024-11-05T17:35:53Z</time>
      </trkpt>
      <trkpt lat="43.65952" lon="1.38577">
        <ele>133</ele>
        <time>2024-11-05T17:35:54Z</time>
      </trkpt>
      <trkpt lat="43.6595" lon="1.38578">
        <ele>133</ele>
        <time>2024-11-05T17:35:55Z</time>
      </trkpt>
      <trkpt lat="43.65948" lon="1.3858">
        <ele>133</ele>
        <time>2024-11-05T17:35:56Z</time>
      </trkpt>
      <trkpt lat="43.65946" lon="1.38582">
        <ele>133</ele>
        <time>2024-11-05T17:35:57Z</time>
      </trkpt>
      <trkpt lat="43.65944" lon="1.38584">
        <ele>133</ele>
        <time>2024-11-05T17:35:58Z</time>
      </trkpt>
      <trkpt lat="43.65943" lon="1.38586">
        <ele>133</ele>
        <time>2024-11-05T17:35:59Z</time>
      </trkpt>
      <trkpt lat="43.65941" lon="1.38588">
        <ele>133</ele>
        <time>2024-11-05T17:36:00Z</time>
      </trkpt>
      <trkpt lat="43.65939" lon="1.3859">
        <ele>133</ele>
        <time>2024-11-05T17:36:01Z</time>
      </trkpt>
      <trkpt lat="43.65937" lon="1.38592">
        <ele>133</ele>
        <time>2024-11-05T17:36:02Z</time>
      </trkpt>
      <trkpt lat="43.65936" lon="1.38593">
        <ele>133</ele>
        <time>2024-11-05T17:36:03Z</time>
      </trkpt>
      <trkpt lat="43.65934" lon="1.38595">
        <ele>133</ele>
        <time>2024-11-05T17:36:04Z</time>
      </trkpt>
      <trkpt lat="43.65932" lon="1.38597">
        <ele>133</ele>
        <time>2024-11-05T17:36:05Z</time>
      </trkpt>
      <trkpt lat="43.65929" lon="1.38599">
        <ele>133</ele>
        <time>2024-11-05T17:36:06Z</time>
      </trkpt>
      <trkpt lat="43.65928" lon="1.386">
        <ele>133</ele>
        <time>2024-11-05T17:36:07Z</time>
      </trkpt>
      <trkpt lat="43.65926" lon="1.38602">
        <ele>133</ele>
        <time>2024-11-05T17:36:08Z</time>
      </trkpt>
      <trkpt lat="43.65924" lon="1.38603">
        <ele>133</ele>
        <time>2024-11-05T17:36:09Z</time>
      </trkpt>
      <trkpt lat="43.65924" lon="1.38603">
        <ele>134</ele>
        <time>2024-11-05T17:36:10Z</time>
      </trkpt>
      <trkpt lat="43.65922" lon="1.38606">
        <ele>134</ele>
        <time>2024-11-05T17:36:11Z</time>
      </trkpt>
      <trkpt lat="43.6592" lon="1.38607">
        <ele>134</ele>
        <time>2024-11-05T17:36:12Z</time>
      </trkpt>
      <trkpt lat="43.65918" lon="1.38608">
        <ele>134</ele>
        <time>2024-11-05T17:36:13Z</time>
      </trkpt>
      <trkpt lat="43.65916" lon="1.3861">
        <ele>134</ele>
        <time>2024-11-05T17:36:14Z</time>
      </trkpt>
      <trkpt lat="43.65913" lon="1.38612">
        <ele>134</ele>
        <time>2024-11-05T17:36:15Z</time>
      </trkpt>
      <trkpt lat="43.65912" lon="1.38613">
        <ele>134</ele>
        <time>2024-11-05T17:36:16Z</time>
      </trkpt>
      <trkpt lat="43.6591" lon="1.38615">
        <ele>134</ele>
        <time>2024-11-05T17:36:17Z</time>
      </trkpt>
      <trkpt lat="43.65908" lon="1.38616">
        <ele>134</ele>
        <time>2024-11-05T17:36:18Z</time>
      </trkpt>
      <trkpt lat="43.65906" lon="1.38618">
        <ele>134</ele>
        <time>2024-11-05T17:36:19Z</time>
      </trkpt>
      <trkpt lat="43.65904" lon="1.38619">
        <ele>134</ele>
        <time>2024-11-05T17:36:20Z</time>
      </trkpt>
      <trkpt lat="43.65902" lon="1.38621">
        <ele>134</ele>
        <time>2024-11-05T17:36:21Z</time>
      </trkpt>
      <trkpt lat="43.65899" lon="1.38624">
        <ele>134</ele>
        <time>2024-11-05T17:36:22Z</time>
      </trkpt>
      <trkpt lat="43.65898" lon="1.38625">
        <ele>134</ele>
        <time>2024-11-05T17:36:23Z</time>
      </trkpt>
      <trkpt lat="43.65895" lon="1.38627">
        <ele>134</ele>
        <time>2024-11-05T17:36:24Z</time>
      </trkpt>
      <trkpt lat="43.65894" lon="1.38628">
        <ele>134</ele>
        <time>2024-11-05T17:36:25Z</time>
      </trkpt>
      <trkpt lat="43.65892" lon="1.3863">
        <ele>134</ele>
        <time>2024-11-05T17:36:26Z</time>
      </trkpt>
      <trkpt lat="43.6589" lon="1.38631">
        <ele>134</ele>
        <time>2024-11-05T17:36:27Z</time>
      </trkpt>
      <trkpt lat="43.65888" lon="1.38633">
        <ele>134</ele>
        <time>2024-11-05T17:36:28Z</time>
      </trkpt>
      <trkpt lat="43.65887" lon="1.38634">
        <ele>134</ele>
        <time>2024-11-05T17:36:29Z</time>
      </trkpt>
      <trkpt lat="43.65885" lon="1.38636">
        <ele>134</ele>
        <time>2024-11-05T17:36:30Z</time>
      </trkpt>
      <trkpt lat="43.65882" lon="1.38638">
        <ele>134</ele>
        <time>2024-11-05T17:36:31Z</time>
      </trkpt>
      <trkpt lat="43.65881" lon="1.38639">
        <ele>134</ele>
        <time>2024-11-05T17:36:32Z</time>
      </trkpt>
      <trkpt lat="43.65879" lon="1.3864">
        <ele>134</ele>
        <time>2024-11-05T17:36:33Z</time>
      </trkpt>
      <trkpt lat="43.65877" lon="1.38642">
        <ele>135</ele>
        <time>2024-11-05T17:36:34Z</time>
      </trkpt>
      <trkpt lat="43.65875" lon="1.38644">
        <ele>135</ele>
        <time>2024-11-05T17:36:35Z</time>
      </trkpt>
      <trkpt lat="43.65873" lon="1.38645">
        <ele>135</ele>
        <time>2024-11-05T17:36:36Z</time>
      </trkpt>
      <trkpt lat="43.65872" lon="1.38647">
        <ele>135</ele>
        <time>2024-11-05T17:36:37Z</time>
      </trkpt>
      <trkpt lat="43.6587" lon="1.38648">
        <ele>134</ele>
        <time>2024-11-05T17:36:38Z</time>
      </trkpt>
      <trkpt lat="43.65868" lon="1.3865">
        <ele>134</ele>
        <time>2024-11-05T17:36:39Z</time>
      </trkpt>
      <trkpt lat="43.65866" lon="1.38652">
        <ele>134</ele>
        <time>2024-11-05T17:36:40Z</time>
      </trkpt>
      <trkpt lat="43.65864" lon="1.38653">
        <ele>134</ele>
        <time>2024-11-05T17:36:41Z</time>
      </trkpt>
      <trkpt lat="43.65862" lon="1.38655">
        <ele>135</ele>
        <time>2024-11-05T17:36:42Z</time>
      </trkpt>
      <trkpt lat="43.65859" lon="1.38657">
        <ele>135</ele>
        <time>2024-11-05T17:36:43Z</time>
      </trkpt>
      <trkpt lat="43.65858" lon="1.38658">
        <ele>134</ele>
        <time>2024-11-05T17:36:44Z</time>
      </trkpt>
      <trkpt lat="43.65856" lon="1.3866">
        <ele>134</ele>
        <time>2024-11-05T17:36:45Z</time>
      </trkpt>
      <trkpt lat="43.65854" lon="1.38661">
        <ele>134</ele>
        <time>2024-11-05T17:36:46Z</time>
      </trkpt>
      <trkpt lat="43.65852" lon="1.38663">
        <ele>134</ele>
        <time>2024-11-05T17:36:47Z</time>
      </trkpt>
      <trkpt lat="43.65849" lon="1.38666">
        <ele>135</ele>
        <time>2024-11-05T17:36:48Z</time>
      </trkpt>
      <trkpt lat="43.65848" lon="1.38667">
        <ele>135</ele>
        <time>2024-11-05T17:36:49Z</time>
      </trkpt>
      <trkpt lat="43.65846" lon="1.38668">
        <ele>135</ele>
        <time>2024-11-05T17:36:50Z</time>
      </trkpt>
      <trkpt lat="43.65844" lon="1.3867">
        <ele>135</ele>
        <time>2024-11-05T17:36:51Z</time>
      </trkpt>
      <trkpt lat="43.65842" lon="1.38671">
        <ele>135</ele>
        <time>2024-11-05T17:36:52Z</time>
      </trkpt>
      <trkpt lat="43.6584" lon="1.38673">
        <ele>135</ele>
        <time>2024-11-05T17:36:53Z</time>
      </trkpt>
      <trkpt lat="43.65839" lon="1.38675">
        <ele>135</ele>
        <time>2024-11-05T17:36:54Z</time>
      </trkpt>
      <trkpt lat="43.65835" lon="1.38677">
        <ele>134</ele>
        <time>2024-11-05T17:36:55Z</time>
      </trkpt>
      <trkpt lat="43.65834" lon="1.38678">
        <ele>135</ele>
        <time>2024-11-05T17:36:56Z</time>
      </trkpt>
      <trkpt lat="43.65832" lon="1.38679">
        <ele>135</ele>
        <time>2024-11-05T17:36:57Z</time>
      </trkpt>
      <trkpt lat="43.6583" lon="1.38681">
        <ele>135</ele>
        <time>2024-11-05T17:36:58Z</time>
      </trkpt>
      <trkpt lat="43.65828" lon="1.38683">
        <ele>135</ele>
        <time>2024-11-05T17:36:59Z</time>
      </trkpt>
      <trkpt lat="43.65826" lon="1.38684">
        <ele>135</ele>
        <time>2024-11-05T17:37:00Z</time>
      </trkpt>
      <trkpt lat="43.65824" lon="1.38685">
        <ele>135</ele>
        <time>2024-11-05T17:37:01Z</time>
      </trkpt>
      <trkpt lat="43.65822" lon="1.38687">
        <ele>135</ele>
        <time>2024-11-05T17:37:02Z</time>
      </trkpt>
      <trkpt lat="43.65821" lon="1.38688">
        <ele>135</ele>
        <time>2024-11-05T17:37:03Z</time>
      </trkpt>
      <trkpt lat="43.65818" lon="1.3869">
        <ele>135</ele>
        <time>2024-11-05T17:37:04Z</time>
      </trkpt>
      <trkpt lat="43.65816" lon="1.38692">
        <ele>135</ele>
        <time>2024-11-05T17:37:05Z</time>
      </trkpt>
      <trkpt lat="43.65814" lon="1.38693">
        <ele>135</ele>
        <time>2024-11-05T17:37:06Z</time>
      </trkpt>
      <trkpt lat="43.65812" lon="1.38695">
        <ele>135</ele>
        <time>2024-11-05T17:37:07Z</time>
      </trkpt>
      <trkpt lat="43.65809" lon="1.38697">
        <ele>135</ele>
        <time>2024-11-05T17:37:08Z</time>
      </trkpt>
      <trkpt lat="43.65808" lon="1.38697">
        <ele>135</ele>
        <time>2024-11-05T17:37:09Z</time>
      </trkpt>
      <trkpt lat="43.65806" lon="1.38699">
        <ele>135</ele>
        <time>2024-11-05T17:37:10Z</time>
      </trkpt>
      <trkpt lat="43.65804" lon="1.38701">
        <ele>135</ele>
        <time>2024-11-05T17:37:11Z</time>
      </trkpt>
      <trkpt lat="43.65802" lon="1.38702">
        <ele>135</ele>
        <time>2024-11-05T17:37:12Z</time>
      </trkpt>
      <trkpt lat="43.658" lon="1.38704">
        <ele>135</ele>
        <time>2024-11-05T17:37:13Z</time>
      </trkpt>
      <trkpt lat="43.65798" lon="1.38705">
        <ele>136</ele>
        <time>2024-11-05T17:37:14Z</time>
      </trkpt>
      <trkpt lat="43.65796" lon="1.38707">
        <ele>136</ele>
        <time>2024-11-05T17:37:15Z</time>
      </trkpt>
      <trkpt lat="43.65794" lon="1.38708">
        <ele>135</ele>
        <time>2024-11-05T17:37:16Z</time>
      </trkpt>
      <trkpt lat="43.65792" lon="1.3871">
        <ele>135</ele>
        <time>2024-11-05T17:37:17Z</time>
      </trkpt>
      <trkpt lat="43.6579" lon="1.38712">
        <ele>135</ele>
        <time>2024-11-05T17:37:18Z</time>
      </trkpt>
      <trkpt lat="43.65788" lon="1.38713">
        <ele>135</ele>
        <time>2024-11-05T17:37:19Z</time>
      </trkpt>
      <trkpt lat="43.65786" lon="1.38715">
        <ele>135</ele>
        <time>2024-11-05T17:37:20Z</time>
      </trkpt>
      <trkpt lat="43.65784" lon="1.38716">
        <ele>135</ele>
        <time>2024-11-05T17:37:21Z</time>
      </trkpt>
      <trkpt lat="43.65782" lon="1.38717">
        <ele>135</ele>
        <time>2024-11-05T17:37:22Z</time>
      </trkpt>
      <trkpt lat="43.6578" lon="1.38719">
        <ele>135</ele>
        <time>2024-11-05T17:37:23Z</time>
      </trkpt>
      <trkpt lat="43.65778" lon="1.3872">
        <ele>135</ele>
        <time>2024-11-05T17:37:24Z</time>
      </trkpt>
      <trkpt lat="43.65776" lon="1.38722">
        <ele>135</ele>
        <time>2024-11-05T17:37:25Z</time>
      </trkpt>
      <trkpt lat="43.65774" lon="1.38724">
        <ele>135</ele>
        <time>2024-11-05T17:37:26Z</time>
      </trkpt>
      <trkpt lat="43.65772" lon="1.38725">
        <ele>135</ele>
        <time>2024-11-05T17:37:27Z</time>
      </trkpt>
      <trkpt lat="43.65769" lon="1.38728">
        <ele>135</ele>
        <time>2024-11-05T17:37:28Z</time>
      </trkpt>
      <trkpt lat="43.65768" lon="1.38729">
        <ele>135</ele>
        <time>2024-11-05T17:37:29Z</time>
      </trkpt>
      <trkpt lat="43.65765" lon="1.38731">
        <ele>135</ele>
        <time>2024-11-05T17:37:30Z</time>
      </trkpt>
      <trkpt lat="43.65764" lon="1.38732">
        <ele>135</ele>
        <time>2024-11-05T17:37:31Z</time>
      </trkpt>
      <trkpt lat="43.65762" lon="1.38733">
        <ele>135</ele>
        <time>2024-11-05T17:37:32Z</time>
      </trkpt>
      <trkpt lat="43.6576" lon="1.38735">
        <ele>135</ele>
        <time>2024-11-05T17:37:33Z</time>
      </trkpt>
      <trkpt lat="43.65758" lon="1.38736">
        <ele>135</ele>
        <time>2024-11-05T17:37:34Z</time>
      </trkpt>
      <trkpt lat="43.65755" lon="1.38739">
        <ele>135</ele>
        <time>2024-11-05T17:37:35Z</time>
      </trkpt>
      <trkpt lat="43.65754" lon="1.3874">
        <ele>135</ele>
        <time>2024-11-05T17:37:36Z</time>
      </trkpt>
      <trkpt lat="43.65752" lon="1.38741">
        <ele>135</ele>
        <time>2024-11-05T17:37:37Z</time>
      </trkpt>
      <trkpt lat="43.6575" lon="1.38743">
        <ele>135</ele>
        <time>2024-11-05T17:37:38Z</time>
      </trkpt>
      <trkpt lat="43.65748" lon="1.38744">
        <ele>135</ele>
        <time>2024-11-05T17:37:39Z</time>
      </trkpt>
      <trkpt lat="43.65746" lon="1.38745">
        <ele>135</ele>
        <time>2024-11-05T17:37:40Z</time>
      </trkpt>
      <trkpt lat="43.65744" lon="1.38746">
        <ele>135</ele>
        <time>2024-11-05T17:37:41Z</time>
      </trkpt>
      <trkpt lat="43.65741" lon="1.38747">
        <ele>135</ele>
        <time>2024-11-05T17:37:42Z</time>
      </trkpt>
      <trkpt lat="43.6574" lon="1.38748">
        <ele>135</ele>
        <time>2024-11-05T17:37:43Z</time>
      </trkpt>
      <trkpt lat="43.65737" lon="1.38749">
        <ele>135</ele>
        <time>2024-11-05T17:37:44Z</time>
      </trkpt>
      <trkpt lat="43.65735" lon="1.3875">
        <ele>135</ele>
        <time>2024-11-05T17:37:45Z</time>
      </trkpt>
      <trkpt lat="43.65733" lon="1.38751">
        <ele>135</ele>
        <time>2024-11-05T17:37:46Z</time>
      </trkpt>
      <trkpt lat="43.6573" lon="1.38753">
        <ele>135</ele>
        <time>2024-11-05T17:37:47Z</time>
      </trkpt>
      <trkpt lat="43.65729" lon="1.38753">
        <ele>135</ele>
        <time>2024-11-05T17:37:48Z</time>
      </trkpt>
      <trkpt lat="43.65727" lon="1.38754">
        <ele>135</ele>
        <time>2024-11-05T17:37:49Z</time>
      </trkpt>
      <trkpt lat="43.65725" lon="1.38754">
        <ele>135</ele>
        <time>2024-11-05T17:37:50Z</time>
      </trkpt>
      <trkpt lat="43.65722" lon="1.38755">
        <ele>135</ele>
        <time>2024-11-05T17:37:51Z</time>
      </trkpt>
      <trkpt lat="43.6572" lon="1.38755">
        <ele>135</ele>
        <time>2024-11-05T17:37:52Z</time>
      </trkpt>
      <trkpt lat="43.65717" lon="1.38755">
        <ele>135</ele>
        <time>2024-11-05T17:37:53Z</time>
      </trkpt>
      <trkpt lat="43.65713" lon="1.38754">
        <ele>135</ele>
        <time>2024-11-05T17:37:54Z</time>
      </trkpt>
      <trkpt lat="43.65712" lon="1.38754">
        <ele>135</ele>
        <time>2024-11-05T17:37:55Z</time>
      </trkpt>
      <trkpt lat="43.65709" lon="1.38752">
        <ele>135</ele>
        <time>2024-11-05T17:37:56Z</time>
      </trkpt>
      <trkpt lat="43.65707" lon="1.3875">
        <ele>135</ele>
        <time>2024-11-05T17:37:57Z</time>
      </trkpt>
      <trkpt lat="43.65705" lon="1.38748">
        <ele>135</ele>
        <time>2024-11-05T17:37:58Z</time>
      </trkpt>
      <trkpt lat="43.65704" lon="1.38743">
        <ele>135</ele>
        <time>2024-11-05T17:37:59Z</time>
      </trkpt>
      <trkpt lat="43.65703" lon="1.38742">
        <ele>135</ele>
        <time>2024-11-05T17:38:00Z</time>
      </trkpt>
      <trkpt lat="43.65702" lon="1.38738">
        <ele>135</ele>
        <time>2024-11-05T17:38:01Z</time>
      </trkpt>
      <trkpt lat="43.65701" lon="1.38735">
        <ele>135</ele>
        <time>2024-11-05T17:38:02Z</time>
      </trkpt>
      <trkpt lat="43.657" lon="1.38731">
        <ele>135</ele>
        <time>2024-11-05T17:38:03Z</time>
      </trkpt>
      <trkpt lat="43.65699" lon="1.38729">
        <ele>135</ele>
        <time>2024-11-05T17:38:04Z</time>
      </trkpt>
      <trkpt lat="43.65699" lon="1.38726">
        <ele>135</ele>
        <time>2024-11-05T17:38:05Z</time>
      </trkpt>
      <trkpt lat="43.65697" lon="1.38723">
        <ele>135</ele>
        <time>2024-11-05T17:38:06Z</time>
      </trkpt>
      <trkpt lat="43.65696" lon="1.38719">
        <ele>135</ele>
        <time>2024-11-05T17:38:07Z</time>
      </trkpt>
      <trkpt lat="43.65695" lon="1.38716">
        <ele>135</ele>
        <time>2024-11-05T17:38:08Z</time>
      </trkpt>
      <trkpt lat="43.65694" lon="1.38713">
        <ele>135</ele>
        <time>2024-11-05T17:38:09Z</time>
      </trkpt>
      <trkpt lat="43.65693" lon="1.3871">
        <ele>135</ele>
        <time>2024-11-05T17:38:10Z</time>
      </trkpt>
      <trkpt lat="43.65693" lon="1.38707">
        <ele>135</ele>
        <time>2024-11-05T17:38:11Z</time>
      </trkpt>
      <trkpt lat="43.65692" lon="1.38704">
        <ele>135</ele>
        <time>2024-11-05T17:38:12Z</time>
      </trkpt>
      <trkpt lat="43.65691" lon="1.38701">
        <ele>135</ele>
        <time>2024-11-05T17:38:13Z</time>
      </trkpt>
      <trkpt lat="43.6569" lon="1.38698">
        <ele>135</ele>
        <time>2024-11-05T17:38:14Z</time>
      </trkpt>
      <trkpt lat="43.65689" lon="1.38695">
        <ele>135</ele>
        <time>2024-11-05T17:38:15Z</time>
      </trkpt>
      <trkpt lat="43.65688" lon="1.38692">
        <ele>135</ele>
        <time>2024-11-05T17:38:16Z</time>
      </trkpt>
      <trkpt lat="43.65687" lon="1.38689">
        <ele>135</ele>
        <time>2024-11-05T17:38:17Z</time>
      </trkpt>
      <trkpt lat="43.65687" lon="1.38686">
        <ele>135</ele>
        <time>2024-11-05T17:38:18Z</time>
      </trkpt>
      <trkpt lat="43.65686" lon="1.38683">
        <ele>135</ele>
        <time>2024-11-05T17:38:19Z</time>
      </trkpt>
      <trkpt lat="43.65684" lon="1.38678">
        <ele>135</ele>
        <time>2024-11-05T17:38:20Z</time>
      </trkpt>
      <trkpt lat="43.65684" lon="1.38677">
        <ele>135</ele>
        <time>2024-11-05T17:38:21Z</time>
      </trkpt>
      <trkpt lat="43.65683" lon="1.38672">
        <ele>135</ele>
        <time>2024-11-05T17:38:22Z</time>
      </trkpt>
      <trkpt lat="43.65683" lon="1.38671">
        <ele>135</ele>
        <time>2024-11-05T17:38:23Z</time>
      </trkpt>
      <trkpt lat="43.65682" lon="1.38668">
        <ele>135</ele>
        <time>2024-11-05T17:38:24Z</time>
      </trkpt>
      <trkpt lat="43.65681" lon="1.38665">
        <ele>135</ele>
        <time>2024-11-05T17:38:25Z</time>
      </trkpt>
      <trkpt lat="43.6568" lon="1.38662">
        <ele>135</ele>
        <time>2024-11-05T17:38:26Z</time>
      </trkpt>
      <trkpt lat="43.65679" lon="1.38659">
        <ele>135</ele>
        <time>2024-11-05T17:38:27Z</time>
      </trkpt>
      <trkpt lat="43.65679" lon="1.38656">
        <ele>135</ele>
        <time>2024-11-05T17:38:28Z</time>
      </trkpt>
      <trkpt lat="43.65678" lon="1.38653">
        <ele>135</ele>
        <time>2024-11-05T17:38:29Z</time>
      </trkpt>
      <trkpt lat="43.65678" lon="1.3865">
        <ele>135</ele>
        <time>2024-11-05T17:38:30Z</time>
      </trkpt>
      <trkpt lat="43.65677" lon="1.38647">
        <ele>135</ele>
        <time>2024-11-05T17:38:31Z</time>
      </trkpt>
      <trkpt lat="43.65676" lon="1.38644">
        <ele>135</ele>
        <time>2024-11-05T17:38:32Z</time>
      </trkpt>
      <trkpt lat="43.65675" lon="1.38641">
        <ele>135</ele>
        <time>2024-11-05T17:38:33Z</time>
      </trkpt>
      <trkpt lat="43.65674" lon="1.38638">
        <ele>135</ele>
        <time>2024-11-05T17:38:34Z</time>
      </trkpt>
      <trkpt lat="43.65674" lon="1.38635">
        <ele>135</ele>
        <time>2024-11-05T17:38:35Z</time>
      </trkpt>
      <trkpt lat="43.65673" lon="1.38632">
        <ele>135</ele>
        <time>2024-11-05T17:38:36Z</time>
      </trkpt>
      <trkpt lat="43.65671" lon="1.38628">
        <ele>135</ele>
        <time>2024-11-05T17:38:37Z</time>
      </trkpt>
      <trkpt lat="43.65671" lon="1.38626">
        <ele>135</ele>
        <time>2024-11-05T17:38:38Z</time>
      </trkpt>
      <trkpt lat="43.6567" lon="1.38623">
        <ele>135</ele>
        <time>2024-11-05T17:38:39Z</time>
      </trkpt>
      <trkpt lat="43.65669" lon="1.38621">
        <ele>135</ele>
        <time>2024-11-05T17:38:40Z</time>
      </trkpt>
      <trkpt lat="43.65669" lon="1.38617">
        <ele>135</ele>
        <time>2024-11-05T17:38:41Z</time>
      </trkpt>
      <trkpt lat="43.65668" lon="1.38615">
        <ele>135</ele>
        <time>2024-11-05T17:38:42Z</time>
      </trkpt>
      <trkpt lat="43.65667" lon="1.38612">
        <ele>135</ele>
        <time>2024-11-05T17:38:43Z</time>
      </trkpt>
      <trkpt lat="43.65666" lon="1.38609">
        <ele>135</ele>
        <time>2024-11-05T17:38:44Z</time>
      </trkpt>
      <trkpt lat="43.65665" lon="1.38606">
        <ele>135</ele>
        <time>2024-11-05T17:38:45Z</time>
      </trkpt>
      <trkpt lat="43.65663" lon="1.38601">
        <ele>135</ele>
        <time>2024-11-05T17:38:46Z</time>
      </trkpt>
      <trkpt lat="43.65663" lon="1.38599">
        <ele>135</ele>
        <time>2024-11-05T17:38:47Z</time>
      </trkpt>
      <trkpt lat="43.65662" lon="1.38596">
        <ele>135</ele>
        <time>2024-11-05T17:38:48Z</time>
      </trkpt>
      <trkpt lat="43.65661" lon="1.38594">
        <ele>135</ele>
        <time>2024-11-05T17:38:49Z</time>
      </trkpt>
      <trkpt lat="43.6566" lon="1.38591">
        <ele>135</ele>
        <time>2024-11-05T17:38:50Z</time>
      </trkpt>
      <trkpt lat="43.65659" lon="1.38587">
        <ele>135</ele>
        <time>2024-11-05T17:38:51Z</time>
      </trkpt>
      <trkpt lat="43.65658" lon="1.38583">
        <ele>135</ele>
        <time>2024-11-05T17:38:52Z</time>
      </trkpt>
      <trkpt lat="43.65658" lon="1.38581">
        <ele>135</ele>
        <time>2024-11-05T17:38:53Z</time>
      </trkpt>
      <trkpt lat="43.65656" lon="1.38577">
        <ele>135</ele>
        <time>2024-11-05T17:38:54Z</time>
      </trkpt>
      <trkpt lat="43.65656" lon="1.38575">
        <ele>135</ele>
        <time>2024-11-05T17:38:55Z</time>
      </trkpt>
      <trkpt lat="43.65655" lon="1.38572">
        <ele>135</ele>
        <time>2024-11-05T17:38:56Z</time>
      </trkpt>
      <trkpt lat="43.65654" lon="1.38569">
        <ele>135</ele>
        <time>2024-11-05T17:38:57Z</time>
      </trkpt>
      <trkpt lat="43.65653" lon="1.38564">
        <ele>135</ele>
        <time>2024-11-05T17:38:58Z</time>
      </trkpt>
      <trkpt lat="43.65653" lon="1.38563">
        <ele>135</ele>
        <time>2024-11-05T17:38:59Z</time>
      </trkpt>
      <trkpt lat="43.65652" lon="1.3856">
        <ele>135</ele>
        <time>2024-11-05T17:39:00Z</time>
      </trkpt>
      <trkpt lat="43.65651" lon="1.38557">
        <ele>135</ele>
        <time>2024-11-05T17:39:01Z</time>
      </trkpt>
      <trkpt lat="43.65649" lon="1.38554">
        <ele>135</ele>
        <time>2024-11-05T17:39:02Z</time>
      </trkpt>
      <trkpt lat="43.65648" lon="1.38549">
        <ele>135</ele>
        <time>2024-11-05T17:39:03Z</time>
      </trkpt>
      <trkpt lat="43.65647" lon="1.38547">
        <ele>135</ele>
        <time>2024-11-05T17:39:04Z</time>
      </trkpt>
      <trkpt lat="43.65647" lon="1.38544">
        <ele>135</ele>
        <time>2024-11-05T17:39:05Z</time>
      </trkpt>
      <trkpt lat="43.65646" lon="1.38542">
        <ele>135</ele>
        <time>2024-11-05T17:39:06Z</time>
      </trkpt>
      <trkpt lat="43.65646" lon="1.38539">
        <ele>135</ele>
        <time>2024-11-05T17:39:07Z</time>
      </trkpt>
      <trkpt lat="43.65645" lon="1.38536">
        <ele>135</ele>
        <time>2024-11-05T17:39:08Z</time>
      </trkpt>
      <trkpt lat="43.65644" lon="1.38533">
        <ele>135</ele>
        <time>2024-11-05T17:39:09Z</time>
      </trkpt>
      <trkpt lat="43.65644" lon="1.3853">
        <ele>135</ele>
        <time>2024-11-05T17:39:10Z</time>
      </trkpt>
      <trkpt lat="43.65643" lon="1.38528">
        <ele>135</ele>
        <time>2024-11-05T17:39:11Z</time>
      </trkpt>
      <trkpt lat="43.65642" lon="1.38525">
        <ele>135</ele>
        <time>2024-11-05T17:39:12Z</time>
      </trkpt>
      <trkpt lat="43.65642" lon="1.38522">
        <ele>135</ele>
        <time>2024-11-05T17:39:13Z</time>
      </trkpt>
      <trkpt lat="43.65641" lon="1.38519">
        <ele>135</ele>
        <time>2024-11-05T17:39:14Z</time>
      </trkpt>
      <trkpt lat="43.6564" lon="1.38514">
        <ele>135</ele>
        <time>2024-11-05T17:39:15Z</time>
      </trkpt>
      <trkpt lat="43.6564" lon="1.38513">
        <ele>135</ele>
        <time>2024-11-05T17:39:16Z</time>
      </trkpt>
      <trkpt lat="43.6564" lon="1.38508">
        <ele>135</ele>
        <time>2024-11-05T17:39:17Z</time>
      </trkpt>
      <trkpt lat="43.6564" lon="1.38507">
        <ele>135</ele>
        <time>2024-11-05T17:39:18Z</time>
      </trkpt>
      <trkpt lat="43.6564" lon="1.38507">
        <ele>135</ele>
        <time>2024-11-05T17:39:19Z</time>
      </trkpt>
      <trkpt lat="43.65638" lon="1.38503">
        <ele>135</ele>
        <time>2024-11-05T17:39:20Z</time>
      </trkpt>
      <trkpt lat="43.65637" lon="1.385">
        <ele>135</ele>
        <time>2024-11-05T17:39:21Z</time>
      </trkpt>
      <trkpt lat="43.65636" lon="1.38495">
        <ele>135</ele>
        <time>2024-11-05T17:39:22Z</time>
      </trkpt>
      <trkpt lat="43.65635" lon="1.38494">
        <ele>135</ele>
        <time>2024-11-05T17:39:23Z</time>
      </trkpt>
      <trkpt lat="43.65634" lon="1.3849">
        <ele>135</ele>
        <time>2024-11-05T17:39:24Z</time>
      </trkpt>
      <trkpt lat="43.65633" lon="1.38488">
        <ele>135</ele>
        <time>2024-11-05T17:39:25Z</time>
      </trkpt>
      <trkpt lat="43.65632" lon="1.38484">
        <ele>135</ele>
        <time>2024-11-05T17:39:26Z</time>
      </trkpt>
      <trkpt lat="43.65632" lon="1.38482">
        <ele>135</ele>
        <time>2024-11-05T17:39:27Z</time>
      </trkpt>
      <trkpt lat="43.65631" lon="1.38479">
        <ele>135</ele>
        <time>2024-11-05T17:39:28Z</time>
      </trkpt>
      <trkpt lat="43.65631" lon="1.38475">
        <ele>135</ele>
        <time>2024-11-05T17:39:29Z</time>
      </trkpt>
      <trkpt lat="43.6563" lon="1.38472">
        <ele>135</ele>
        <time>2024-11-05T17:39:30Z</time>
      </trkpt>
      <trkpt lat="43.65628" lon="1.38468">
        <ele>135</ele>
        <time>2024-11-05T17:39:31Z</time>
      </trkpt>
      <trkpt lat="43.65627" lon="1.38466">
        <ele>135</ele>
        <time>2024-11-05T17:39:32Z</time>
      </trkpt>
      <trkpt lat="43.65627" lon="1.38464">
        <ele>135</ele>
        <time>2024-11-05T17:39:33Z</time>
      </trkpt>
      <trkpt lat="43.65626" lon="1.38459">
        <ele>135</ele>
        <time>2024-11-05T17:39:34Z</time>
      </trkpt>
      <trkpt lat="43.65626" lon="1.38458">
        <ele>135</ele>
        <time>2024-11-05T17:39:35Z</time>
      </trkpt>
      <trkpt lat="43.65624" lon="1.38453">
        <ele>135</ele>
        <time>2024-11-05T17:39:36Z</time>
      </trkpt>
      <trkpt lat="43.65624" lon="1.38452">
        <ele>135</ele>
        <time>2024-11-05T17:39:37Z</time>
      </trkpt>
      <trkpt lat="43.65623" lon="1.38449">
        <ele>135</ele>
        <time>2024-11-05T17:39:38Z</time>
      </trkpt>
      <trkpt lat="43.65622" lon="1.38446">
        <ele>135</ele>
        <time>2024-11-05T17:39:39Z</time>
      </trkpt>
      <trkpt lat="43.65621" lon="1.38443">
        <ele>135</ele>
        <time>2024-11-05T17:39:40Z</time>
      </trkpt>
      <trkpt lat="43.6562" lon="1.38438">
        <ele>135</ele>
        <time>2024-11-05T17:39:41Z</time>
      </trkpt>
      <trkpt lat="43.65619" lon="1.38437">
        <ele>135</ele>
        <time>2024-11-05T17:39:42Z</time>
      </trkpt>
      <trkpt lat="43.65618" lon="1.38432">
        <ele>135</ele>
        <time>2024-11-05T17:39:43Z</time>
      </trkpt>
      <trkpt lat="43.65617" lon="1.38431">
        <ele>135</ele>
        <time>2024-11-05T17:39:44Z</time>
      </trkpt>
      <trkpt lat="43.65616" lon="1.38428">
        <ele>135</ele>
        <time>2024-11-05T17:39:45Z</time>
      </trkpt>
      <trkpt lat="43.65615" lon="1.38425">
        <ele>135</ele>
        <time>2024-11-05T17:39:46Z</time>
      </trkpt>
      <trkpt lat="43.65614" lon="1.38422">
        <ele>135</ele>
        <time>2024-11-05T17:39:47Z</time>
      </trkpt>
      <trkpt lat="43.65613" lon="1.38417">
        <ele>135</ele>
        <time>2024-11-05T17:39:48Z</time>
      </trkpt>
      <trkpt lat="43.65613" lon="1.38415">
        <ele>135</ele>
        <time>2024-11-05T17:39:49Z</time>
      </trkpt>
      <trkpt lat="43.65612" lon="1.38412">
        <ele>135</ele>
        <time>2024-11-05T17:39:50Z</time>
      </trkpt>
      <trkpt lat="43.65611" lon="1.38409">
        <ele>135</ele>
        <time>2024-11-05T17:39:51Z</time>
      </trkpt>
      <trkpt lat="43.6561" lon="1.38406">
        <ele>135</ele>
        <time>2024-11-05T17:39:52Z</time>
      </trkpt>
      <trkpt lat="43.65609" lon="1.38403">
        <ele>135</ele>
        <time>2024-11-05T17:39:53Z</time>
      </trkpt>
      <trkpt lat="43.65608" lon="1.384">
        <ele>135</ele>
        <time>2024-11-05T17:39:54Z</time>
      </trkpt>
      <trkpt lat="43.65607" lon="1.38397">
        <ele>135</ele>
        <time>2024-11-05T17:39:55Z</time>
      </trkpt>
      <trkpt lat="43.65606" lon="1.38394">
        <ele>135</ele>
        <time>2024-11-05T17:39:56Z</time>
      </trkpt>
      <trkpt lat="43.65605" lon="1.38389">
        <ele>135</ele>
        <time>2024-11-05T17:39:57Z</time>
      </trkpt>
      <trkpt lat="43.65605" lon="1.38387">
        <ele>135</ele>
        <time>2024-11-05T17:39:58Z</time>
      </trkpt>
      <trkpt lat="43.65604" lon="1.38384">
        <ele>135</ele>
        <time>2024-11-05T17:39:59Z</time>
      </trkpt>
      <trkpt lat="43.65603" lon="1.38381">
        <ele>135</ele>
        <time>2024-11-05T17:40:00Z</time>
      </trkpt>
      <trkpt lat="43.65602" lon="1.38378">
        <ele>135</ele>
        <time>2024-11-05T17:40:01Z</time>
      </trkpt>
      <trkpt lat="43.65602" lon="1.38375">
        <ele>135</ele>
        <time>2024-11-05T17:40:02Z</time>
      </trkpt>
      <trkpt lat="43.65601" lon="1.38372">
        <ele>135</ele>
        <time>2024-11-05T17:40:03Z</time>
      </trkpt>
      <trkpt lat="43.656" lon="1.38368">
        <ele>135</ele>
        <time>2024-11-05T17:40:04Z</time>
      </trkpt>
      <trkpt lat="43.65599" lon="1.38367">
        <ele>135</ele>
        <time>2024-11-05T17:40:05Z</time>
      </trkpt>
      <trkpt lat="43.65598" lon="1.38362">
        <ele>135</ele>
        <time>2024-11-05T17:40:06Z</time>
      </trkpt>
      <trkpt lat="43.65598" lon="1.38361">
        <ele>135</ele>
        <time>2024-11-05T17:40:07Z</time>
      </trkpt>
      <trkpt lat="43.65597" lon="1.38357">
        <ele>135</ele>
        <time>2024-11-05T17:40:08Z</time>
      </trkpt>
      <trkpt lat="43.65596" lon="1.38354">
        <ele>135</ele>
        <time>2024-11-05T17:40:09Z</time>
      </trkpt>
      <trkpt lat="43.65595" lon="1.38351">
        <ele>135</ele>
        <time>2024-11-05T17:40:10Z</time>
      </trkpt>
      <trkpt lat="43.65594" lon="1.38348">
        <ele>135</ele>
        <time>2024-11-05T17:40:11Z</time>
      </trkpt>
      <trkpt lat="43.65593" lon="1.38343">
        <ele>135</ele>
        <time>2024-11-05T17:40:12Z</time>
      </trkpt>
      <trkpt lat="43.65593" lon="1.38342">
        <ele>135</ele>
        <time>2024-11-05T17:40:13Z</time>
      </trkpt>
      <trkpt lat="43.65591" lon="1.38337">
        <ele>135</ele>
        <time>2024-11-05T17:40:14Z</time>
      </trkpt>
      <trkpt lat="43.65591" lon="1.38336">
        <ele>135</ele>
        <time>2024-11-05T17:40:15Z</time>
      </trkpt>
      <trkpt lat="43.6559" lon="1.38333">
        <ele>135</ele>
        <time>2024-11-05T17:40:16Z</time>
      </trkpt>
      <trkpt lat="43.65589" lon="1.38329">
        <ele>135</ele>
        <time>2024-11-05T17:40:17Z</time>
      </trkpt>
      <trkpt lat="43.65588" lon="1.38327">
        <ele>135</ele>
        <time>2024-11-05T17:40:18Z</time>
      </trkpt>
      <trkpt lat="43.65587" lon="1.38324">
        <ele>135</ele>
        <time>2024-11-05T17:40:19Z</time>
      </trkpt>
      <trkpt lat="43.65585" lon="1.38322">
        <ele>135</ele>
        <time>2024-11-05T17:40:20Z</time>
      </trkpt>
      <trkpt lat="43.65584" lon="1.38319">
        <ele>135</ele>
        <time>2024-11-05T17:40:21Z</time>
      </trkpt>
      <trkpt lat="43.65582" lon="1.38316">
        <ele>135</ele>
        <time>2024-11-05T17:40:22Z</time>
      </trkpt>
      <trkpt lat="43.65581" lon="1.38315">
        <ele>135</ele>
        <time>2024-11-05T17:40:23Z</time>
      </trkpt>
      <trkpt lat="43.65579" lon="1.38313">
        <ele>135</ele>
        <time>2024-11-05T17:40:24Z</time>
      </trkpt>
      <trkpt lat="43.65577" lon="1.38312">
        <ele>135</ele>
        <time>2024-11-05T17:40:25Z</time>
      </trkpt>
      <trkpt lat="43.65576" lon="1.3831">
        <ele>135</ele>
        <time>2024-11-05T17:40:26Z</time>
      </trkpt>
      <trkpt lat="43.65574" lon="1.38309">
        <ele>135</ele>
        <time>2024-11-05T17:40:27Z</time>
      </trkpt>
      <trkpt lat="43.65572" lon="1.38309">
        <ele>135</ele>
        <time>2024-11-05T17:40:28Z</time>
      </trkpt>
      <trkpt lat="43.65569" lon="1.38309">
        <ele>135</ele>
        <time>2024-11-05T17:40:29Z</time>
      </trkpt>
      <trkpt lat="43.65567" lon="1.3831">
        <ele>135</ele>
        <time>2024-11-05T17:40:30Z</time>
      </trkpt>
      <trkpt lat="43.65566" lon="1.38311">
        <ele>135</ele>
        <time>2024-11-05T17:40:31Z</time>
      </trkpt>
      <trkpt lat="43.65564" lon="1.38311">
        <ele>135</ele>
        <time>2024-11-05T17:40:32Z</time>
      </trkpt>
      <trkpt lat="43.65564" lon="1.38311">
        <ele>135</ele>
        <time>2024-11-05T17:40:33Z</time>
      </trkpt>
      <trkpt lat="43.65555" lon="1.38314">
        <ele>135</ele>
        <time>2024-11-05T17:41:50Z</time>
      </trkpt>
      <trkpt lat="43.65553" lon="1.38315">
        <ele>135</ele>
        <time>2024-11-05T17:41:51Z</time>
      </trkpt>
      <trkpt lat="43.65553" lon="1.38315">
        <ele>135</ele>
        <time>2024-11-05T17:41:52Z</time>
      </trkpt>
      <trkpt lat="43.65549" lon="1.38317">
        <ele>135</ele>
        <time>2024-11-05T17:41:53Z</time>
      </trkpt>
      <trkpt lat="43.65547" lon="1.38318">
        <ele>135</ele>
        <time>2024-11-05T17:41:54Z</time>
      </trkpt>
      <trkpt lat="43.65545" lon="1.38319">
        <ele>135</ele>
        <time>2024-11-05T17:41:55Z</time>
      </trkpt>
      <trkpt lat="43.65543" lon="1.38319">
        <ele>135</ele>
        <time>2024-11-05T17:41:56Z</time>
      </trkpt>
      <trkpt lat="43.6554" lon="1.38321">
        <ele>135</ele>
        <time>2024-11-05T17:41:57Z</time>
      </trkpt>
      <trkpt lat="43.65539" lon="1.38321">
        <ele>135</ele>
        <time>2024-11-05T17:41:58Z</time>
      </trkpt>
      <trkpt lat="43.65536" lon="1.38322">
        <ele>135</ele>
        <time>2024-11-05T17:41:59Z</time>
      </trkpt>
      <trkpt lat="43.65534" lon="1.38323">
        <ele>135</ele>
        <time>2024-11-05T17:42:00Z</time>
      </trkpt>
      <trkpt lat="43.65532" lon="1.38324">
        <ele>135</ele>
        <time>2024-11-05T17:42:01Z</time>
      </trkpt>
      <trkpt lat="43.65531" lon="1.38325">
        <ele>135</ele>
        <time>2024-11-05T17:42:02Z</time>
      </trkpt>
      <trkpt lat="43.65528" lon="1.38326">
        <ele>135</ele>
        <time>2024-11-05T17:42:03Z</time>
      </trkpt>
      <trkpt lat="43.65526" lon="1.38327">
        <ele>135</ele>
        <time>2024-11-05T17:42:04Z</time>
      </trkpt>
      <trkpt lat="43.65524" lon="1.38328">
        <ele>135</ele>
        <time>2024-11-05T17:42:05Z</time>
      </trkpt>
      <trkpt lat="43.65522" lon="1.38329">
        <ele>135</ele>
        <time>2024-11-05T17:42:06Z</time>
      </trkpt>
      <trkpt lat="43.65521" lon="1.38329">
        <ele>135</ele>
        <time>2024-11-05T17:42:07Z</time>
      </trkpt>
      <trkpt lat="43.65519" lon="1.3833">
        <ele>135</ele>
        <time>2024-11-05T17:42:08Z</time>
      </trkpt>
      <trkpt lat="43.65517" lon="1.38331">
        <ele>135</ele>
        <time>2024-11-05T17:42:09Z</time>
      </trkpt>
      <trkpt lat="43.65515" lon="1.38332">
        <ele>135</ele>
        <time>2024-11-05T17:42:10Z</time>
      </trkpt>
      <trkpt lat="43.65513" lon="1.38333">
        <ele>135</ele>
        <time>2024-11-05T17:42:11Z</time>
      </trkpt>
      <trkpt lat="43.65511" lon="1.38334">
        <ele>135</ele>
        <time>2024-11-05T17:42:12Z</time>
      </trkpt>
      <trkpt lat="43.65509" lon="1.38334">
        <ele>135</ele>
        <time>2024-11-05T17:42:13Z</time>
      </trkpt>
      <trkpt lat="43.65507" lon="1.38335">
        <ele>135</ele>
        <time>2024-11-05T17:42:14Z</time>
      </trkpt>
      <trkpt lat="43.65504" lon="1.38336">
        <ele>135</ele>
        <time>2024-11-05T17:42:15Z</time>
      </trkpt>
      <trkpt lat="43.65503" lon="1.38336">
        <ele>135</ele>
        <time>2024-11-05T17:42:16Z</time>
      </trkpt>
      <trkpt lat="43.65501" lon="1.38337">
        <ele>135</ele>
        <time>2024-11-05T17:42:17Z</time>
      </trkpt>
      <trkpt lat="43.65499" lon="1.38338">
        <ele>135</ele>
        <time>2024-11-05T17:42:18Z</time>
      </trkpt>
      <trkpt lat="43.65497" lon="1.38339">
        <ele>135</ele>
        <time>2024-11-05T17:42:19Z</time>
      </trkpt>
      <trkpt lat="43.65495" lon="1.3834">
        <ele>135</ele>
        <time>2024-11-05T17:42:20Z</time>
      </trkpt>
      <trkpt lat="43.65493" lon="1.38341">
        <ele>135</ele>
        <time>2024-11-05T17:42:21Z</time>
      </trkpt>
      <trkpt lat="43.65491" lon="1.38342">
        <ele>135</ele>
        <time>2024-11-05T17:42:22Z</time>
      </trkpt>
      <trkpt lat="43.65488" lon="1.38343">
        <ele>135</ele>
        <time>2024-11-05T17:42:23Z</time>
      </trkpt>
      <trkpt lat="43.65487" lon="1.38344">
        <ele>135</ele>
        <time>2024-11-05T17:42:24Z</time>
      </trkpt>
      <trkpt lat="43.65484" lon="1.38345">
        <ele>135</ele>
        <time>2024-11-05T17:42:25Z</time>
      </trkpt>
      <trkpt lat="43.65483" lon="1.38345">
        <ele>135</ele>
        <time>2024-11-05T17:42:26Z</time>
      </trkpt>
      <trkpt lat="43.65479" lon="1.38346">
        <ele>135</ele>
        <time>2024-11-05T17:42:27Z</time>
      </trkpt>
      <trkpt lat="43.65478" lon="1.38347">
        <ele>135</ele>
        <time>2024-11-05T17:42:28Z</time>
      </trkpt>
      <trkpt lat="43.65476" lon="1.38348">
        <ele>135</ele>
        <time>2024-11-05T17:42:29Z</time>
      </trkpt>
      <trkpt lat="43.65474" lon="1.38348">
        <ele>135</ele>
        <time>2024-11-05T17:42:30Z</time>
      </trkpt>
      <trkpt lat="43.65472" lon="1.38349">
        <ele>135</ele>
        <time>2024-11-05T17:42:31Z</time>
      </trkpt>
      <trkpt lat="43.6547" lon="1.38349">
        <ele>135</ele>
        <time>2024-11-05T17:42:32Z</time>
      </trkpt>
      <trkpt lat="43.65468" lon="1.3835">
        <ele>135</ele>
        <time>2024-11-05T17:42:33Z</time>
      </trkpt>
      <trkpt lat="43.65466" lon="1.38351">
        <ele>135</ele>
        <time>2024-11-05T17:42:34Z</time>
      </trkpt>
      <trkpt lat="43.65465" lon="1.38352">
        <ele>135</ele>
        <time>2024-11-05T17:42:35Z</time>
      </trkpt>
      <trkpt lat="43.65463" lon="1.38353">
        <ele>135</ele>
        <time>2024-11-05T17:42:36Z</time>
      </trkpt>
      <trkpt lat="43.65461" lon="1.38355">
        <ele>135</ele>
        <time>2024-11-05T17:42:37Z</time>
      </trkpt>
      <trkpt lat="43.65457" lon="1.38357">
        <ele>135</ele>
        <time>2024-11-05T17:42:38Z</time>
      </trkpt>
      <trkpt lat="43.65456" lon="1.38357">
        <ele>135</ele>
        <time>2024-11-05T17:42:39Z</time>
      </trkpt>
      <trkpt lat="43.65454" lon="1.38358">
        <ele>135</ele>
        <time>2024-11-05T17:42:40Z</time>
      </trkpt>
      <trkpt lat="43.65452" lon="1.38359">
        <ele>135</ele>
        <time>2024-11-05T17:42:41Z</time>
      </trkpt>
      <trkpt lat="43.6545" lon="1.3836">
        <ele>135</ele>
        <time>2024-11-05T17:42:42Z</time>
      </trkpt>
      <trkpt lat="43.65448" lon="1.3836">
        <ele>135</ele>
        <time>2024-11-05T17:42:43Z</time>
      </trkpt>
      <trkpt lat="43.65446" lon="1.3836">
        <ele>135</ele>
        <time>2024-11-05T17:42:44Z</time>
      </trkpt>
      <trkpt lat="43.65444" lon="1.38361">
        <ele>135</ele>
        <time>2024-11-05T17:42:45Z</time>
      </trkpt>
      <trkpt lat="43.65441" lon="1.38362">
        <ele>135</ele>
        <time>2024-11-05T17:42:46Z</time>
      </trkpt>
      <trkpt lat="43.6544" lon="1.38362">
        <ele>135</ele>
        <time>2024-11-05T17:42:47Z</time>
      </trkpt>
      <trkpt lat="43.65438" lon="1.38362">
        <ele>135</ele>
        <time>2024-11-05T17:42:48Z</time>
      </trkpt>
      <trkpt lat="43.65436" lon="1.38362">
        <ele>135</ele>
        <time>2024-11-05T17:42:49Z</time>
      </trkpt>
      <trkpt lat="43.65434" lon="1.38363">
        <ele>135</ele>
        <time>2024-11-05T17:42:50Z</time>
      </trkpt>
      <trkpt lat="43.6543" lon="1.38363">
        <ele>135</ele>
        <time>2024-11-05T17:42:51Z</time>
      </trkpt>
      <trkpt lat="43.65429" lon="1.38363">
        <ele>135</ele>
        <time>2024-11-05T17:42:52Z</time>
      </trkpt>
      <trkpt lat="43.65427" lon="1.38364">
        <ele>135</ele>
        <time>2024-11-05T17:42:53Z</time>
      </trkpt>
      <trkpt lat="43.65425" lon="1.38364">
        <ele>135</ele>
        <time>2024-11-05T17:42:54Z</time>
      </trkpt>
      <trkpt lat="43.65423" lon="1.38364">
        <ele>135</ele>
        <time>2024-11-05T17:42:55Z</time>
      </trkpt>
      <trkpt lat="43.6542" lon="1.38364">
        <ele>135</ele>
        <time>2024-11-05T17:42:56Z</time>
      </trkpt>
      <trkpt lat="43.65418" lon="1.38365">
        <ele>135</ele>
        <time>2024-11-05T17:42:57Z</time>
      </trkpt>
      <trkpt lat="43.65415" lon="1.38365">
        <ele>135</ele>
        <time>2024-11-05T17:42:58Z</time>
      </trkpt>
      <trkpt lat="43.65414" lon="1.38365">
        <ele>135</ele>
        <time>2024-11-05T17:42:59Z</time>
      </trkpt>
      <trkpt lat="43.6541" lon="1.38367">
        <ele>135</ele>
        <time>2024-11-05T17:43:00Z</time>
      </trkpt>
      <trkpt lat="43.65409" lon="1.38367">
        <ele>135</ele>
        <time>2024-11-05T17:43:01Z</time>
      </trkpt>
      <trkpt lat="43.65406" lon="1.38368">
        <ele>135</ele>
        <time>2024-11-05T17:43:02Z</time>
      </trkpt>
      <trkpt lat="43.65404" lon="1.38368">
        <ele>135</ele>
        <time>2024-11-05T17:43:03Z</time>
      </trkpt>
      <trkpt lat="43.65401" lon="1.38368">
        <ele>135</ele>
        <time>2024-11-05T17:43:04Z</time>
      </trkpt>
      <trkpt lat="43.65399" lon="1.38369">
        <ele>135</ele>
        <time>2024-11-05T17:43:05Z</time>
      </trkpt>
      <trkpt lat="43.65396" lon="1.38369">
        <ele>135</ele>
        <time>2024-11-05T17:43:06Z</time>
      </trkpt>
      <trkpt lat="43.65394" lon="1.38369">
        <ele>135</ele>
        <time>2024-11-05T17:43:07Z</time>
      </trkpt>
      <trkpt lat="43.6539" lon="1.3837">
        <ele>135</ele>
        <time>2024-11-05T17:43:08Z</time>
      </trkpt>
      <trkpt lat="43.65389" lon="1.3837">
        <ele>135</ele>
        <time>2024-11-05T17:43:09Z</time>
      </trkpt>
      <trkpt lat="43.65387" lon="1.3837">
        <ele>135</ele>
        <time>2024-11-05T17:43:10Z</time>
      </trkpt>
      <trkpt lat="43.65383" lon="1.38371">
        <ele>135</ele>
        <time>2024-11-05T17:43:11Z</time>
      </trkpt>
      <trkpt lat="43.65382" lon="1.38371">
        <ele>135</ele>
        <time>2024-11-05T17:43:12Z</time>
      </trkpt>
      <trkpt lat="43.6538" lon="1.38372">
        <ele>135</ele>
        <time>2024-11-05T17:43:13Z</time>
      </trkpt>
      <trkpt lat="43.65377" lon="1.38372">
        <ele>135</ele>
        <time>2024-11-05T17:43:14Z</time>
      </trkpt>
      <trkpt lat="43.65374" lon="1.38372">
        <ele>135</ele>
        <time>2024-11-05T17:43:15Z</time>
      </trkpt>
      <trkpt lat="43.65373" lon="1.38372">
        <ele>135</ele>
        <time>2024-11-05T17:43:16Z</time>
      </trkpt>
      <trkpt lat="43.6537" lon="1.38373">
        <ele>135</ele>
        <time>2024-11-05T17:43:17Z</time>
      </trkpt>
      <trkpt lat="43.65368" lon="1.38373">
        <ele>135</ele>
        <time>2024-11-05T17:43:18Z</time>
      </trkpt>
      <trkpt lat="43.65365" lon="1.38374">
        <ele>135</ele>
        <time>2024-11-05T17:43:19Z</time>
      </trkpt>
      <trkpt lat="43.65363" lon="1.38374">
        <ele>135</ele>
        <time>2024-11-05T17:43:20Z</time>
      </trkpt>
      <trkpt lat="43.65361" lon="1.38374">
        <ele>135</ele>
        <time>2024-11-05T17:43:21Z</time>
      </trkpt>
      <trkpt lat="43.65357" lon="1.38375">
        <ele>135</ele>
        <time>2024-11-05T17:43:22Z</time>
      </trkpt>
      <trkpt lat="43.65355" lon="1.38375">
        <ele>135</ele>
        <time>2024-11-05T17:43:23Z</time>
      </trkpt>
      <trkpt lat="43.65353" lon="1.38375">
        <ele>135</ele>
        <time>2024-11-05T17:43:24Z</time>
      </trkpt>
      <trkpt lat="43.6535" lon="1.38375">
        <ele>135</ele>
        <time>2024-11-05T17:43:25Z</time>
      </trkpt>
      <trkpt lat="43.65348" lon="1.38376">
        <ele>135</ele>
        <time>2024-11-05T17:43:26Z</time>
      </trkpt>
      <trkpt lat="43.65345" lon="1.38377">
        <ele>135</ele>
        <time>2024-11-05T17:43:27Z</time>
      </trkpt>
      <trkpt lat="43.65343" lon="1.38377">
        <ele>135</ele>
        <time>2024-11-05T17:43:28Z</time>
      </trkpt>
      <trkpt lat="43.6534" lon="1.38378">
        <ele>135</ele>
        <time>2024-11-05T17:43:29Z</time>
      </trkpt>
      <trkpt lat="43.65338" lon="1.38379">
        <ele>135</ele>
        <time>2024-11-05T17:43:30Z</time>
      </trkpt>
      <trkpt lat="43.65335" lon="1.38379">
        <ele>135</ele>
        <time>2024-11-05T17:43:31Z</time>
      </trkpt>
      <trkpt lat="43.65333" lon="1.3838">
        <ele>135</ele>
        <time>2024-11-05T17:43:32Z</time>
      </trkpt>
      <trkpt lat="43.65331" lon="1.3838">
        <ele>135</ele>
        <time>2024-11-05T17:43:33Z</time>
      </trkpt>
      <trkpt lat="43.65329" lon="1.38381">
        <ele>135</ele>
        <time>2024-11-05T17:43:34Z</time>
      </trkpt>
      <trkpt lat="43.65326" lon="1.38381">
        <ele>135</ele>
        <time>2024-11-05T17:43:35Z</time>
      </trkpt>
      <trkpt lat="43.65323" lon="1.38382">
        <ele>135</ele>
        <time>2024-11-05T17:43:36Z</time>
      </trkpt>
      <trkpt lat="43.65322" lon="1.38383">
        <ele>135</ele>
        <time>2024-11-05T17:43:37Z</time>
      </trkpt>
      <trkpt lat="43.65318" lon="1.38384">
        <ele>135</ele>
        <time>2024-11-05T17:43:38Z</time>
      </trkpt>
      <trkpt lat="43.65317" lon="1.38384">
        <ele>135</ele>
        <time>2024-11-05T17:43:39Z</time>
      </trkpt>
      <trkpt lat="43.65315" lon="1.38385">
        <ele>135</ele>
        <time>2024-11-05T17:43:40Z</time>
      </trkpt>
      <trkpt lat="43.65312" lon="1.38386">
        <ele>135</ele>
        <time>2024-11-05T17:43:41Z</time>
      </trkpt>
      <trkpt lat="43.6531" lon="1.38386">
        <ele>135</ele>
        <time>2024-11-05T17:43:42Z</time>
      </trkpt>
      <trkpt lat="43.65308" lon="1.38387">
        <ele>135</ele>
        <time>2024-11-05T17:43:43Z</time>
      </trkpt>
      <trkpt lat="43.65305" lon="1.38388">
        <ele>135</ele>
        <time>2024-11-05T17:43:44Z</time>
      </trkpt>
      <trkpt lat="43.65303" lon="1.38389">
        <ele>135</ele>
        <time>2024-11-05T17:43:45Z</time>
      </trkpt>
      <trkpt lat="43.65301" lon="1.38389">
        <ele>135</ele>
        <time>2024-11-05T17:43:46Z</time>
      </trkpt>
      <trkpt lat="43.65297" lon="1.38391">
        <ele>134</ele>
        <time>2024-11-05T17:43:47Z</time>
      </trkpt>
      <trkpt lat="43.65296" lon="1.38392">
        <ele>133</ele>
        <time>2024-11-05T17:43:48Z</time>
      </trkpt>
      <trkpt lat="43.65294" lon="1.38393">
        <ele>134</ele>
        <time>2024-11-05T17:43:49Z</time>
      </trkpt>
      <trkpt lat="43.65292" lon="1.38394">
        <ele>134</ele>
        <time>2024-11-05T17:43:50Z</time>
      </trkpt>
      <trkpt lat="43.6529" lon="1.38395">
        <ele>134</ele>
        <time>2024-11-05T17:43:51Z</time>
      </trkpt>
      <trkpt lat="43.65286" lon="1.38397">
        <ele>134</ele>
        <time>2024-11-05T17:43:52Z</time>
      </trkpt>
      <trkpt lat="43.65285" lon="1.38397">
        <ele>134</ele>
        <time>2024-11-05T17:43:53Z</time>
      </trkpt>
      <trkpt lat="43.65282" lon="1.384">
        <ele>135</ele>
        <time>2024-11-05T17:43:54Z</time>
      </trkpt>
      <trkpt lat="43.65281" lon="1.384">
        <ele>135</ele>
        <time>2024-11-05T17:43:55Z</time>
      </trkpt>
      <trkpt lat="43.65279" lon="1.38402">
        <ele>135</ele>
        <time>2024-11-05T17:43:56Z</time>
      </trkpt>
      <trkpt lat="43.65277" lon="1.38403">
        <ele>135</ele>
        <time>2024-11-05T17:43:57Z</time>
      </trkpt>
      <trkpt lat="43.65274" lon="1.38404">
        <ele>135</ele>
        <time>2024-11-05T17:43:58Z</time>
      </trkpt>
      <trkpt lat="43.65271" lon="1.38405">
        <ele>135</ele>
        <time>2024-11-05T17:43:59Z</time>
      </trkpt>
      <trkpt lat="43.6527" lon="1.38406">
        <ele>134</ele>
        <time>2024-11-05T17:44:00Z</time>
      </trkpt>
      <trkpt lat="43.65267" lon="1.38407">
        <ele>134</ele>
        <time>2024-11-05T17:44:01Z</time>
      </trkpt>
      <trkpt lat="43.65265" lon="1.38408">
        <ele>133</ele>
        <time>2024-11-05T17:44:02Z</time>
      </trkpt>
      <trkpt lat="43.65263" lon="1.38409">
        <ele>133</ele>
        <time>2024-11-05T17:44:03Z</time>
      </trkpt>
      <trkpt lat="43.65261" lon="1.3841">
        <ele>133</ele>
        <time>2024-11-05T17:44:04Z</time>
      </trkpt>
      <trkpt lat="43.65257" lon="1.38412">
        <ele>133</ele>
        <time>2024-11-05T17:44:05Z</time>
      </trkpt>
      <trkpt lat="43.65256" lon="1.38412">
        <ele>133</ele>
        <time>2024-11-05T17:44:06Z</time>
      </trkpt>
      <trkpt lat="43.65253" lon="1.38414">
        <ele>133</ele>
        <time>2024-11-05T17:44:07Z</time>
      </trkpt>
      <trkpt lat="43.65251" lon="1.38414">
        <ele>133</ele>
        <time>2024-11-05T17:44:08Z</time>
      </trkpt>
      <trkpt lat="43.65249" lon="1.38415">
        <ele>133</ele>
        <time>2024-11-05T17:44:09Z</time>
      </trkpt>
      <trkpt lat="43.65247" lon="1.38416">
        <ele>133</ele>
        <time>2024-11-05T17:44:10Z</time>
      </trkpt>
      <trkpt lat="43.65245" lon="1.38417">
        <ele>133</ele>
        <time>2024-11-05T17:44:11Z</time>
      </trkpt>
      <trkpt lat="43.65243" lon="1.38418">
        <ele>133</ele>
        <time>2024-11-05T17:44:12Z</time>
      </trkpt>
      <trkpt lat="43.65241" lon="1.38419">
        <ele>133</ele>
        <time>2024-11-05T17:44:13Z</time>
      </trkpt>
      <trkpt lat="43.65239" lon="1.38421">
        <ele>133</ele>
        <time>2024-11-05T17:44:14Z</time>
      </trkpt>
      <trkpt lat="43.65237" lon="1.38422">
        <ele>133</ele>
        <time>2024-11-05T17:44:15Z</time>
      </trkpt>
      <trkpt lat="43.65233" lon="1.38424">
        <ele>133</ele>
        <time>2024-11-05T17:44:16Z</time>
      </trkpt>
      <trkpt lat="43.65232" lon="1.38424">
        <ele>132</ele>
        <time>2024-11-05T17:44:17Z</time>
      </trkpt>
      <trkpt lat="43.6523" lon="1.38426">
        <ele>132</ele>
        <time>2024-11-05T17:44:18Z</time>
      </trkpt>
      <trkpt lat="43.65227" lon="1.38428">
        <ele>132</ele>
        <time>2024-11-05T17:44:19Z</time>
      </trkpt>
      <trkpt lat="43.65225" lon="1.38429">
        <ele>132</ele>
        <time>2024-11-05T17:44:20Z</time>
      </trkpt>
      <trkpt lat="43.65223" lon="1.3843">
        <ele>131</ele>
        <time>2024-11-05T17:44:21Z</time>
      </trkpt>
      <trkpt lat="43.65221" lon="1.38432">
        <ele>131</ele>
        <time>2024-11-05T17:44:22Z</time>
      </trkpt>
      <trkpt lat="43.65218" lon="1.38433">
        <ele>131</ele>
        <time>2024-11-05T17:44:23Z</time>
      </trkpt>
      <trkpt lat="43.65216" lon="1.38435">
        <ele>131</ele>
        <time>2024-11-05T17:44:24Z</time>
      </trkpt>
      <trkpt lat="43.65214" lon="1.38437">
        <ele>131</ele>
        <time>2024-11-05T17:44:25Z</time>
      </trkpt>
      <trkpt lat="43.65211" lon="1.38439">
        <ele>131</ele>
        <time>2024-11-05T17:44:26Z</time>
      </trkpt>
      <trkpt lat="43.6521" lon="1.3844">
        <ele>131</ele>
        <time>2024-11-05T17:44:27Z</time>
      </trkpt>
      <trkpt lat="43.65207" lon="1.38442">
        <ele>131</ele>
        <time>2024-11-05T17:44:28Z</time>
      </trkpt>
      <trkpt lat="43.65205" lon="1.38444">
        <ele>131</ele>
        <time>2024-11-05T17:44:29Z</time>
      </trkpt>
      <trkpt lat="43.65203" lon="1.38445">
        <ele>131</ele>
        <time>2024-11-05T17:44:30Z</time>
      </trkpt>
      <trkpt lat="43.65201" lon="1.38447">
        <ele>131</ele>
        <time>2024-11-05T17:44:31Z</time>
      </trkpt>
      <trkpt lat="43.65199" lon="1.38449">
        <ele>131</ele>
        <time>2024-11-05T17:44:32Z</time>
      </trkpt>
      <trkpt lat="43.65197" lon="1.38451">
        <ele>131</ele>
        <time>2024-11-05T17:44:33Z</time>
      </trkpt>
      <trkpt lat="43.65195" lon="1.38453">
        <ele>131</ele>
        <time>2024-11-05T17:44:34Z</time>
      </trkpt>
      <trkpt lat="43.65193" lon="1.38454">
        <ele>131</ele>
        <time>2024-11-05T17:44:35Z</time>
      </trkpt>
      <trkpt lat="43.6519" lon="1.38456">
        <ele>131</ele>
        <time>2024-11-05T17:44:36Z</time>
      </trkpt>
      <trkpt lat="43.65188" lon="1.38458">
        <ele>131</ele>
        <time>2024-11-05T17:44:37Z</time>
      </trkpt>
      <trkpt lat="43.65186" lon="1.3846">
        <ele>131</ele>
        <time>2024-11-05T17:44:38Z</time>
      </trkpt>
      <trkpt lat="43.65183" lon="1.38463">
        <ele>131</ele>
        <time>2024-11-05T17:44:39Z</time>
      </trkpt>
      <trkpt lat="43.65182" lon="1.38464">
        <ele>131</ele>
        <time>2024-11-05T17:44:40Z</time>
      </trkpt>
      <trkpt lat="43.6518" lon="1.38465">
        <ele>131</ele>
        <time>2024-11-05T17:44:41Z</time>
      </trkpt>
      <trkpt lat="43.65178" lon="1.38467">
        <ele>131</ele>
        <time>2024-11-05T17:44:42Z</time>
      </trkpt>
      <trkpt lat="43.65175" lon="1.3847">
        <ele>131</ele>
        <time>2024-11-05T17:44:43Z</time>
      </trkpt>
      <trkpt lat="43.65174" lon="1.38471">
        <ele>131</ele>
        <time>2024-11-05T17:44:44Z</time>
      </trkpt>
      <trkpt lat="43.65172" lon="1.38471">
        <ele>131</ele>
        <time>2024-11-05T17:44:45Z</time>
      </trkpt>
      <trkpt lat="43.6517" lon="1.38473">
        <ele>132</ele>
        <time>2024-11-05T17:44:46Z</time>
      </trkpt>
      <trkpt lat="43.65168" lon="1.38474">
        <ele>132</ele>
        <time>2024-11-05T17:44:47Z</time>
      </trkpt>
      <trkpt lat="43.65164" lon="1.38477">
        <ele>132</ele>
        <time>2024-11-05T17:44:48Z</time>
      </trkpt>
      <trkpt lat="43.65163" lon="1.38478">
        <ele>132</ele>
        <time>2024-11-05T17:44:49Z</time>
      </trkpt>
      <trkpt lat="43.6516" lon="1.38481">
        <ele>132</ele>
        <time>2024-11-05T17:44:50Z</time>
      </trkpt>
      <trkpt lat="43.65159" lon="1.38482">
        <ele>132</ele>
        <time>2024-11-05T17:44:51Z</time>
      </trkpt>
      <trkpt lat="43.65157" lon="1.38484">
        <ele>132</ele>
        <time>2024-11-05T17:44:52Z</time>
      </trkpt>
      <trkpt lat="43.65155" lon="1.38486">
        <ele>133</ele>
        <time>2024-11-05T17:44:53Z</time>
      </trkpt>
      <trkpt lat="43.65153" lon="1.38487">
        <ele>133</ele>
        <time>2024-11-05T17:44:54Z</time>
      </trkpt>
      <trkpt lat="43.65151" lon="1.38488">
        <ele>133</ele>
        <time>2024-11-05T17:44:55Z</time>
      </trkpt>
      <trkpt lat="43.6515" lon="1.3849">
        <ele>134</ele>
        <time>2024-11-05T17:44:56Z</time>
      </trkpt>
      <trkpt lat="43.65146" lon="1.38493">
        <ele>134</ele>
        <time>2024-11-05T17:44:57Z</time>
      </trkpt>
      <trkpt lat="43.65145" lon="1.38493">
        <ele>134</ele>
        <time>2024-11-05T17:44:58Z</time>
      </trkpt>
      <trkpt lat="43.65143" lon="1.38496">
        <ele>134</ele>
        <time>2024-11-05T17:44:59Z</time>
      </trkpt>
      <trkpt lat="43.6514" lon="1.38498">
        <ele>134</ele>
        <time>2024-11-05T17:45:00Z</time>
      </trkpt>
      <trkpt lat="43.65139" lon="1.385">
        <ele>134</ele>
        <time>2024-11-05T17:45:01Z</time>
      </trkpt>
      <trkpt lat="43.65136" lon="1.38503">
        <ele>134</ele>
        <time>2024-11-05T17:45:02Z</time>
      </trkpt>
      <trkpt lat="43.65135" lon="1.38504">
        <ele>134</ele>
        <time>2024-11-05T17:45:03Z</time>
      </trkpt>
      <trkpt lat="43.65133" lon="1.38506">
        <ele>134</ele>
        <time>2024-11-05T17:45:04Z</time>
      </trkpt>
      <trkpt lat="43.65131" lon="1.38508">
        <ele>134</ele>
        <time>2024-11-05T17:45:05Z</time>
      </trkpt>
      <trkpt lat="43.65129" lon="1.38509">
        <ele>134</ele>
        <time>2024-11-05T17:45:06Z</time>
      </trkpt>
      <trkpt lat="43.65127" lon="1.38511">
        <ele>134</ele>
        <time>2024-11-05T17:45:07Z</time>
      </trkpt>
      <trkpt lat="43.65125" lon="1.38512">
        <ele>134</ele>
        <time>2024-11-05T17:45:08Z</time>
      </trkpt>
      <trkpt lat="43.65123" lon="1.38512">
        <ele>134</ele>
        <time>2024-11-05T17:45:09Z</time>
      </trkpt>
      <trkpt lat="43.6512" lon="1.38512">
        <ele>134</ele>
        <time>2024-11-05T17:45:10Z</time>
      </trkpt>
      <trkpt lat="43.65119" lon="1.38512">
        <ele>134</ele>
        <time>2024-11-05T17:45:11Z</time>
      </trkpt>
      <trkpt lat="43.65117" lon="1.38511">
        <ele>135</ele>
        <time>2024-11-05T17:45:12Z</time>
      </trkpt>
      <trkpt lat="43.65113" lon="1.3851">
        <ele>135</ele>
        <time>2024-11-05T17:45:13Z</time>
      </trkpt>
      <trkpt lat="43.65112" lon="1.3851">
        <ele>135</ele>
        <time>2024-11-05T17:45:14Z</time>
      </trkpt>
      <trkpt lat="43.65109" lon="1.38509">
        <ele>135</ele>
        <time>2024-11-05T17:45:15Z</time>
      </trkpt>
      <trkpt lat="43.65108" lon="1.38509">
        <ele>135</ele>
        <time>2024-11-05T17:45:16Z</time>
      </trkpt>
      <trkpt lat="43.65106" lon="1.38509">
        <ele>135</ele>
        <time>2024-11-05T17:45:17Z</time>
      </trkpt>
      <trkpt lat="43.65104" lon="1.3851">
        <ele>135</ele>
        <time>2024-11-05T17:45:18Z</time>
      </trkpt>
      <trkpt lat="43.65102" lon="1.38511">
        <ele>135</ele>
        <time>2024-11-05T17:45:19Z</time>
      </trkpt>
      <trkpt lat="43.65101" lon="1.38513">
        <ele>135</ele>
        <time>2024-11-05T17:45:20Z</time>
      </trkpt>
      <trkpt lat="43.65099" lon="1.38515">
        <ele>135</ele>
        <time>2024-11-05T17:45:21Z</time>
      </trkpt>
      <trkpt lat="43.65098" lon="1.38518">
        <ele>135</ele>
        <time>2024-11-05T17:45:22Z</time>
      </trkpt>
      <trkpt lat="43.65097" lon="1.38521">
        <ele>135</ele>
        <time>2024-11-05T17:45:23Z</time>
      </trkpt>
      <trkpt lat="43.65097" lon="1.38523">
        <ele>135</ele>
        <time>2024-11-05T17:45:24Z</time>
      </trkpt>
      <trkpt lat="43.65096" lon="1.38528">
        <ele>135</ele>
        <time>2024-11-05T17:45:25Z</time>
      </trkpt>
      <trkpt lat="43.65096" lon="1.38529">
        <ele>135</ele>
        <time>2024-11-05T17:45:26Z</time>
      </trkpt>
      <trkpt lat="43.65096" lon="1.38532">
        <ele>135</ele>
        <time>2024-11-05T17:45:27Z</time>
      </trkpt>
      <trkpt lat="43.65094" lon="1.38536">
        <ele>135</ele>
        <time>2024-11-05T17:45:28Z</time>
      </trkpt>
      <trkpt lat="43.65093" lon="1.38537">
        <ele>135</ele>
        <time>2024-11-05T17:45:29Z</time>
      </trkpt>
      <trkpt lat="43.65093" lon="1.38537">
        <ele>135</ele>
        <time>2024-11-05T17:45:30Z</time>
      </trkpt>
      <trkpt lat="43.65091" lon="1.38541">
        <ele>135</ele>
        <time>2024-11-05T17:45:31Z</time>
      </trkpt>
      <trkpt lat="43.6509" lon="1.38543">
        <ele>135</ele>
        <time>2024-11-05T17:45:32Z</time>
      </trkpt>
      <trkpt lat="43.65088" lon="1.38544">
        <ele>135</ele>
        <time>2024-11-05T17:45:33Z</time>
      </trkpt>
      <trkpt lat="43.65086" lon="1.38546">
        <ele>135</ele>
        <time>2024-11-05T17:45:34Z</time>
      </trkpt>
      <trkpt lat="43.65084" lon="1.38547">
        <ele>135</ele>
        <time>2024-11-05T17:45:35Z</time>
      </trkpt>
      <trkpt lat="43.65082" lon="1.38548">
        <ele>135</ele>
        <time>2024-11-05T17:45:36Z</time>
      </trkpt>
      <trkpt lat="43.6508" lon="1.38549">
        <ele>135</ele>
        <time>2024-11-05T17:45:37Z</time>
      </trkpt>
      <trkpt lat="43.65078" lon="1.38551">
        <ele>135</ele>
        <time>2024-11-05T17:45:38Z</time>
      </trkpt>
      <trkpt lat="43.65076" lon="1.38552">
        <ele>135</ele>
        <time>2024-11-05T17:45:39Z</time>
      </trkpt>
      <trkpt lat="43.65074" lon="1.38553">
        <ele>135</ele>
        <time>2024-11-05T17:45:40Z</time>
      </trkpt>
      <trkpt lat="43.65072" lon="1.38554">
        <ele>135</ele>
        <time>2024-11-05T17:45:41Z</time>
      </trkpt>
      <trkpt lat="43.6507" lon="1.38555">
        <ele>135</ele>
        <time>2024-11-05T17:45:42Z</time>
      </trkpt>
      <trkpt lat="43.65068" lon="1.38557">
        <ele>135</ele>
        <time>2024-11-05T17:45:43Z</time>
      </trkpt>
      <trkpt lat="43.65065" lon="1.38559">
        <ele>135</ele>
        <time>2024-11-05T17:45:44Z</time>
      </trkpt>
      <trkpt lat="43.65064" lon="1.38559">
        <ele>135</ele>
        <time>2024-11-05T17:45:45Z</time>
      </trkpt>
      <trkpt lat="43.65062" lon="1.38561">
        <ele>135</ele>
        <time>2024-11-05T17:45:46Z</time>
      </trkpt>
      <trkpt lat="43.65061" lon="1.38562">
        <ele>135</ele>
        <time>2024-11-05T17:45:47Z</time>
      </trkpt>
      <trkpt lat="43.65058" lon="1.38563">
        <ele>135</ele>
        <time>2024-11-05T17:45:48Z</time>
      </trkpt>
      <trkpt lat="43.65055" lon="1.38565">
        <ele>135</ele>
        <time>2024-11-05T17:45:49Z</time>
      </trkpt>
      <trkpt lat="43.65054" lon="1.38565">
        <ele>135</ele>
        <time>2024-11-05T17:45:50Z</time>
      </trkpt>
      <trkpt lat="43.65052" lon="1.38566">
        <ele>135</ele>
        <time>2024-11-05T17:45:51Z</time>
      </trkpt>
      <trkpt lat="43.6505" lon="1.38568">
        <ele>135</ele>
        <time>2024-11-05T17:45:52Z</time>
      </trkpt>
      <trkpt lat="43.65048" lon="1.38569">
        <ele>135</ele>
        <time>2024-11-05T17:45:53Z</time>
      </trkpt>
      <trkpt lat="43.65045" lon="1.38571">
        <ele>135</ele>
        <time>2024-11-05T17:45:54Z</time>
      </trkpt>
      <trkpt lat="43.65044" lon="1.38572">
        <ele>135</ele>
        <time>2024-11-05T17:45:55Z</time>
      </trkpt>
      <trkpt lat="43.65042" lon="1.38574">
        <ele>135</ele>
        <time>2024-11-05T17:45:56Z</time>
      </trkpt>
      <trkpt lat="43.6504" lon="1.38575">
        <ele>135</ele>
        <time>2024-11-05T17:45:57Z</time>
      </trkpt>
      <trkpt lat="43.65038" lon="1.38577">
        <ele>135</ele>
        <time>2024-11-05T17:45:58Z</time>
      </trkpt>
      <trkpt lat="43.65036" lon="1.38578">
        <ele>135</ele>
        <time>2024-11-05T17:45:59Z</time>
      </trkpt>
      <trkpt lat="43.65034" lon="1.3858">
        <ele>135</ele>
        <time>2024-11-05T17:46:00Z</time>
      </trkpt>
      <trkpt lat="43.65031" lon="1.38581">
        <ele>135</ele>
        <time>2024-11-05T17:46:01Z</time>
      </trkpt>
      <trkpt lat="43.65028" lon="1.38583">
        <ele>135</ele>
        <time>2024-11-05T17:46:02Z</time>
      </trkpt>
      <trkpt lat="43.65027" lon="1.38584">
        <ele>135</ele>
        <time>2024-11-05T17:46:03Z</time>
      </trkpt>
      <trkpt lat="43.65025" lon="1.38585">
        <ele>135</ele>
        <time>2024-11-05T17:46:04Z</time>
      </trkpt>
      <trkpt lat="43.65023" lon="1.38586">
        <ele>135</ele>
        <time>2024-11-05T17:46:05Z</time>
      </trkpt>
      <trkpt lat="43.6502" lon="1.38587">
        <ele>135</ele>
        <time>2024-11-05T17:46:06Z</time>
      </trkpt>
      <trkpt lat="43.65019" lon="1.38588">
        <ele>135</ele>
        <time>2024-11-05T17:46:07Z</time>
      </trkpt>
      <trkpt lat="43.65017" lon="1.38589">
        <ele>135</ele>
        <time>2024-11-05T17:46:08Z</time>
      </trkpt>
      <trkpt lat="43.65014" lon="1.38591">
        <ele>135</ele>
        <time>2024-11-05T17:46:09Z</time>
      </trkpt>
      <trkpt lat="43.65012" lon="1.38591">
        <ele>135</ele>
        <time>2024-11-05T17:46:10Z</time>
      </trkpt>
      <trkpt lat="43.6501" lon="1.38593">
        <ele>135</ele>
        <time>2024-11-05T17:46:11Z</time>
      </trkpt>
      <trkpt lat="43.65009" lon="1.38594">
        <ele>135</ele>
        <time>2024-11-05T17:46:12Z</time>
      </trkpt>
      <trkpt lat="43.65007" lon="1.38595">
        <ele>135</ele>
        <time>2024-11-05T17:46:13Z</time>
      </trkpt>
      <trkpt lat="43.65004" lon="1.38597">
        <ele>135</ele>
        <time>2024-11-05T17:46:14Z</time>
      </trkpt>
      <trkpt lat="43.65002" lon="1.38598">
        <ele>135</ele>
        <time>2024-11-05T17:46:15Z</time>
      </trkpt>
      <trkpt lat="43.64999" lon="1.38599">
        <ele>135</ele>
        <time>2024-11-05T17:46:16Z</time>
      </trkpt>
      <trkpt lat="43.64998" lon="1.386">
        <ele>135</ele>
        <time>2024-11-05T17:46:17Z</time>
      </trkpt>
      <trkpt lat="43.64995" lon="1.38602">
        <ele>135</ele>
        <time>2024-11-05T17:46:18Z</time>
      </trkpt>
      <trkpt lat="43.64993" lon="1.38603">
        <ele>135</ele>
        <time>2024-11-05T17:46:19Z</time>
      </trkpt>
      <trkpt lat="43.64991" lon="1.38604">
        <ele>135</ele>
        <time>2024-11-05T17:46:20Z</time>
      </trkpt>
      <trkpt lat="43.64989" lon="1.38606">
        <ele>135</ele>
        <time>2024-11-05T17:46:21Z</time>
      </trkpt>
      <trkpt lat="43.64987" lon="1.38607">
        <ele>135</ele>
        <time>2024-11-05T17:46:22Z</time>
      </trkpt>
      <trkpt lat="43.64985" lon="1.38608">
        <ele>135</ele>
        <time>2024-11-05T17:46:23Z</time>
      </trkpt>
      <trkpt lat="43.64983" lon="1.38609">
        <ele>135</ele>
        <time>2024-11-05T17:46:24Z</time>
      </trkpt>
      <trkpt lat="43.64981" lon="1.3861">
        <ele>135</ele>
        <time>2024-11-05T17:46:25Z</time>
      </trkpt>
      <trkpt lat="43.64978" lon="1.38611">
        <ele>135</ele>
        <time>2024-11-05T17:46:26Z</time>
      </trkpt>
      <trkpt lat="43.64975" lon="1.38613">
        <ele>135</ele>
        <time>2024-11-05T17:46:27Z</time>
      </trkpt>
      <trkpt lat="43.64974" lon="1.38614">
        <ele>135</ele>
        <time>2024-11-05T17:46:28Z</time>
      </trkpt>
      <trkpt lat="43.64972" lon="1.38615">
        <ele>135</ele>
        <time>2024-11-05T17:46:29Z</time>
      </trkpt>
      <trkpt lat="43.64969" lon="1.38616">
        <ele>135</ele>
        <time>2024-11-05T17:46:30Z</time>
      </trkpt>
      <trkpt lat="43.64967" lon="1.38618">
        <ele>135</ele>
        <time>2024-11-05T17:46:31Z</time>
      </trkpt>
      <trkpt lat="43.64964" lon="1.38619">
        <ele>135</ele>
        <time>2024-11-05T17:46:32Z</time>
      </trkpt>
      <trkpt lat="43.64963" lon="1.3862">
        <ele>135</ele>
        <time>2024-11-05T17:46:33Z</time>
      </trkpt>
      <trkpt lat="43.6496" lon="1.38622">
        <ele>135</ele>
        <time>2024-11-05T17:46:34Z</time>
      </trkpt>
      <trkpt lat="43.64959" lon="1.38622">
        <ele>135</ele>
        <time>2024-11-05T17:46:35Z</time>
      </trkpt>
      <trkpt lat="43.64957" lon="1.38623">
        <ele>135</ele>
        <time>2024-11-05T17:46:36Z</time>
      </trkpt>
      <trkpt lat="43.64955" lon="1.38625">
        <ele>135</ele>
        <time>2024-11-05T17:46:37Z</time>
      </trkpt>
      <trkpt lat="43.64953" lon="1.38626">
        <ele>135</ele>
        <time>2024-11-05T17:46:38Z</time>
      </trkpt>
      <trkpt lat="43.6495" lon="1.38627">
        <ele>135</ele>
        <time>2024-11-05T17:46:39Z</time>
      </trkpt>
      <trkpt lat="43.64947" lon="1.38629">
        <ele>135</ele>
        <time>2024-11-05T17:46:40Z</time>
      </trkpt>
      <trkpt lat="43.64946" lon="1.3863">
        <ele>135</ele>
        <time>2024-11-05T17:46:41Z</time>
      </trkpt>
      <trkpt lat="43.64943" lon="1.38633">
        <ele>135</ele>
        <time>2024-11-05T17:46:42Z</time>
      </trkpt>
      <trkpt lat="43.64942" lon="1.38633">
        <ele>135</ele>
        <time>2024-11-05T17:46:43Z</time>
      </trkpt>
      <trkpt lat="43.64938" lon="1.38636">
        <ele>135</ele>
        <time>2024-11-05T17:46:44Z</time>
      </trkpt>
      <trkpt lat="43.64937" lon="1.38636">
        <ele>135</ele>
        <time>2024-11-05T17:46:45Z</time>
      </trkpt>
      <trkpt lat="43.64935" lon="1.38638">
        <ele>135</ele>
        <time>2024-11-05T17:46:46Z</time>
      </trkpt>
      <trkpt lat="43.64933" lon="1.38639">
        <ele>135</ele>
        <time>2024-11-05T17:46:47Z</time>
      </trkpt>
      <trkpt lat="43.64931" lon="1.38641">
        <ele>135</ele>
        <time>2024-11-05T17:46:48Z</time>
      </trkpt>
      <trkpt lat="43.64928" lon="1.38643">
        <ele>135</ele>
        <time>2024-11-05T17:46:49Z</time>
      </trkpt>
      <trkpt lat="43.64927" lon="1.38643">
        <ele>135</ele>
        <time>2024-11-05T17:46:50Z</time>
      </trkpt>
      <trkpt lat="43.64925" lon="1.38645">
        <ele>135</ele>
        <time>2024-11-05T17:46:51Z</time>
      </trkpt>
      <trkpt lat="43.64923" lon="1.38646">
        <ele>135</ele>
        <time>2024-11-05T17:46:52Z</time>
      </trkpt>
      <trkpt lat="43.64921" lon="1.38648">
        <ele>135</ele>
        <time>2024-11-05T17:46:53Z</time>
      </trkpt>
      <trkpt lat="43.64918" lon="1.38649">
        <ele>135</ele>
        <time>2024-11-05T17:46:54Z</time>
      </trkpt>
      <trkpt lat="43.64917" lon="1.3865">
        <ele>135</ele>
        <time>2024-11-05T17:46:55Z</time>
      </trkpt>
      <trkpt lat="43.64914" lon="1.38651">
        <ele>135</ele>
        <time>2024-11-05T17:46:56Z</time>
      </trkpt>
      <trkpt lat="43.64913" lon="1.38652">
        <ele>135</ele>
        <time>2024-11-05T17:46:57Z</time>
      </trkpt>
      <trkpt lat="43.64911" lon="1.38654">
        <ele>135</ele>
        <time>2024-11-05T17:46:58Z</time>
      </trkpt>
      <trkpt lat="43.64909" lon="1.38655">
        <ele>135</ele>
        <time>2024-11-05T17:46:59Z</time>
      </trkpt>
      <trkpt lat="43.64906" lon="1.38657">
        <ele>135</ele>
        <time>2024-11-05T17:47:00Z</time>
      </trkpt>
      <trkpt lat="43.64904" lon="1.38658">
        <ele>135</ele>
        <time>2024-11-05T17:47:01Z</time>
      </trkpt>
      <trkpt lat="43.64902" lon="1.38659">
        <ele>135</ele>
        <time>2024-11-05T17:47:02Z</time>
      </trkpt>
      <trkpt lat="43.649" lon="1.3866">
        <ele>135</ele>
        <time>2024-11-05T17:47:03Z</time>
      </trkpt>
      <trkpt lat="43.64897" lon="1.38662">
        <ele>135</ele>
        <time>2024-11-05T17:47:04Z</time>
      </trkpt>
      <trkpt lat="43.64896" lon="1.38663">
        <ele>135</ele>
        <time>2024-11-05T17:47:05Z</time>
      </trkpt>
      <trkpt lat="43.64892" lon="1.38665">
        <ele>135</ele>
        <time>2024-11-05T17:47:06Z</time>
      </trkpt>
      <trkpt lat="43.64891" lon="1.38665">
        <ele>135</ele>
        <time>2024-11-05T17:47:07Z</time>
      </trkpt>
      <trkpt lat="43.64889" lon="1.38667">
        <ele>135</ele>
        <time>2024-11-05T17:47:08Z</time>
      </trkpt>
      <trkpt lat="43.64887" lon="1.38668">
        <ele>135</ele>
        <time>2024-11-05T17:47:09Z</time>
      </trkpt>
      <trkpt lat="43.64885" lon="1.38669">
        <ele>135</ele>
        <time>2024-11-05T17:47:10Z</time>
      </trkpt>
      <trkpt lat="43.64883" lon="1.38671">
        <ele>135</ele>
        <time>2024-11-05T17:47:11Z</time>
      </trkpt>
      <trkpt lat="43.64881" lon="1.38672">
        <ele>135</ele>
        <time>2024-11-05T17:47:12Z</time>
      </trkpt>
      <trkpt lat="43.64879" lon="1.38674">
        <ele>135</ele>
        <time>2024-11-05T17:47:13Z</time>
      </trkpt>
      <trkpt lat="43.64877" lon="1.38675">
        <ele>135</ele>
        <time>2024-11-05T17:47:14Z</time>
      </trkpt>
      <trkpt lat="43.64874" lon="1.38677">
        <ele>135</ele>
        <time>2024-11-05T17:47:15Z</time>
      </trkpt>
      <trkpt lat="43.64873" lon="1.38678">
        <ele>135</ele>
        <time>2024-11-05T17:47:16Z</time>
      </trkpt>
      <trkpt lat="43.6487" lon="1.3868">
        <ele>135</ele>
        <time>2024-11-05T17:47:17Z</time>
      </trkpt>
      <trkpt lat="43.64869" lon="1.38681">
        <ele>135</ele>
        <time>2024-11-05T17:47:18Z</time>
      </trkpt>
      <trkpt lat="43.64867" lon="1.38682">
        <ele>135</ele>
        <time>2024-11-05T17:47:19Z</time>
      </trkpt>
      <trkpt lat="43.64865" lon="1.38684">
        <ele>135</ele>
        <time>2024-11-05T17:47:20Z</time>
      </trkpt>
      <trkpt lat="43.64863" lon="1.38685">
        <ele>135</ele>
        <time>2024-11-05T17:47:21Z</time>
      </trkpt>
      <trkpt lat="43.64861" lon="1.38686">
        <ele>135</ele>
        <time>2024-11-05T17:47:22Z</time>
      </trkpt>
      <trkpt lat="43.64859" lon="1.38688">
        <ele>135</ele>
        <time>2024-11-05T17:47:23Z</time>
      </trkpt>
      <trkpt lat="43.64855" lon="1.3869">
        <ele>135</ele>
        <time>2024-11-05T17:47:24Z</time>
      </trkpt>
      <trkpt lat="43.64854" lon="1.3869">
        <ele>135</ele>
        <time>2024-11-05T17:47:25Z</time>
      </trkpt>
      <trkpt lat="43.64852" lon="1.38692">
        <ele>135</ele>
        <time>2024-11-05T17:47:26Z</time>
      </trkpt>
      <trkpt lat="43.64848" lon="1.38694">
        <ele>135</ele>
        <time>2024-11-05T17:47:27Z</time>
      </trkpt>
      <trkpt lat="43.64847" lon="1.38695">
        <ele>135</ele>
        <time>2024-11-05T17:47:28Z</time>
      </trkpt>
      <trkpt lat="43.64844" lon="1.38698">
        <ele>135</ele>
        <time>2024-11-05T17:47:29Z</time>
      </trkpt>
      <trkpt lat="43.64843" lon="1.38698">
        <ele>135</ele>
        <time>2024-11-05T17:47:30Z</time>
      </trkpt>
      <trkpt lat="43.64841" lon="1.387">
        <ele>135</ele>
        <time>2024-11-05T17:47:31Z</time>
      </trkpt>
      <trkpt lat="43.64839" lon="1.38701">
        <ele>135</ele>
        <time>2024-11-05T17:47:32Z</time>
      </trkpt>
      <trkpt lat="43.64837" lon="1.38702">
        <ele>135</ele>
        <time>2024-11-05T17:47:33Z</time>
      </trkpt>
      <trkpt lat="43.64835" lon="1.38704">
        <ele>135</ele>
        <time>2024-11-05T17:47:34Z</time>
      </trkpt>
      <trkpt lat="43.64833" lon="1.38705">
        <ele>135</ele>
        <time>2024-11-05T17:47:35Z</time>
      </trkpt>
      <trkpt lat="43.64832" lon="1.38707">
        <ele>135</ele>
        <time>2024-11-05T17:47:36Z</time>
      </trkpt>
      <trkpt lat="43.64829" lon="1.38708">
        <ele>135</ele>
        <time>2024-11-05T17:47:37Z</time>
      </trkpt>
      <trkpt lat="43.64827" lon="1.3871">
        <ele>135</ele>
        <time>2024-11-05T17:47:38Z</time>
      </trkpt>
      <trkpt lat="43.64826" lon="1.38711">
        <ele>135</ele>
        <time>2024-11-05T17:47:39Z</time>
      </trkpt>
      <trkpt lat="43.64824" lon="1.38712">
        <ele>135</ele>
        <time>2024-11-05T17:47:40Z</time>
      </trkpt>
      <trkpt lat="43.64822" lon="1.38714">
        <ele>135</ele>
        <time>2024-11-05T17:47:41Z</time>
      </trkpt>
      <trkpt lat="43.64819" lon="1.38715">
        <ele>135</ele>
        <time>2024-11-05T17:47:42Z</time>
      </trkpt>
      <trkpt lat="43.64817" lon="1.38716">
        <ele>135</ele>
        <time>2024-11-05T17:47:43Z</time>
      </trkpt>
      <trkpt lat="43.64815" lon="1.38718">
        <ele>135</ele>
        <time>2024-11-05T17:47:44Z</time>
      </trkpt>
      <trkpt lat="43.64813" lon="1.3872">
        <ele>135</ele>
        <time>2024-11-05T17:47:45Z</time>
      </trkpt>
      <trkpt lat="43.64811" lon="1.38722">
        <ele>135</ele>
        <time>2024-11-05T17:47:46Z</time>
      </trkpt>
      <trkpt lat="43.64808" lon="1.38724">
        <ele>135</ele>
        <time>2024-11-05T17:47:47Z</time>
      </trkpt>
      <trkpt lat="43.64807" lon="1.38725">
        <ele>135</ele>
        <time>2024-11-05T17:47:48Z</time>
      </trkpt>
      <trkpt lat="43.64805" lon="1.38726">
        <ele>135</ele>
        <time>2024-11-05T17:47:49Z</time>
      </trkpt>
      <trkpt lat="43.64803" lon="1.38728">
        <ele>135</ele>
        <time>2024-11-05T17:47:50Z</time>
      </trkpt>
      <trkpt lat="43.64801" lon="1.38729">
        <ele>135</ele>
        <time>2024-11-05T17:47:51Z</time>
      </trkpt>
      <trkpt lat="43.64799" lon="1.3873">
        <ele>135</ele>
        <time>2024-11-05T17:47:52Z</time>
      </trkpt>
      <trkpt lat="43.64797" lon="1.38732">
        <ele>135</ele>
        <time>2024-11-05T17:47:53Z</time>
      </trkpt>
      <trkpt lat="43.64795" lon="1.38734">
        <ele>135</ele>
        <time>2024-11-05T17:47:54Z</time>
      </trkpt>
      <trkpt lat="43.64793" lon="1.38736">
        <ele>135</ele>
        <time>2024-11-05T17:47:55Z</time>
      </trkpt>
      <trkpt lat="43.6479" lon="1.38738">
        <ele>135</ele>
        <time>2024-11-05T17:47:56Z</time>
      </trkpt>
      <trkpt lat="43.64789" lon="1.38739">
        <ele>135</ele>
        <time>2024-11-05T17:47:57Z</time>
      </trkpt>
      <trkpt lat="43.64786" lon="1.38741">
        <ele>135</ele>
        <time>2024-11-05T17:47:58Z</time>
      </trkpt>
      <trkpt lat="43.64785" lon="1.38742">
        <ele>135</ele>
        <time>2024-11-05T17:47:59Z</time>
      </trkpt>
      <trkpt lat="43.64782" lon="1.38744">
        <ele>135</ele>
        <time>2024-11-05T17:48:00Z</time>
      </trkpt>
      <trkpt lat="43.64781" lon="1.38744">
        <ele>135</ele>
        <time>2024-11-05T17:48:01Z</time>
      </trkpt>
      <trkpt lat="43.64779" lon="1.38745">
        <ele>135</ele>
        <time>2024-11-05T17:48:02Z</time>
      </trkpt>
      <trkpt lat="43.64777" lon="1.38747">
        <ele>135</ele>
        <time>2024-11-05T17:48:03Z</time>
      </trkpt>
      <trkpt lat="43.64775" lon="1.38748">
        <ele>135</ele>
        <time>2024-11-05T17:48:04Z</time>
      </trkpt>
      <trkpt lat="43.64773" lon="1.3875">
        <ele>135</ele>
        <time>2024-11-05T17:48:05Z</time>
      </trkpt>
      <trkpt lat="43.6477" lon="1.38752">
        <ele>135</ele>
        <time>2024-11-05T17:48:06Z</time>
      </trkpt>
      <trkpt lat="43.64769" lon="1.38753">
        <ele>135</ele>
        <time>2024-11-05T17:48:07Z</time>
      </trkpt>
      <trkpt lat="43.64767" lon="1.38754">
        <ele>135</ele>
        <time>2024-11-05T17:48:08Z</time>
      </trkpt>
      <trkpt lat="43.64765" lon="1.38755">
        <ele>135</ele>
        <time>2024-11-05T17:48:09Z</time>
      </trkpt>
      <trkpt lat="43.64763" lon="1.38757">
        <ele>135</ele>
        <time>2024-11-05T17:48:10Z</time>
      </trkpt>
      <trkpt lat="43.64761" lon="1.38759">
        <ele>135</ele>
        <time>2024-11-05T17:48:11Z</time>
      </trkpt>
      <trkpt lat="43.64757" lon="1.38761">
        <ele>135</ele>
        <time>2024-11-05T17:48:12Z</time>
      </trkpt>
      <trkpt lat="43.64756" lon="1.38761">
        <ele>135</ele>
        <time>2024-11-05T17:48:13Z</time>
      </trkpt>
      <trkpt lat="43.64753" lon="1.38764">
        <ele>135</ele>
        <time>2024-11-05T17:48:14Z</time>
      </trkpt>
      <trkpt lat="43.64752" lon="1.38764">
        <ele>135</ele>
        <time>2024-11-05T17:48:15Z</time>
      </trkpt>
      <trkpt lat="43.6475" lon="1.38766">
        <ele>135</ele>
        <time>2024-11-05T17:48:16Z</time>
      </trkpt>
      <trkpt lat="43.64748" lon="1.38768">
        <ele>135</ele>
        <time>2024-11-05T17:48:17Z</time>
      </trkpt>
      <trkpt lat="43.64746" lon="1.3877">
        <ele>135</ele>
        <time>2024-11-05T17:48:18Z</time>
      </trkpt>
      <trkpt lat="43.64744" lon="1.38772">
        <ele>135</ele>
        <time>2024-11-05T17:48:19Z</time>
      </trkpt>
      <trkpt lat="43.64742" lon="1.38773">
        <ele>135</ele>
        <time>2024-11-05T17:48:20Z</time>
      </trkpt>
      <trkpt lat="43.64739" lon="1.38775">
        <ele>135</ele>
        <time>2024-11-05T17:48:21Z</time>
      </trkpt>
      <trkpt lat="43.64737" lon="1.38776">
        <ele>135</ele>
        <time>2024-11-05T17:48:22Z</time>
      </trkpt>
      <trkpt lat="43.64735" lon="1.38778">
        <ele>135</ele>
        <time>2024-11-05T17:48:23Z</time>
      </trkpt>
      <trkpt lat="43.64733" lon="1.38779">
        <ele>135</ele>
        <time>2024-11-05T17:48:24Z</time>
      </trkpt>
      <trkpt lat="43.64731" lon="1.38781">
        <ele>135</ele>
        <time>2024-11-05T17:48:25Z</time>
      </trkpt>
      <trkpt lat="43.64729" lon="1.38782">
        <ele>135</ele>
        <time>2024-11-05T17:48:26Z</time>
      </trkpt>
      <trkpt lat="43.64726" lon="1.38784">
        <ele>135</ele>
        <time>2024-11-05T17:48:27Z</time>
      </trkpt>
      <trkpt lat="43.64725" lon="1.38784">
        <ele>135</ele>
        <time>2024-11-05T17:48:28Z</time>
      </trkpt>
      <trkpt lat="43.64723" lon="1.38786">
        <ele>135</ele>
        <time>2024-11-05T17:48:29Z</time>
      </trkpt>
      <trkpt lat="43.64721" lon="1.38787">
        <ele>135</ele>
        <time>2024-11-05T17:48:30Z</time>
      </trkpt>
      <trkpt lat="43.64717" lon="1.38789">
        <ele>135</ele>
        <time>2024-11-05T17:48:31Z</time>
      </trkpt>
      <trkpt lat="43.64716" lon="1.3879">
        <ele>135</ele>
        <time>2024-11-05T17:48:32Z</time>
      </trkpt>
      <trkpt lat="43.64713" lon="1.38792">
        <ele>135</ele>
        <time>2024-11-05T17:48:33Z</time>
      </trkpt>
      <trkpt lat="43.64712" lon="1.38793">
        <ele>135</ele>
        <time>2024-11-05T17:48:34Z</time>
      </trkpt>
      <trkpt lat="43.64709" lon="1.38795">
        <ele>135</ele>
        <time>2024-11-05T17:48:35Z</time>
      </trkpt>
      <trkpt lat="43.64708" lon="1.38795">
        <ele>135</ele>
        <time>2024-11-05T17:48:36Z</time>
      </trkpt>
      <trkpt lat="43.64705" lon="1.38796">
        <ele>135</ele>
        <time>2024-11-05T17:48:37Z</time>
      </trkpt>
      <trkpt lat="43.64703" lon="1.38797">
        <ele>135</ele>
        <time>2024-11-05T17:48:38Z</time>
      </trkpt>
      <trkpt lat="43.64701" lon="1.38798">
        <ele>135</ele>
        <time>2024-11-05T17:48:39Z</time>
      </trkpt>
      <trkpt lat="43.64697" lon="1.38799">
        <ele>135</ele>
        <time>2024-11-05T17:48:40Z</time>
      </trkpt>
      <trkpt lat="43.64696" lon="1.388">
        <ele>135</ele>
        <time>2024-11-05T17:48:41Z</time>
      </trkpt>
      <trkpt lat="43.64693" lon="1.38801">
        <ele>135</ele>
        <time>2024-11-05T17:48:42Z</time>
      </trkpt>
      <trkpt lat="43.64692" lon="1.38802">
        <ele>135</ele>
        <time>2024-11-05T17:48:43Z</time>
      </trkpt>
      <trkpt lat="43.64689" lon="1.38803">
        <ele>135</ele>
        <time>2024-11-05T17:48:44Z</time>
      </trkpt>
      <trkpt lat="43.64687" lon="1.38804">
        <ele>135</ele>
        <time>2024-11-05T17:48:45Z</time>
      </trkpt>
      <trkpt lat="43.64685" lon="1.38805">
        <ele>135</ele>
        <time>2024-11-05T17:48:46Z</time>
      </trkpt>
      <trkpt lat="43.64683" lon="1.38806">
        <ele>135</ele>
        <time>2024-11-05T17:48:47Z</time>
      </trkpt>
      <trkpt lat="43.6468" lon="1.38807">
        <ele>135</ele>
        <time>2024-11-05T17:48:48Z</time>
      </trkpt>
      <trkpt lat="43.64678" lon="1.38808">
        <ele>135</ele>
        <time>2024-11-05T17:48:49Z</time>
      </trkpt>
      <trkpt lat="43.64676" lon="1.38809">
        <ele>135</ele>
        <time>2024-11-05T17:48:50Z</time>
      </trkpt>
      <trkpt lat="43.64674" lon="1.3881">
        <ele>135</ele>
        <time>2024-11-05T17:48:51Z</time>
      </trkpt>
      <trkpt lat="43.64672" lon="1.38811">
        <ele>135</ele>
        <time>2024-11-05T17:48:52Z</time>
      </trkpt>
      <trkpt lat="43.64669" lon="1.38812">
        <ele>135</ele>
        <time>2024-11-05T17:48:53Z</time>
      </trkpt>
      <trkpt lat="43.64667" lon="1.38812">
        <ele>135</ele>
        <time>2024-11-05T17:48:54Z</time>
      </trkpt>
      <trkpt lat="43.64665" lon="1.38813">
        <ele>135</ele>
        <time>2024-11-05T17:48:55Z</time>
      </trkpt>
      <trkpt lat="43.64663" lon="1.38814">
        <ele>135</ele>
        <time>2024-11-05T17:48:56Z</time>
      </trkpt>
      <trkpt lat="43.6466" lon="1.38815">
        <ele>135</ele>
        <time>2024-11-05T17:48:57Z</time>
      </trkpt>
      <trkpt lat="43.64659" lon="1.38816">
        <ele>135</ele>
        <time>2024-11-05T17:48:58Z</time>
      </trkpt>
      <trkpt lat="43.64657" lon="1.38817">
        <ele>135</ele>
        <time>2024-11-05T17:48:59Z</time>
      </trkpt>
      <trkpt lat="43.64654" lon="1.38817">
        <ele>135</ele>
        <time>2024-11-05T17:49:00Z</time>
      </trkpt>
      <trkpt lat="43.64652" lon="1.38818">
        <ele>135</ele>
        <time>2024-11-05T17:49:01Z</time>
      </trkpt>
      <trkpt lat="43.6465" lon="1.38819">
        <ele>135</ele>
        <time>2024-11-05T17:49:02Z</time>
      </trkpt>
      <trkpt lat="43.64647" lon="1.38821">
        <ele>135</ele>
        <time>2024-11-05T17:49:03Z</time>
      </trkpt>
      <trkpt lat="43.64645" lon="1.38821">
        <ele>135</ele>
        <time>2024-11-05T17:49:04Z</time>
      </trkpt>
      <trkpt lat="43.64642" lon="1.38823">
        <ele>135</ele>
        <time>2024-11-05T17:49:05Z</time>
      </trkpt>
      <trkpt lat="43.64641" lon="1.38823">
        <ele>135</ele>
        <time>2024-11-05T17:49:06Z</time>
      </trkpt>
      <trkpt lat="43.64639" lon="1.38825">
        <ele>135</ele>
        <time>2024-11-05T17:49:07Z</time>
      </trkpt>
      <trkpt lat="43.64637" lon="1.38826">
        <ele>135</ele>
        <time>2024-11-05T17:49:08Z</time>
      </trkpt>
      <trkpt lat="43.64635" lon="1.38826">
        <ele>135</ele>
        <time>2024-11-05T17:49:09Z</time>
      </trkpt>
      <trkpt lat="43.64632" lon="1.38827">
        <ele>135</ele>
        <time>2024-11-05T17:49:10Z</time>
      </trkpt>
      <trkpt lat="43.6463" lon="1.38828">
        <ele>135</ele>
        <time>2024-11-05T17:49:11Z</time>
      </trkpt>
      <trkpt lat="43.64628" lon="1.38829">
        <ele>135</ele>
        <time>2024-11-05T17:49:12Z</time>
      </trkpt>
      <trkpt lat="43.64624" lon="1.38831">
        <ele>135</ele>
        <time>2024-11-05T17:49:13Z</time>
      </trkpt>
      <trkpt lat="43.64623" lon="1.38831">
        <ele>135</ele>
        <time>2024-11-05T17:49:14Z</time>
      </trkpt>
      <trkpt lat="43.64621" lon="1.38832">
        <ele>135</ele>
        <time>2024-11-05T17:49:15Z</time>
      </trkpt>
      <trkpt lat="43.64618" lon="1.38833">
        <ele>135</ele>
        <time>2024-11-05T17:49:16Z</time>
      </trkpt>
      <trkpt lat="43.64616" lon="1.38834">
        <ele>135</ele>
        <time>2024-11-05T17:49:17Z</time>
      </trkpt>
      <trkpt lat="43.64614" lon="1.38835">
        <ele>135</ele>
        <time>2024-11-05T17:49:18Z</time>
      </trkpt>
      <trkpt lat="43.64611" lon="1.38836">
        <ele>135</ele>
        <time>2024-11-05T17:49:19Z</time>
      </trkpt>
      <trkpt lat="43.64608" lon="1.38836">
        <ele>135</ele>
        <time>2024-11-05T17:49:20Z</time>
      </trkpt>
      <trkpt lat="43.64607" lon="1.38837">
        <ele>135</ele>
        <time>2024-11-05T17:49:21Z</time>
      </trkpt>
      <trkpt lat="43.64604" lon="1.38838">
        <ele>135</ele>
        <time>2024-11-05T17:49:22Z</time>
      </trkpt>
      <trkpt lat="43.64603" lon="1.38838">
        <ele>135</ele>
        <time>2024-11-05T17:49:23Z</time>
      </trkpt>
      <trkpt lat="43.646" lon="1.38839">
        <ele>135</ele>
        <time>2024-11-05T17:49:24Z</time>
      </trkpt>
      <trkpt lat="43.64598" lon="1.38839">
        <ele>135</ele>
        <time>2024-11-05T17:49:25Z</time>
      </trkpt>
      <trkpt lat="43.64596" lon="1.3884">
        <ele>135</ele>
        <time>2024-11-05T17:49:26Z</time>
      </trkpt>
      <trkpt lat="43.64593" lon="1.38841">
        <ele>135</ele>
        <time>2024-11-05T17:49:27Z</time>
      </trkpt>
      <trkpt lat="43.64591" lon="1.38841">
        <ele>135</ele>
        <time>2024-11-05T17:49:28Z</time>
      </trkpt>
      <trkpt lat="43.64588" lon="1.38842">
        <ele>135</ele>
        <time>2024-11-05T17:49:29Z</time>
      </trkpt>
      <trkpt lat="43.64586" lon="1.38842">
        <ele>135</ele>
        <time>2024-11-05T17:49:30Z</time>
      </trkpt>
      <trkpt lat="43.64584" lon="1.38843">
        <ele>135</ele>
        <time>2024-11-05T17:49:31Z</time>
      </trkpt>
      <trkpt lat="43.64582" lon="1.38843">
        <ele>135</ele>
        <time>2024-11-05T17:49:32Z</time>
      </trkpt>
      <trkpt lat="43.64579" lon="1.38843">
        <ele>135</ele>
        <time>2024-11-05T17:49:33Z</time>
      </trkpt>
      <trkpt lat="43.64577" lon="1.38844">
        <ele>135</ele>
        <time>2024-11-05T17:49:34Z</time>
      </trkpt>
      <trkpt lat="43.64573" lon="1.38844">
        <ele>135</ele>
        <time>2024-11-05T17:49:35Z</time>
      </trkpt>
      <trkpt lat="43.64572" lon="1.38845">
        <ele>135</ele>
        <time>2024-11-05T17:49:36Z</time>
      </trkpt>
      <trkpt lat="43.64569" lon="1.38845">
        <ele>135</ele>
        <time>2024-11-05T17:49:37Z</time>
      </trkpt>
      <trkpt lat="43.64567" lon="1.38846">
        <ele>135</ele>
        <time>2024-11-05T17:49:38Z</time>
      </trkpt>
      <trkpt lat="43.64565" lon="1.38846">
        <ele>135</ele>
        <time>2024-11-05T17:49:39Z</time>
      </trkpt>
      <trkpt lat="43.64562" lon="1.38846">
        <ele>135</ele>
        <time>2024-11-05T17:49:40Z</time>
      </trkpt>
      <trkpt lat="43.64559" lon="1.38847">
        <ele>135</ele>
        <time>2024-11-05T17:49:41Z</time>
      </trkpt>
      <trkpt lat="43.64558" lon="1.38847">
        <ele>135</ele>
        <time>2024-11-05T17:49:42Z</time>
      </trkpt>
      <trkpt lat="43.64556" lon="1.38847">
        <ele>135</ele>
        <time>2024-11-05T17:49:43Z</time>
      </trkpt>
      <trkpt lat="43.64554" lon="1.38847">
        <ele>135</ele>
        <time>2024-11-05T17:49:44Z</time>
      </trkpt>
      <trkpt lat="43.64552" lon="1.38848">
        <ele>135</ele>
        <time>2024-11-05T17:49:45Z</time>
      </trkpt>
      <trkpt lat="43.6455" lon="1.38848">
        <ele>135</ele>
        <time>2024-11-05T17:49:46Z</time>
      </trkpt>
      <trkpt lat="43.64546" lon="1.38848">
        <ele>135</ele>
        <time>2024-11-05T17:49:47Z</time>
      </trkpt>
      <trkpt lat="43.64545" lon="1.38848">
        <ele>135</ele>
        <time>2024-11-05T17:49:48Z</time>
      </trkpt>
      <trkpt lat="43.64542" lon="1.38849">
        <ele>135</ele>
        <time>2024-11-05T17:49:49Z</time>
      </trkpt>
      <trkpt lat="43.6454" lon="1.38849">
        <ele>135</ele>
        <time>2024-11-05T17:49:50Z</time>
      </trkpt>
      <trkpt lat="43.64538" lon="1.3885">
        <ele>135</ele>
        <time>2024-11-05T17:49:51Z</time>
      </trkpt>
      <trkpt lat="43.64535" lon="1.3885">
        <ele>135</ele>
        <time>2024-11-05T17:49:52Z</time>
      </trkpt>
      <trkpt lat="43.64533" lon="1.38851">
        <ele>135</ele>
        <time>2024-11-05T17:49:53Z</time>
      </trkpt>
      <trkpt lat="43.6453" lon="1.38851">
        <ele>135</ele>
        <time>2024-11-05T17:49:54Z</time>
      </trkpt>
      <trkpt lat="43.64528" lon="1.38851">
        <ele>135</ele>
        <time>2024-11-05T17:49:55Z</time>
      </trkpt>
      <trkpt lat="43.64526" lon="1.38852">
        <ele>135</ele>
        <time>2024-11-05T17:49:56Z</time>
      </trkpt>
      <trkpt lat="43.64522" lon="1.38852">
        <ele>134</ele>
        <time>2024-11-05T17:49:57Z</time>
      </trkpt>
      <trkpt lat="43.6452" lon="1.38852">
        <ele>134</ele>
        <time>2024-11-05T17:49:58Z</time>
      </trkpt>
      <trkpt lat="43.64518" lon="1.38853">
        <ele>134</ele>
        <time>2024-11-05T17:49:59Z</time>
      </trkpt>
      <trkpt lat="43.64515" lon="1.38853">
        <ele>134</ele>
        <time>2024-11-05T17:50:00Z</time>
      </trkpt>
      <trkpt lat="43.64514" lon="1.38853">
        <ele>134</ele>
        <time>2024-11-05T17:50:01Z</time>
      </trkpt>
      <trkpt lat="43.64513" lon="1.38858">
        <ele>134</ele>
        <time>2024-11-05T17:50:02Z</time>
      </trkpt>
      <trkpt lat="43.64511" lon="1.38864">
        <ele>135</ele>
        <time>2024-11-05T17:50:40Z</time>
      </trkpt>
      <trkpt lat="43.6451" lon="1.38869">
        <ele>135</ele>
        <time>2024-11-05T17:50:41Z</time>
      </trkpt>
      <trkpt lat="43.64508" lon="1.38874">
        <ele>135</ele>
        <time>2024-11-05T17:50:42Z</time>
      </trkpt>
      <trkpt lat="43.64507" lon="1.38879">
        <ele>135</ele>
        <time>2024-11-05T17:50:43Z</time>
      </trkpt>
      <trkpt lat="43.64507" lon="1.38883">
        <ele>135</ele>
        <time>2024-11-05T17:50:44Z</time>
      </trkpt>
      <trkpt lat="43.64507" lon="1.38888">
        <ele>135</ele>
        <time>2024-11-05T17:50:45Z</time>
      </trkpt>
      <trkpt lat="43.64508" lon="1.38889">
        <ele>135</ele>
        <time>2024-11-05T17:50:46Z</time>
      </trkpt>
      <trkpt lat="43.64508" lon="1.38894">
        <ele>135</ele>
        <time>2024-11-05T17:50:47Z</time>
      </trkpt>
      <trkpt lat="43.64509" lon="1.38896">
        <ele>135</ele>
        <time>2024-11-05T17:50:48Z</time>
      </trkpt>
      <trkpt lat="43.64509" lon="1.38899">
        <ele>135</ele>
        <time>2024-11-05T17:50:49Z</time>
      </trkpt>
      <trkpt lat="43.64511" lon="1.38904">
        <ele>135</ele>
        <time>2024-11-05T17:50:50Z</time>
      </trkpt>
      <trkpt lat="43.64511" lon="1.38905">
        <ele>135</ele>
        <time>2024-11-05T17:50:51Z</time>
      </trkpt>
      <trkpt lat="43.64512" lon="1.38909">
        <ele>135</ele>
        <time>2024-11-05T17:50:52Z</time>
      </trkpt>
      <trkpt lat="43.64512" lon="1.38912">
        <ele>135</ele>
        <time>2024-11-05T17:50:53Z</time>
      </trkpt>
      <trkpt lat="43.64512" lon="1.38915">
        <ele>135</ele>
        <time>2024-11-05T17:50:54Z</time>
      </trkpt>
      <trkpt lat="43.64512" lon="1.38918">
        <ele>135</ele>
        <time>2024-11-05T17:50:55Z</time>
      </trkpt>
      <trkpt lat="43.64512" lon="1.38922">
        <ele>135</ele>
        <time>2024-11-05T17:50:56Z</time>
      </trkpt>
      <trkpt lat="43.64512" lon="1.38925">
        <ele>135</ele>
        <time>2024-11-05T17:50:57Z</time>
      </trkpt>
      <trkpt lat="43.64511" lon="1.38929">
        <ele>135</ele>
        <time>2024-11-05T17:50:58Z</time>
      </trkpt>
      <trkpt lat="43.6451" lon="1.38932">
        <ele>135</ele>
        <time>2024-11-05T17:50:59Z</time>
      </trkpt>
      <trkpt lat="43.6451" lon="1.38935">
        <ele>135</ele>
        <time>2024-11-05T17:51:00Z</time>
      </trkpt>
      <trkpt lat="43.64509" lon="1.38938">
        <ele>135</ele>
        <time>2024-11-05T17:51:01Z</time>
      </trkpt>
      <trkpt lat="43.64508" lon="1.38941">
        <ele>135</ele>
        <time>2024-11-05T17:51:02Z</time>
      </trkpt>
      <trkpt lat="43.64507" lon="1.38944">
        <ele>135</ele>
        <time>2024-11-05T17:51:03Z</time>
      </trkpt>
      <trkpt lat="43.64506" lon="1.38947">
        <ele>135</ele>
        <time>2024-11-05T17:51:04Z</time>
      </trkpt>
      <trkpt lat="43.64505" lon="1.3895">
        <ele>135</ele>
        <time>2024-11-05T17:51:05Z</time>
      </trkpt>
      <trkpt lat="43.64504" lon="1.38953">
        <ele>135</ele>
        <time>2024-11-05T17:51:06Z</time>
      </trkpt>
      <trkpt lat="43.64503" lon="1.38958">
        <ele>135</ele>
        <time>2024-11-05T17:51:07Z</time>
      </trkpt>
      <trkpt lat="43.64502" lon="1.3896">
        <ele>135</ele>
        <time>2024-11-05T17:51:08Z</time>
      </trkpt>
      <trkpt lat="43.64501" lon="1.38963">
        <ele>135</ele>
        <time>2024-11-05T17:51:09Z</time>
      </trkpt>
      <trkpt lat="43.645" lon="1.38966">
        <ele>135</ele>
        <time>2024-11-05T17:51:10Z</time>
      </trkpt>
      <trkpt lat="43.64498" lon="1.38971">
        <ele>135</ele>
        <time>2024-11-05T17:51:11Z</time>
      </trkpt>
      <trkpt lat="43.64498" lon="1.38972">
        <ele>135</ele>
        <time>2024-11-05T17:51:12Z</time>
      </trkpt>
      <trkpt lat="43.64497" lon="1.38975">
        <ele>135</ele>
        <time>2024-11-05T17:51:13Z</time>
      </trkpt>
      <trkpt lat="43.64497" lon="1.38979">
        <ele>135</ele>
        <time>2024-11-05T17:51:14Z</time>
      </trkpt>
      <trkpt lat="43.64496" lon="1.38982">
        <ele>135</ele>
        <time>2024-11-05T17:51:15Z</time>
      </trkpt>
      <trkpt lat="43.64495" lon="1.38985">
        <ele>135</ele>
        <time>2024-11-05T17:51:16Z</time>
      </trkpt>
      <trkpt lat="43.64494" lon="1.3899">
        <ele>135</ele>
        <time>2024-11-05T17:51:17Z</time>
      </trkpt>
      <trkpt lat="43.64493" lon="1.38992">
        <ele>135</ele>
        <time>2024-11-05T17:51:18Z</time>
      </trkpt>
      <trkpt lat="43.64491" lon="1.38997">
        <ele>135</ele>
        <time>2024-11-05T17:51:19Z</time>
      </trkpt>
      <trkpt lat="43.6449" lon="1.38998">
        <ele>135</ele>
        <time>2024-11-05T17:51:20Z</time>
      </trkpt>
      <trkpt lat="43.64489" lon="1.39001">
        <ele>135</ele>
        <time>2024-11-05T17:51:21Z</time>
      </trkpt>
      <trkpt lat="43.64488" lon="1.39004">
        <ele>135</ele>
        <time>2024-11-05T17:51:22Z</time>
      </trkpt>
      <trkpt lat="43.64487" lon="1.39007">
        <ele>135</ele>
        <time>2024-11-05T17:51:23Z</time>
      </trkpt>
      <trkpt lat="43.64486" lon="1.39009">
        <ele>135</ele>
        <time>2024-11-05T17:51:24Z</time>
      </trkpt>
      <trkpt lat="43.64485" lon="1.39012">
        <ele>135</ele>
        <time>2024-11-05T17:51:25Z</time>
      </trkpt>
      <trkpt lat="43.64484" lon="1.39015">
        <ele>135</ele>
        <time>2024-11-05T17:51:26Z</time>
      </trkpt>
      <trkpt lat="43.64484" lon="1.39018">
        <ele>135</ele>
        <time>2024-11-05T17:51:27Z</time>
      </trkpt>
      <trkpt lat="43.64483" lon="1.39021">
        <ele>135</ele>
        <time>2024-11-05T17:51:28Z</time>
      </trkpt>
      <trkpt lat="43.64483" lon="1.39023">
        <ele>135</ele>
        <time>2024-11-05T17:51:29Z</time>
      </trkpt>
      <trkpt lat="43.64481" lon="1.39028">
        <ele>135</ele>
        <time>2024-11-05T17:51:30Z</time>
      </trkpt>
      <trkpt lat="43.64481" lon="1.3903">
        <ele>135</ele>
        <time>2024-11-05T17:51:31Z</time>
      </trkpt>
      <trkpt lat="43.64479" lon="1.39034">
        <ele>135</ele>
        <time>2024-11-05T17:51:32Z</time>
      </trkpt>
      <trkpt lat="43.64479" lon="1.39035">
        <ele>135</ele>
        <time>2024-11-05T17:51:33Z</time>
      </trkpt>
      <trkpt lat="43.64477" lon="1.39038">
        <ele>135</ele>
        <time>2024-11-05T17:51:34Z</time>
      </trkpt>
      <trkpt lat="43.64476" lon="1.39039">
        <ele>135</ele>
        <time>2024-11-05T17:51:35Z</time>
      </trkpt>
      <trkpt lat="43.64474" lon="1.39042">
        <ele>135</ele>
        <time>2024-11-05T17:51:36Z</time>
      </trkpt>
      <trkpt lat="43.64471" lon="1.39044">
        <ele>134</ele>
        <time>2024-11-05T17:51:37Z</time>
      </trkpt>
      <trkpt lat="43.6447" lon="1.39044">
        <ele>134</ele>
        <time>2024-11-05T17:51:38Z</time>
      </trkpt>
      <trkpt lat="43.64467" lon="1.39045">
        <ele>134</ele>
        <time>2024-11-05T17:51:39Z</time>
      </trkpt>
      <trkpt lat="43.64464" lon="1.39046">
        <ele>134</ele>
        <time>2024-11-05T17:51:40Z</time>
      </trkpt>
      <trkpt lat="43.64461" lon="1.39047">
        <ele>134</ele>
        <time>2024-11-05T17:51:41Z</time>
      </trkpt>
      <trkpt lat="43.64459" lon="1.39048">
        <ele>134</ele>
        <time>2024-11-05T17:51:42Z</time>
      </trkpt>
      <trkpt lat="43.64457" lon="1.3905">
        <ele>134</ele>
        <time>2024-11-05T17:51:43Z</time>
      </trkpt>
      <trkpt lat="43.64456" lon="1.39052">
        <ele>134</ele>
        <time>2024-11-05T17:51:44Z</time>
      </trkpt>
      <trkpt lat="43.64454" lon="1.39054">
        <ele>134</ele>
        <time>2024-11-05T17:51:45Z</time>
      </trkpt>
      <trkpt lat="43.64453" lon="1.39056">
        <ele>134</ele>
        <time>2024-11-05T17:51:46Z</time>
      </trkpt>
      <trkpt lat="43.6445" lon="1.3906">
        <ele>134</ele>
        <time>2024-11-05T17:51:47Z</time>
      </trkpt>
      <trkpt lat="43.64449" lon="1.39061">
        <ele>135</ele>
        <time>2024-11-05T17:51:48Z</time>
      </trkpt>
      <trkpt lat="43.64447" lon="1.39065">
        <ele>135</ele>
        <time>2024-11-05T17:51:49Z</time>
      </trkpt>
      <trkpt lat="43.64446" lon="1.39067">
        <ele>135</ele>
        <time>2024-11-05T17:51:50Z</time>
      </trkpt>
      <trkpt lat="43.64444" lon="1.39071">
        <ele>134</ele>
        <time>2024-11-05T17:51:51Z</time>
      </trkpt>
      <trkpt lat="43.64443" lon="1.39072">
        <ele>134</ele>
        <time>2024-11-05T17:51:52Z</time>
      </trkpt>
      <trkpt lat="43.64441" lon="1.39075">
        <ele>134</ele>
        <time>2024-11-05T17:51:53Z</time>
      </trkpt>
      <trkpt lat="43.6444" lon="1.39078">
        <ele>133</ele>
        <time>2024-11-05T17:51:54Z</time>
      </trkpt>
      <trkpt lat="43.64437" lon="1.39082">
        <ele>133</ele>
        <time>2024-11-05T17:51:55Z</time>
      </trkpt>
      <trkpt lat="43.64436" lon="1.39083">
        <ele>133</ele>
        <time>2024-11-05T17:51:56Z</time>
      </trkpt>
      <trkpt lat="43.64435" lon="1.39086">
        <ele>133</ele>
        <time>2024-11-05T17:51:57Z</time>
      </trkpt>
      <trkpt lat="43.64433" lon="1.39089">
        <ele>133</ele>
        <time>2024-11-05T17:51:58Z</time>
      </trkpt>
      <trkpt lat="43.64432" lon="1.39092">
        <ele>133</ele>
        <time>2024-11-05T17:51:59Z</time>
      </trkpt>
      <trkpt lat="43.6443" lon="1.39095">
        <ele>133</ele>
        <time>2024-11-05T17:52:00Z</time>
      </trkpt>
      <trkpt lat="43.64429" lon="1.39098">
        <ele>133</ele>
        <time>2024-11-05T17:52:01Z</time>
      </trkpt>
      <trkpt lat="43.64427" lon="1.391">
        <ele>133</ele>
        <time>2024-11-05T17:52:02Z</time>
      </trkpt>
      <trkpt lat="43.64426" lon="1.39103">
        <ele>133</ele>
        <time>2024-11-05T17:52:03Z</time>
      </trkpt>
      <trkpt lat="43.64424" lon="1.39106">
        <ele>133</ele>
        <time>2024-11-05T17:52:04Z</time>
      </trkpt>
      <trkpt lat="43.64423" lon="1.39108">
        <ele>132</ele>
        <time>2024-11-05T17:52:05Z</time>
      </trkpt>
      <trkpt lat="43.64421" lon="1.39111">
        <ele>132</ele>
        <time>2024-11-05T17:52:06Z</time>
      </trkpt>
      <trkpt lat="43.6442" lon="1.39114">
        <ele>132</ele>
        <time>2024-11-05T17:52:07Z</time>
      </trkpt>
      <trkpt lat="43.64419" lon="1.39117">
        <ele>131</ele>
        <time>2024-11-05T17:52:08Z</time>
      </trkpt>
      <trkpt lat="43.64418" lon="1.3912">
        <ele>131</ele>
        <time>2024-11-05T17:52:09Z</time>
      </trkpt>
      <trkpt lat="43.64417" lon="1.39123">
        <ele>131</ele>
        <time>2024-11-05T17:52:10Z</time>
      </trkpt>
      <trkpt lat="43.64417" lon="1.39126">
        <ele>131</ele>
        <time>2024-11-05T17:52:11Z</time>
      </trkpt>
      <trkpt lat="43.64416" lon="1.39129">
        <ele>131</ele>
        <time>2024-11-05T17:52:12Z</time>
      </trkpt>
      <trkpt lat="43.64415" lon="1.39134">
        <ele>130</ele>
        <time>2024-11-05T17:52:13Z</time>
      </trkpt>
      <trkpt lat="43.64415" lon="1.39136">
        <ele>130</ele>
        <time>2024-11-05T17:52:14Z</time>
      </trkpt>
      <trkpt lat="43.64414" lon="1.39139">
        <ele>130</ele>
        <time>2024-11-05T17:52:15Z</time>
      </trkpt>
      <trkpt lat="43.64413" lon="1.39143">
        <ele>129</ele>
        <time>2024-11-05T17:52:16Z</time>
      </trkpt>
      <trkpt lat="43.64413" lon="1.39145">
        <ele>129</ele>
        <time>2024-11-05T17:52:17Z</time>
      </trkpt>
      <trkpt lat="43.64412" lon="1.3915">
        <ele>129</ele>
        <time>2024-11-05T17:52:18Z</time>
      </trkpt>
      <trkpt lat="43.64411" lon="1.39151">
        <ele>129</ele>
        <time>2024-11-05T17:52:19Z</time>
      </trkpt>
      <trkpt lat="43.64411" lon="1.39154">
        <ele>128</ele>
        <time>2024-11-05T17:52:20Z</time>
      </trkpt>
      <trkpt lat="43.6441" lon="1.39158">
        <ele>128</ele>
        <time>2024-11-05T17:52:21Z</time>
      </trkpt>
      <trkpt lat="43.6441" lon="1.39161">
        <ele>128</ele>
        <time>2024-11-05T17:52:22Z</time>
      </trkpt>
      <trkpt lat="43.6441" lon="1.39165">
        <ele>127</ele>
        <time>2024-11-05T17:52:23Z</time>
      </trkpt>
      <trkpt lat="43.6441" lon="1.39168">
        <ele>127</ele>
        <time>2024-11-05T17:52:24Z</time>
      </trkpt>
      <trkpt lat="43.6441" lon="1.39174">
        <ele>127</ele>
        <time>2024-11-05T17:52:25Z</time>
      </trkpt>
      <trkpt lat="43.6441" lon="1.39175">
        <ele>126</ele>
        <time>2024-11-05T17:52:26Z</time>
      </trkpt>
      <trkpt lat="43.64411" lon="1.39179">
        <ele>126</ele>
        <time>2024-11-05T17:52:27Z</time>
      </trkpt>
      <trkpt lat="43.64412" lon="1.39182">
        <ele>125</ele>
        <time>2024-11-05T17:52:28Z</time>
      </trkpt>
      <trkpt lat="43.64413" lon="1.39185">
        <ele>125</ele>
        <time>2024-11-05T17:52:29Z</time>
      </trkpt>
      <trkpt lat="43.64414" lon="1.3919">
        <ele>125</ele>
        <time>2024-11-05T17:52:30Z</time>
      </trkpt>
      <trkpt lat="43.64415" lon="1.39191">
        <ele>125</ele>
        <time>2024-11-05T17:52:31Z</time>
      </trkpt>
      <trkpt lat="43.64416" lon="1.39196">
        <ele>124</ele>
        <time>2024-11-05T17:52:32Z</time>
      </trkpt>
      <trkpt lat="43.64417" lon="1.39197">
        <ele>124</ele>
        <time>2024-11-05T17:52:33Z</time>
      </trkpt>
      <trkpt lat="43.64419" lon="1.39202">
        <ele>124</ele>
        <time>2024-11-05T17:52:34Z</time>
      </trkpt>
      <trkpt lat="43.6442" lon="1.39204">
        <ele>124</ele>
        <time>2024-11-05T17:52:35Z</time>
      </trkpt>
      <trkpt lat="43.64421" lon="1.39205">
        <ele>124</ele>
        <time>2024-11-05T17:52:36Z</time>
      </trkpt>
      <trkpt lat="43.64423" lon="1.3921">
        <ele>124</ele>
        <time>2024-11-05T17:52:37Z</time>
      </trkpt>
      <trkpt lat="43.64424" lon="1.39211">
        <ele>124</ele>
        <time>2024-11-05T17:52:38Z</time>
      </trkpt>
      <trkpt lat="43.64427" lon="1.39215">
        <ele>124</ele>
        <time>2024-11-05T17:52:39Z</time>
      </trkpt>
      <trkpt lat="43.64428" lon="1.39216">
        <ele>123</ele>
        <time>2024-11-05T17:52:40Z</time>
      </trkpt>
      <trkpt lat="43.64429" lon="1.39219">
        <ele>123</ele>
        <time>2024-11-05T17:52:41Z</time>
      </trkpt>
      <trkpt lat="43.64431" lon="1.39222">
        <ele>123</ele>
        <time>2024-11-05T17:52:42Z</time>
      </trkpt>
      <trkpt lat="43.64432" lon="1.39225">
        <ele>122</ele>
        <time>2024-11-05T17:52:43Z</time>
      </trkpt>
      <trkpt lat="43.64434" lon="1.39228">
        <ele>122</ele>
        <time>2024-11-05T17:52:44Z</time>
      </trkpt>
      <trkpt lat="43.64435" lon="1.3923">
        <ele>122</ele>
        <time>2024-11-05T17:52:45Z</time>
      </trkpt>
      <trkpt lat="43.64437" lon="1.39233">
        <ele>122</ele>
        <time>2024-11-05T17:52:46Z</time>
      </trkpt>
      <trkpt lat="43.64438" lon="1.39236">
        <ele>121</ele>
        <time>2024-11-05T17:52:47Z</time>
      </trkpt>
      <trkpt lat="43.6444" lon="1.39239">
        <ele>121</ele>
        <time>2024-11-05T17:52:48Z</time>
      </trkpt>
      <trkpt lat="43.64441" lon="1.39241">
        <ele>121</ele>
        <time>2024-11-05T17:52:49Z</time>
      </trkpt>
      <trkpt lat="43.64442" lon="1.39244">
        <ele>121</ele>
        <time>2024-11-05T17:52:50Z</time>
      </trkpt>
      <trkpt lat="43.64444" lon="1.39247">
        <ele>121</ele>
        <time>2024-11-05T17:52:51Z</time>
      </trkpt>
      <trkpt lat="43.64446" lon="1.39252">
        <ele>122</ele>
        <time>2024-11-05T17:52:52Z</time>
      </trkpt>
      <trkpt lat="43.64446" lon="1.39253">
        <ele>122</ele>
        <time>2024-11-05T17:52:53Z</time>
      </trkpt>
      <trkpt lat="43.64448" lon="1.39256">
        <ele>121</ele>
        <time>2024-11-05T17:52:54Z</time>
      </trkpt>
      <trkpt lat="43.64449" lon="1.39259">
        <ele>121</ele>
        <time>2024-11-05T17:52:55Z</time>
      </trkpt>
      <trkpt lat="43.6445" lon="1.39262">
        <ele>121</ele>
        <time>2024-11-05T17:52:56Z</time>
      </trkpt>
      <trkpt lat="43.64451" lon="1.39265">
        <ele>121</ele>
        <time>2024-11-05T17:52:57Z</time>
      </trkpt>
      <trkpt lat="43.64452" lon="1.39269">
        <ele>121</ele>
        <time>2024-11-05T17:52:58Z</time>
      </trkpt>
      <trkpt lat="43.64452" lon="1.39272">
        <ele>121</ele>
        <time>2024-11-05T17:52:59Z</time>
      </trkpt>
      <trkpt lat="43.64453" lon="1.39275">
        <ele>121</ele>
        <time>2024-11-05T17:53:00Z</time>
      </trkpt>
      <trkpt lat="43.64454" lon="1.39278">
        <ele>121</ele>
        <time>2024-11-05T17:53:01Z</time>
      </trkpt>
      <trkpt lat="43.64455" lon="1.39281">
        <ele>121</ele>
        <time>2024-11-05T17:53:02Z</time>
      </trkpt>
      <trkpt lat="43.64455" lon="1.39284">
        <ele>121</ele>
        <time>2024-11-05T17:53:03Z</time>
      </trkpt>
      <trkpt lat="43.64456" lon="1.39287">
        <ele>121</ele>
        <time>2024-11-05T17:53:04Z</time>
      </trkpt>
      <trkpt lat="43.64457" lon="1.3929">
        <ele>121</ele>
        <time>2024-11-05T17:53:05Z</time>
      </trkpt>
      <trkpt lat="43.64458" lon="1.39293">
        <ele>121</ele>
        <time>2024-11-05T17:53:06Z</time>
      </trkpt>
      <trkpt lat="43.64459" lon="1.39297">
        <ele>121</ele>
        <time>2024-11-05T17:53:07Z</time>
      </trkpt>
      <trkpt lat="43.64459" lon="1.39298">
        <ele>121</ele>
        <time>2024-11-05T17:53:08Z</time>
      </trkpt>
      <trkpt lat="43.6446" lon="1.39303">
        <ele>121</ele>
        <time>2024-11-05T17:53:09Z</time>
      </trkpt>
      <trkpt lat="43.6446" lon="1.39305">
        <ele>121</ele>
        <time>2024-11-05T17:53:10Z</time>
      </trkpt>
      <trkpt lat="43.64461" lon="1.3931">
        <ele>121</ele>
        <time>2024-11-05T17:53:11Z</time>
      </trkpt>
      <trkpt lat="43.64461" lon="1.39311">
        <ele>121</ele>
        <time>2024-11-05T17:53:12Z</time>
      </trkpt>
      <trkpt lat="43.64462" lon="1.39314">
        <ele>121</ele>
        <time>2024-11-05T17:53:13Z</time>
      </trkpt>
      <trkpt lat="43.64462" lon="1.39317">
        <ele>121</ele>
        <time>2024-11-05T17:53:14Z</time>
      </trkpt>
      <trkpt lat="43.64463" lon="1.3932">
        <ele>121</ele>
        <time>2024-11-05T17:53:15Z</time>
      </trkpt>
      <trkpt lat="43.64464" lon="1.39323">
        <ele>121</ele>
        <time>2024-11-05T17:53:16Z</time>
      </trkpt>
      <trkpt lat="43.64465" lon="1.39327">
        <ele>121</ele>
        <time>2024-11-05T17:53:17Z</time>
      </trkpt>
      <trkpt lat="43.64466" lon="1.3933">
        <ele>121</ele>
        <time>2024-11-05T17:53:18Z</time>
      </trkpt>
      <trkpt lat="43.64467" lon="1.39333">
        <ele>121</ele>
        <time>2024-11-05T17:53:19Z</time>
      </trkpt>
      <trkpt lat="43.64468" lon="1.39337">
        <ele>121</ele>
        <time>2024-11-05T17:53:20Z</time>
      </trkpt>
      <trkpt lat="43.64468" lon="1.39339">
        <ele>121</ele>
        <time>2024-11-05T17:53:21Z</time>
      </trkpt>
      <trkpt lat="43.64469" lon="1.39342">
        <ele>121</ele>
        <time>2024-11-05T17:53:22Z</time>
      </trkpt>
      <trkpt lat="43.6447" lon="1.39345">
        <ele>121</ele>
        <time>2024-11-05T17:53:23Z</time>
      </trkpt>
      <trkpt lat="43.64471" lon="1.39349">
        <ele>121</ele>
        <time>2024-11-05T17:53:24Z</time>
      </trkpt>
      <trkpt lat="43.64471" lon="1.39352">
        <ele>121</ele>
        <time>2024-11-05T17:53:25Z</time>
      </trkpt>
      <trkpt lat="43.64472" lon="1.39355">
        <ele>121</ele>
        <time>2024-11-05T17:53:26Z</time>
      </trkpt>
      <trkpt lat="43.64472" lon="1.39359">
        <ele>121</ele>
        <time>2024-11-05T17:53:27Z</time>
      </trkpt>
      <trkpt lat="43.64473" lon="1.39362">
        <ele>121</ele>
        <time>2024-11-05T17:53:28Z</time>
      </trkpt>
      <trkpt lat="43.64474" lon="1.39365">
        <ele>121</ele>
        <time>2024-11-05T17:53:29Z</time>
      </trkpt>
      <trkpt lat="43.64474" lon="1.39369">
        <ele>121</ele>
        <time>2024-11-05T17:53:30Z</time>
      </trkpt>
      <trkpt lat="43.64475" lon="1.39371">
        <ele>121</ele>
        <time>2024-11-05T17:53:31Z</time>
      </trkpt>
      <trkpt lat="43.64475" lon="1.39375">
        <ele>121</ele>
        <time>2024-11-05T17:53:32Z</time>
      </trkpt>
      <trkpt lat="43.64476" lon="1.39378">
        <ele>121</ele>
        <time>2024-11-05T17:53:33Z</time>
      </trkpt>
      <trkpt lat="43.64476" lon="1.39381">
        <ele>121</ele>
        <time>2024-11-05T17:53:34Z</time>
      </trkpt>
      <trkpt lat="43.64476" lon="1.39385">
        <ele>121</ele>
        <time>2024-11-05T17:53:35Z</time>
      </trkpt>
      <trkpt lat="43.64477" lon="1.39388">
        <ele>122</ele>
        <time>2024-11-05T17:53:36Z</time>
      </trkpt>
      <trkpt lat="43.64478" lon="1.39391">
        <ele>122</ele>
        <time>2024-11-05T17:53:37Z</time>
      </trkpt>
      <trkpt lat="43.64479" lon="1.39394">
        <ele>122</ele>
        <time>2024-11-05T17:53:38Z</time>
      </trkpt>
      <trkpt lat="43.64479" lon="1.39398">
        <ele>122</ele>
        <time>2024-11-05T17:53:39Z</time>
      </trkpt>
      <trkpt lat="43.6448" lon="1.39401">
        <ele>121</ele>
        <time>2024-11-05T17:53:40Z</time>
      </trkpt>
      <trkpt lat="43.64481" lon="1.39404">
        <ele>121</ele>
        <time>2024-11-05T17:53:41Z</time>
      </trkpt>
      <trkpt lat="43.64481" lon="1.39407">
        <ele>121</ele>
        <time>2024-11-05T17:53:42Z</time>
      </trkpt>
      <trkpt lat="43.64481" lon="1.39411">
        <ele>121</ele>
        <time>2024-11-05T17:53:43Z</time>
      </trkpt>
      <trkpt lat="43.64482" lon="1.39414">
        <ele>121</ele>
        <time>2024-11-05T17:53:44Z</time>
      </trkpt>
      <trkpt lat="43.64483" lon="1.39417">
        <ele>121</ele>
        <time>2024-11-05T17:53:45Z</time>
      </trkpt>
      <trkpt lat="43.64483" lon="1.39421">
        <ele>121</ele>
        <time>2024-11-05T17:53:46Z</time>
      </trkpt>
      <trkpt lat="43.64483" lon="1.39424">
        <ele>121</ele>
        <time>2024-11-05T17:53:47Z</time>
      </trkpt>
      <trkpt lat="43.64484" lon="1.39427">
        <ele>121</ele>
        <time>2024-11-05T17:53:48Z</time>
      </trkpt>
      <trkpt lat="43.64484" lon="1.3943">
        <ele>121</ele>
        <time>2024-11-05T17:53:49Z</time>
      </trkpt>
      <trkpt lat="43.64485" lon="1.39433">
        <ele>121</ele>
        <time>2024-11-05T17:53:50Z</time>
      </trkpt>
      <trkpt lat="43.64485" lon="1.39437">
        <ele>121</ele>
        <time>2024-11-05T17:53:51Z</time>
      </trkpt>
      <trkpt lat="43.64486" lon="1.3944">
        <ele>121</ele>
        <time>2024-11-05T17:53:52Z</time>
      </trkpt>
      <trkpt lat="43.64486" lon="1.39443">
        <ele>121</ele>
        <time>2024-11-05T17:53:53Z</time>
      </trkpt>
      <trkpt lat="43.64487" lon="1.39446">
        <ele>121</ele>
        <time>2024-11-05T17:53:54Z</time>
      </trkpt>
      <trkpt lat="43.64488" lon="1.39449">
        <ele>121</ele>
        <time>2024-11-05T17:53:55Z</time>
      </trkpt>
      <trkpt lat="43.64488" lon="1.39452">
        <ele>121</ele>
        <time>2024-11-05T17:53:56Z</time>
      </trkpt>
      <trkpt lat="43.64488" lon="1.39456">
        <ele>121</ele>
        <time>2024-11-05T17:53:57Z</time>
      </trkpt>
      <trkpt lat="43.64489" lon="1.39459">
        <ele>121</ele>
        <time>2024-11-05T17:53:58Z</time>
      </trkpt>
      <trkpt lat="43.64489" lon="1.39462">
        <ele>121</ele>
        <time>2024-11-05T17:53:59Z</time>
      </trkpt>
      <trkpt lat="43.64489" lon="1.39465">
        <ele>121</ele>
        <time>2024-11-05T17:54:00Z</time>
      </trkpt>
      <trkpt lat="43.6449" lon="1.39468">
        <ele>121</ele>
        <time>2024-11-05T17:54:01Z</time>
      </trkpt>
      <trkpt lat="43.6449" lon="1.39471">
        <ele>121</ele>
        <time>2024-11-05T17:54:02Z</time>
      </trkpt>
      <trkpt lat="43.6449" lon="1.39475">
        <ele>121</ele>
        <time>2024-11-05T17:54:03Z</time>
      </trkpt>
      <trkpt lat="43.64491" lon="1.39478">
        <ele>121</ele>
        <time>2024-11-05T17:54:04Z</time>
      </trkpt>
      <trkpt lat="43.64491" lon="1.39481">
        <ele>121</ele>
        <time>2024-11-05T17:54:05Z</time>
      </trkpt>
      <trkpt lat="43.64491" lon="1.39484">
        <ele>121</ele>
        <time>2024-11-05T17:54:06Z</time>
      </trkpt>
      <trkpt lat="43.64492" lon="1.39488">
        <ele>121</ele>
        <time>2024-11-05T17:54:07Z</time>
      </trkpt>
      <trkpt lat="43.64492" lon="1.39488">
        <ele>121</ele>
        <time>2024-11-05T17:54:08Z</time>
      </trkpt>
      <trkpt lat="43.64493" lon="1.39494">
        <ele>121</ele>
        <time>2024-11-05T17:54:09Z</time>
      </trkpt>
      <trkpt lat="43.64493" lon="1.39497">
        <ele>121</ele>
        <time>2024-11-05T17:54:10Z</time>
      </trkpt>
      <trkpt lat="43.64494" lon="1.395">
        <ele>121</ele>
        <time>2024-11-05T17:54:11Z</time>
      </trkpt>
      <trkpt lat="43.64495" lon="1.39503">
        <ele>121</ele>
        <time>2024-11-05T17:54:12Z</time>
      </trkpt>
      <trkpt lat="43.64495" lon="1.39506">
        <ele>121</ele>
        <time>2024-11-05T17:54:13Z</time>
      </trkpt>
      <trkpt lat="43.64495" lon="1.3951">
        <ele>121</ele>
        <time>2024-11-05T17:54:14Z</time>
      </trkpt>
      <trkpt lat="43.64496" lon="1.39513">
        <ele>121</ele>
        <time>2024-11-05T17:54:15Z</time>
      </trkpt>
      <trkpt lat="43.64497" lon="1.39516">
        <ele>121</ele>
        <time>2024-11-05T17:54:16Z</time>
      </trkpt>
      <trkpt lat="43.64498" lon="1.3952">
        <ele>121</ele>
        <time>2024-11-05T17:54:17Z</time>
      </trkpt>
      <trkpt lat="43.64498" lon="1.39523">
        <ele>121</ele>
        <time>2024-11-05T17:54:18Z</time>
      </trkpt>
      <trkpt lat="43.64498" lon="1.39526">
        <ele>121</ele>
        <time>2024-11-05T17:54:19Z</time>
      </trkpt>
      <trkpt lat="43.64498" lon="1.3953">
        <ele>121</ele>
        <time>2024-11-05T17:54:20Z</time>
      </trkpt>
      <trkpt lat="43.64499" lon="1.39533">
        <ele>121</ele>
        <time>2024-11-05T17:54:21Z</time>
      </trkpt>
      <trkpt lat="43.64499" lon="1.39536">
        <ele>121</ele>
        <time>2024-11-05T17:54:22Z</time>
      </trkpt>
      <trkpt lat="43.64499" lon="1.3954">
        <ele>121</ele>
        <time>2024-11-05T17:54:23Z</time>
      </trkpt>
      <trkpt lat="43.64499" lon="1.39543">
        <ele>121</ele>
        <time>2024-11-05T17:54:24Z</time>
      </trkpt>
      <trkpt lat="43.64499" lon="1.39546">
        <ele>121</ele>
        <time>2024-11-05T17:54:25Z</time>
      </trkpt>
      <trkpt lat="43.64499" lon="1.39549">
        <ele>121</ele>
        <time>2024-11-05T17:54:26Z</time>
      </trkpt>
      <trkpt lat="43.645" lon="1.39552">
        <ele>121</ele>
        <time>2024-11-05T17:54:27Z</time>
      </trkpt>
      <trkpt lat="43.645" lon="1.39556">
        <ele>121</ele>
        <time>2024-11-05T17:54:28Z</time>
      </trkpt>
      <trkpt lat="43.64501" lon="1.39559">
        <ele>121</ele>
        <time>2024-11-05T17:54:29Z</time>
      </trkpt>
      <trkpt lat="43.64501" lon="1.39562">
        <ele>121</ele>
        <time>2024-11-05T17:54:30Z</time>
      </trkpt>
      <trkpt lat="43.64502" lon="1.39566">
        <ele>121</ele>
        <time>2024-11-05T17:54:31Z</time>
      </trkpt>
      <trkpt lat="43.64503" lon="1.39569">
        <ele>121</ele>
        <time>2024-11-05T17:54:32Z</time>
      </trkpt>
      <trkpt lat="43.64503" lon="1.39572">
        <ele>121</ele>
        <time>2024-11-05T17:54:33Z</time>
      </trkpt>
      <trkpt lat="43.64503" lon="1.39575">
        <ele>121</ele>
        <time>2024-11-05T17:54:34Z</time>
      </trkpt>
      <trkpt lat="43.64504" lon="1.39578">
        <ele>121</ele>
        <time>2024-11-05T17:54:35Z</time>
      </trkpt>
      <trkpt lat="43.64504" lon="1.39581">
        <ele>121</ele>
        <time>2024-11-05T17:54:36Z</time>
      </trkpt>
      <trkpt lat="43.64504" lon="1.39585">
        <ele>121</ele>
        <time>2024-11-05T17:54:37Z</time>
      </trkpt>
      <trkpt lat="43.64504" lon="1.39588">
        <ele>121</ele>
        <time>2024-11-05T17:54:38Z</time>
      </trkpt>
      <trkpt lat="43.64504" lon="1.39588">
        <ele>121</ele>
        <time>2024-11-05T17:54:39Z</time>
      </trkpt>
      <trkpt lat="43.64504" lon="1.39595">
        <ele>121</ele>
        <time>2024-11-05T17:54:40Z</time>
      </trkpt>
      <trkpt lat="43.64504" lon="1.39598">
        <ele>121</ele>
        <time>2024-11-05T17:54:41Z</time>
      </trkpt>
      <trkpt lat="43.64504" lon="1.39601">
        <ele>121</ele>
        <time>2024-11-05T17:54:42Z</time>
      </trkpt>
      <trkpt lat="43.64504" lon="1.39604">
        <ele>121</ele>
        <time>2024-11-05T17:54:43Z</time>
      </trkpt>
      <trkpt lat="43.64504" lon="1.39608">
        <ele>121</ele>
        <time>2024-11-05T17:54:44Z</time>
      </trkpt>
      <trkpt lat="43.64504" lon="1.39611">
        <ele>121</ele>
        <time>2024-11-05T17:54:45Z</time>
      </trkpt>
      <trkpt lat="43.64504" lon="1.39614">
        <ele>121</ele>
        <time>2024-11-05T17:54:46Z</time>
      </trkpt>
      <trkpt lat="43.64504" lon="1.39618">
        <ele>121</ele>
        <time>2024-11-05T17:54:47Z</time>
      </trkpt>
      <trkpt lat="43.64504" lon="1.39618">
        <ele>121</ele>
        <time>2024-11-05T17:54:48Z</time>
      </trkpt>
      <trkpt lat="43.64504" lon="1.39624">
        <ele>121</ele>
        <time>2024-11-05T17:54:49Z</time>
      </trkpt>
      <trkpt lat="43.64504" lon="1.39628">
        <ele>121</ele>
        <time>2024-11-05T17:54:50Z</time>
      </trkpt>
      <trkpt lat="43.64504" lon="1.39631">
        <ele>121</ele>
        <time>2024-11-05T17:54:51Z</time>
      </trkpt>
      <trkpt lat="43.64505" lon="1.39634">
        <ele>121</ele>
        <time>2024-11-05T17:54:52Z</time>
      </trkpt>
      <trkpt lat="43.64505" lon="1.39638">
        <ele>121</ele>
        <time>2024-11-05T17:54:53Z</time>
      </trkpt>
      <trkpt lat="43.64505" lon="1.39641">
        <ele>121</ele>
        <time>2024-11-05T17:54:54Z</time>
      </trkpt>
      <trkpt lat="43.64505" lon="1.39644">
        <ele>121</ele>
        <time>2024-11-05T17:54:55Z</time>
      </trkpt>
      <trkpt lat="43.64505" lon="1.39648">
        <ele>121</ele>
        <time>2024-11-05T17:54:56Z</time>
      </trkpt>
      <trkpt lat="43.64505" lon="1.39651">
        <ele>121</ele>
        <time>2024-11-05T17:54:57Z</time>
      </trkpt>
      <trkpt lat="43.64505" lon="1.39654">
        <ele>121</ele>
        <time>2024-11-05T17:54:58Z</time>
      </trkpt>
      <trkpt lat="43.64505" lon="1.39658">
        <ele>121</ele>
        <time>2024-11-05T17:54:59Z</time>
      </trkpt>
      <trkpt lat="43.64506" lon="1.39661">
        <ele>121</ele>
        <time>2024-11-05T17:55:00Z</time>
      </trkpt>
      <trkpt lat="43.64506" lon="1.39664">
        <ele>121</ele>
        <time>2024-11-05T17:55:01Z</time>
      </trkpt>
      <trkpt lat="43.64505" lon="1.39667">
        <ele>121</ele>
        <time>2024-11-05T17:55:02Z</time>
      </trkpt>
      <trkpt lat="43.64505" lon="1.3967">
        <ele>121</ele>
        <time>2024-11-05T17:55:03Z</time>
      </trkpt>
      <trkpt lat="43.64505" lon="1.39674">
        <ele>121</ele>
        <time>2024-11-05T17:55:04Z</time>
      </trkpt>
      <trkpt lat="43.64505" lon="1.39677">
        <ele>121</ele>
        <time>2024-11-05T17:55:05Z</time>
      </trkpt>
      <trkpt lat="43.64505" lon="1.3968">
        <ele>121</ele>
        <time>2024-11-05T17:55:06Z</time>
      </trkpt>
      <trkpt lat="43.64504" lon="1.39683">
        <ele>121</ele>
        <time>2024-11-05T17:55:07Z</time>
      </trkpt>
      <trkpt lat="43.64504" lon="1.39686">
        <ele>121</ele>
        <time>2024-11-05T17:55:08Z</time>
      </trkpt>
      <trkpt lat="43.64504" lon="1.3969">
        <ele>121</ele>
        <time>2024-11-05T17:55:09Z</time>
      </trkpt>
      <trkpt lat="43.64504" lon="1.39693">
        <ele>121</ele>
        <time>2024-11-05T17:55:10Z</time>
      </trkpt>
      <trkpt lat="43.64504" lon="1.39696">
        <ele>121</ele>
        <time>2024-11-05T17:55:11Z</time>
      </trkpt>
      <trkpt lat="43.64504" lon="1.397">
        <ele>121</ele>
        <time>2024-11-05T17:55:12Z</time>
      </trkpt>
      <trkpt lat="43.64504" lon="1.39703">
        <ele>121</ele>
        <time>2024-11-05T17:55:13Z</time>
      </trkpt>
      <trkpt lat="43.64504" lon="1.39706">
        <ele>121</ele>
        <time>2024-11-05T17:55:14Z</time>
      </trkpt>
      <trkpt lat="43.64504" lon="1.39709">
        <ele>121</ele>
        <time>2024-11-05T17:55:15Z</time>
      </trkpt>
      <trkpt lat="43.64503" lon="1.39712">
        <ele>121</ele>
        <time>2024-11-05T17:55:16Z</time>
      </trkpt>
      <trkpt lat="43.64503" lon="1.39716">
        <ele>121</ele>
        <time>2024-11-05T17:55:17Z</time>
      </trkpt>
      <trkpt lat="43.64503" lon="1.39719">
        <ele>121</ele>
        <time>2024-11-05T17:55:18Z</time>
      </trkpt>
      <trkpt lat="43.64503" lon="1.39723">
        <ele>121</ele>
        <time>2024-11-05T17:55:19Z</time>
      </trkpt>
      <trkpt lat="43.64503" lon="1.39726">
        <ele>121</ele>
        <time>2024-11-05T17:55:20Z</time>
      </trkpt>
      <trkpt lat="43.64503" lon="1.39729">
        <ele>121</ele>
        <time>2024-11-05T17:55:21Z</time>
      </trkpt>
      <trkpt lat="43.64503" lon="1.39733">
        <ele>121</ele>
        <time>2024-11-05T17:55:22Z</time>
      </trkpt>
      <trkpt lat="43.64503" lon="1.39736">
        <ele>121</ele>
        <time>2024-11-05T17:55:23Z</time>
      </trkpt>
      <trkpt lat="43.64503" lon="1.39739">
        <ele>121</ele>
        <time>2024-11-05T17:55:24Z</time>
      </trkpt>
      <trkpt lat="43.64503" lon="1.39743">
        <ele>121</ele>
        <time>2024-11-05T17:55:25Z</time>
      </trkpt>
      <trkpt lat="43.64503" lon="1.39746">
        <ele>121</ele>
        <time>2024-11-05T17:55:26Z</time>
      </trkpt>
      <trkpt lat="43.64503" lon="1.39749">
        <ele>121</ele>
        <time>2024-11-05T17:55:27Z</time>
      </trkpt>
      <trkpt lat="43.64503" lon="1.39752">
        <ele>121</ele>
        <time>2024-11-05T17:55:28Z</time>
      </trkpt>
      <trkpt lat="43.64503" lon="1.39755">
        <ele>121</ele>
        <time>2024-11-05T17:55:29Z</time>
      </trkpt>
      <trkpt lat="43.64503" lon="1.39758">
        <ele>121</ele>
        <time>2024-11-05T17:55:30Z</time>
      </trkpt>
      <trkpt lat="43.64504" lon="1.39762">
        <ele>121</ele>
        <time>2024-11-05T17:55:31Z</time>
      </trkpt>
      <trkpt lat="43.64505" lon="1.39765">
        <ele>121</ele>
        <time>2024-11-05T17:55:32Z</time>
      </trkpt>
      <trkpt lat="43.64505" lon="1.39768">
        <ele>121</ele>
        <time>2024-11-05T17:55:33Z</time>
      </trkpt>
      <trkpt lat="43.64505" lon="1.39771">
        <ele>121</ele>
        <time>2024-11-05T17:55:34Z</time>
      </trkpt>
      <trkpt lat="43.64504" lon="1.39775">
        <ele>121</ele>
        <time>2024-11-05T17:55:35Z</time>
      </trkpt>
      <trkpt lat="43.64504" lon="1.39778">
        <ele>121</ele>
        <time>2024-11-05T17:55:36Z</time>
      </trkpt>
      <trkpt lat="43.64503" lon="1.39781">
        <ele>121</ele>
        <time>2024-11-05T17:55:37Z</time>
      </trkpt>
      <trkpt lat="43.64503" lon="1.39784">
        <ele>121</ele>
        <time>2024-11-05T17:55:38Z</time>
      </trkpt>
      <trkpt lat="43.64503" lon="1.39787">
        <ele>121</ele>
        <time>2024-11-05T17:55:39Z</time>
      </trkpt>
      <trkpt lat="43.64502" lon="1.39791">
        <ele>121</ele>
        <time>2024-11-05T17:55:40Z</time>
      </trkpt>
      <trkpt lat="43.64502" lon="1.39794">
        <ele>121</ele>
        <time>2024-11-05T17:55:41Z</time>
      </trkpt>
      <trkpt lat="43.64502" lon="1.39797">
        <ele>121</ele>
        <time>2024-11-05T17:55:42Z</time>
      </trkpt>
      <trkpt lat="43.64502" lon="1.39801">
        <ele>121</ele>
        <time>2024-11-05T17:55:43Z</time>
      </trkpt>
      <trkpt lat="43.64502" lon="1.39804">
        <ele>121</ele>
        <time>2024-11-05T17:55:44Z</time>
      </trkpt>
      <trkpt lat="43.64502" lon="1.39808">
        <ele>121</ele>
        <time>2024-11-05T17:55:45Z</time>
      </trkpt>
      <trkpt lat="43.64501" lon="1.39811">
        <ele>121</ele>
        <time>2024-11-05T17:55:46Z</time>
      </trkpt>
      <trkpt lat="43.64502" lon="1.39814">
        <ele>121</ele>
        <time>2024-11-05T17:55:47Z</time>
      </trkpt>
      <trkpt lat="43.64502" lon="1.39818">
        <ele>121</ele>
        <time>2024-11-05T17:55:48Z</time>
      </trkpt>
      <trkpt lat="43.64502" lon="1.39821">
        <ele>121</ele>
        <time>2024-11-05T17:55:49Z</time>
      </trkpt>
      <trkpt lat="43.64501" lon="1.39824">
        <ele>121</ele>
        <time>2024-11-05T17:55:50Z</time>
      </trkpt>
      <trkpt lat="43.64501" lon="1.39828">
        <ele>121</ele>
        <time>2024-11-05T17:55:51Z</time>
      </trkpt>
      <trkpt lat="43.64501" lon="1.39831">
        <ele>121</ele>
        <time>2024-11-05T17:55:52Z</time>
      </trkpt>
      <trkpt lat="43.64501" lon="1.39834">
        <ele>121</ele>
        <time>2024-11-05T17:55:53Z</time>
      </trkpt>
      <trkpt lat="43.64501" lon="1.39837">
        <ele>121</ele>
        <time>2024-11-05T17:55:54Z</time>
      </trkpt>
      <trkpt lat="43.64501" lon="1.3984">
        <ele>121</ele>
        <time>2024-11-05T17:55:55Z</time>
      </trkpt>
      <trkpt lat="43.64501" lon="1.39843">
        <ele>121</ele>
        <time>2024-11-05T17:55:56Z</time>
      </trkpt>
      <trkpt lat="43.64501" lon="1.39847">
        <ele>121</ele>
        <time>2024-11-05T17:55:57Z</time>
      </trkpt>
      <trkpt lat="43.64501" lon="1.3985">
        <ele>121</ele>
        <time>2024-11-05T17:55:58Z</time>
      </trkpt>
      <trkpt lat="43.645" lon="1.39853">
        <ele>121</ele>
        <time>2024-11-05T17:55:59Z</time>
      </trkpt>
      <trkpt lat="43.645" lon="1.39856">
        <ele>121</ele>
        <time>2024-11-05T17:56:00Z</time>
      </trkpt>
      <trkpt lat="43.645" lon="1.3986">
        <ele>121</ele>
        <time>2024-11-05T17:56:01Z</time>
      </trkpt>
      <trkpt lat="43.645" lon="1.39863">
        <ele>121</ele>
        <time>2024-11-05T17:56:02Z</time>
      </trkpt>
      <trkpt lat="43.645" lon="1.39863">
        <ele>121</ele>
        <time>2024-11-05T17:56:03Z</time>
      </trkpt>
      <trkpt lat="43.645" lon="1.39866">
        <ele>121</ele>
        <time>2024-11-05T17:56:04Z</time>
      </trkpt>
      <trkpt lat="43.645" lon="1.39873">
        <ele>121</ele>
        <time>2024-11-05T17:56:05Z</time>
      </trkpt>
      <trkpt lat="43.645" lon="1.39876">
        <ele>121</ele>
        <time>2024-11-05T17:56:06Z</time>
      </trkpt>
      <trkpt lat="43.645" lon="1.39879">
        <ele>121</ele>
        <time>2024-11-05T17:56:07Z</time>
      </trkpt>
      <trkpt lat="43.64499" lon="1.39882">
        <ele>121</ele>
        <time>2024-11-05T17:56:08Z</time>
      </trkpt>
      <trkpt lat="43.64499" lon="1.39885">
        <ele>121</ele>
        <time>2024-11-05T17:56:09Z</time>
      </trkpt>
      <trkpt lat="43.64499" lon="1.39888">
        <ele>121</ele>
        <time>2024-11-05T17:56:10Z</time>
      </trkpt>
      <trkpt lat="43.64499" lon="1.39892">
        <ele>121</ele>
        <time>2024-11-05T17:56:11Z</time>
      </trkpt>
      <trkpt lat="43.64499" lon="1.39895">
        <ele>121</ele>
        <time>2024-11-05T17:56:12Z</time>
      </trkpt>
      <trkpt lat="43.64499" lon="1.39898">
        <ele>121</ele>
        <time>2024-11-05T17:56:13Z</time>
      </trkpt>
      <trkpt lat="43.64499" lon="1.39901">
        <ele>121</ele>
        <time>2024-11-05T17:56:14Z</time>
      </trkpt>
      <trkpt lat="43.64499" lon="1.39904">
        <ele>121</ele>
        <time>2024-11-05T17:56:15Z</time>
      </trkpt>
      <trkpt lat="43.64499" lon="1.39908">
        <ele>121</ele>
        <time>2024-11-05T17:56:16Z</time>
      </trkpt>
      <trkpt lat="43.64499" lon="1.39911">
        <ele>121</ele>
        <time>2024-11-05T17:56:17Z</time>
      </trkpt>
      <trkpt lat="43.64499" lon="1.39914">
        <ele>121</ele>
        <time>2024-11-05T17:56:18Z</time>
      </trkpt>
      <trkpt lat="43.64499" lon="1.39917">
        <ele>121</ele>
        <time>2024-11-05T17:56:19Z</time>
      </trkpt>
      <trkpt lat="43.64499" lon="1.3992">
        <ele>121</ele>
        <time>2024-11-05T17:56:20Z</time>
      </trkpt>
      <trkpt lat="43.645" lon="1.39923">
        <ele>121</ele>
        <time>2024-11-05T17:56:21Z</time>
      </trkpt>
      <trkpt lat="43.64501" lon="1.39925">
        <ele>121</ele>
        <time>2024-11-05T17:56:22Z</time>
      </trkpt>
      <trkpt lat="43.64501" lon="1.39925">
        <ele>121</ele>
        <time>2024-11-05T17:56:23Z</time>
      </trkpt>
      <trkpt lat="43.64504" lon="1.39929">
        <ele>121</ele>
        <time>2024-11-05T17:56:24Z</time>
      </trkpt>
      <trkpt lat="43.64506" lon="1.39931">
        <ele>121</ele>
        <time>2024-11-05T17:56:25Z</time>
      </trkpt>
      <trkpt lat="43.64506" lon="1.39931">
        <ele>121</ele>
        <time>2024-11-05T17:56:26Z</time>
      </trkpt>
      <trkpt lat="43.64508" lon="1.39937">
        <ele>121</ele>
        <time>2024-11-05T17:56:27Z</time>
      </trkpt>
      <trkpt lat="43.64509" lon="1.3994">
        <ele>121</ele>
        <time>2024-11-05T17:56:28Z</time>
      </trkpt>
      <trkpt lat="43.64508" lon="1.39944">
        <ele>121</ele>
        <time>2024-11-05T17:56:29Z</time>
      </trkpt>
      <trkpt lat="43.64508" lon="1.39946">
        <ele>121</ele>
        <time>2024-11-05T17:56:30Z</time>
      </trkpt>
      <trkpt lat="43.64508" lon="1.39946">
        <ele>121</ele>
        <time>2024-11-05T17:56:31Z</time>
      </trkpt>
      <trkpt lat="43.64498" lon="1.39954">
        <ele>121</ele>
        <time>2024-11-05T17:58:31Z</time>
      </trkpt>
      <trkpt lat="43.64498" lon="1.39954">
        <ele>122</ele>
        <time>2024-11-05T17:58:32Z</time>
      </trkpt>
      <trkpt lat="43.64495" lon="1.39955">
        <ele>122</ele>
        <time>2024-11-05T17:58:33Z</time>
      </trkpt>
      <trkpt lat="43.64495" lon="1.39955">
        <ele>122</ele>
        <time>2024-11-05T17:58:34Z</time>
      </trkpt>
      <trkpt lat="43.64491" lon="1.39955">
        <ele>121</ele>
        <time>2024-11-05T17:58:35Z</time>
      </trkpt>
      <trkpt lat="43.64491" lon="1.39955">
        <ele>120</ele>
        <time>2024-11-05T17:58:36Z</time>
      </trkpt>
      <trkpt lat="43.64489" lon="1.39956">
        <ele>120</ele>
        <time>2024-11-05T17:58:37Z</time>
      </trkpt>
      <trkpt lat="43.64489" lon="1.39956">
        <ele>120</ele>
        <time>2024-11-05T17:58:38Z</time>
      </trkpt>
      <trkpt lat="43.64487" lon="1.39957">
        <ele>120</ele>
        <time>2024-11-05T17:58:39Z</time>
      </trkpt>
      <trkpt lat="43.64487" lon="1.39957">
        <ele>120</ele>
        <time>2024-11-05T17:58:40Z</time>
      </trkpt>
      <trkpt lat="43.64484" lon="1.39959">
        <ele>120</ele>
        <time>2024-11-05T17:58:41Z</time>
      </trkpt>
      <trkpt lat="43.64482" lon="1.39959">
        <ele>120</ele>
        <time>2024-11-05T17:58:42Z</time>
      </trkpt>
      <trkpt lat="43.6448" lon="1.3996">
        <ele>120</ele>
        <time>2024-11-05T17:58:43Z</time>
      </trkpt>
      <trkpt lat="43.64477" lon="1.39961">
        <ele>120</ele>
        <time>2024-11-05T17:58:44Z</time>
      </trkpt>
      <trkpt lat="43.64475" lon="1.39962">
        <ele>119</ele>
        <time>2024-11-05T17:58:45Z</time>
      </trkpt>
      <trkpt lat="43.64473" lon="1.39963">
        <ele>119</ele>
        <time>2024-11-05T17:58:46Z</time>
      </trkpt>
      <trkpt lat="43.6447" lon="1.39964">
        <ele>119</ele>
        <time>2024-11-05T17:58:47Z</time>
      </trkpt>
      <trkpt lat="43.64467" lon="1.39964">
        <ele>119</ele>
        <time>2024-11-05T17:58:48Z</time>
      </trkpt>
      <trkpt lat="43.64464" lon="1.39965">
        <ele>119</ele>
        <time>2024-11-05T17:58:49Z</time>
      </trkpt>
      <trkpt lat="43.64461" lon="1.39965">
        <ele>119</ele>
        <time>2024-11-05T17:58:50Z</time>
      </trkpt>
      <trkpt lat="43.64456" lon="1.39966">
        <ele>119</ele>
        <time>2024-11-05T17:58:52Z</time>
      </trkpt>
      <trkpt lat="43.64453" lon="1.39966">
        <ele>119</ele>
        <time>2024-11-05T17:58:53Z</time>
      </trkpt>
      <trkpt lat="43.6445" lon="1.39967">
        <ele>119</ele>
        <time>2024-11-05T17:58:54Z</time>
      </trkpt>
      <trkpt lat="43.64448" lon="1.39966">
        <ele>119</ele>
        <time>2024-11-05T17:58:55Z</time>
      </trkpt>
      <trkpt lat="43.64446" lon="1.39966">
        <ele>119</ele>
        <time>2024-11-05T17:58:56Z</time>
      </trkpt>
      <trkpt lat="43.64443" lon="1.39966">
        <ele>119</ele>
        <time>2024-11-05T17:58:57Z</time>
      </trkpt>
      <trkpt lat="43.64441" lon="1.39965">
        <ele>119</ele>
        <time>2024-11-05T17:58:58Z</time>
      </trkpt>
      <trkpt lat="43.64439" lon="1.39966">
        <ele>119</ele>
        <time>2024-11-05T17:58:59Z</time>
      </trkpt>
      <trkpt lat="43.64437" lon="1.39966">
        <ele>118</ele>
        <time>2024-11-05T17:59:00Z</time>
      </trkpt>
      <trkpt lat="43.64434" lon="1.39966">
        <ele>119</ele>
        <time>2024-11-05T17:59:01Z</time>
      </trkpt>
      <trkpt lat="43.64432" lon="1.39966">
        <ele>119</ele>
        <time>2024-11-05T17:59:02Z</time>
      </trkpt>
      <trkpt lat="43.6443" lon="1.39966">
        <ele>119</ele>
        <time>2024-11-05T17:59:03Z</time>
      </trkpt>
      <trkpt lat="43.64428" lon="1.39966">
        <ele>119</ele>
        <time>2024-11-05T17:59:04Z</time>
      </trkpt>
      <trkpt lat="43.64426" lon="1.39966">
        <ele>119</ele>
        <time>2024-11-05T17:59:05Z</time>
      </trkpt>
      <trkpt lat="43.64423" lon="1.39966">
        <ele>119</ele>
        <time>2024-11-05T17:59:06Z</time>
      </trkpt>
      <trkpt lat="43.64421" lon="1.39966">
        <ele>119</ele>
        <time>2024-11-05T17:59:07Z</time>
      </trkpt>
      <trkpt lat="43.64418" lon="1.39965">
        <ele>119</ele>
        <time>2024-11-05T17:59:08Z</time>
      </trkpt>
      <trkpt lat="43.64416" lon="1.39966">
        <ele>119</ele>
        <time>2024-11-05T17:59:09Z</time>
      </trkpt>
      <trkpt lat="43.64416" lon="1.39966">
        <ele>119</ele>
        <time>2024-11-05T17:59:10Z</time>
      </trkpt>
      <trkpt lat="43.64413" lon="1.39966">
        <ele>119</ele>
        <time>2024-11-05T17:59:11Z</time>
      </trkpt>
      <trkpt lat="43.64408" lon="1.39966">
        <ele>119</ele>
        <time>2024-11-05T17:59:12Z</time>
      </trkpt>
      <trkpt lat="43.64406" lon="1.39966">
        <ele>119</ele>
        <time>2024-11-05T17:59:13Z</time>
      </trkpt>
      <trkpt lat="43.64404" lon="1.39966">
        <ele>119</ele>
        <time>2024-11-05T17:59:14Z</time>
      </trkpt>
      <trkpt lat="43.64401" lon="1.39966">
        <ele>119</ele>
        <time>2024-11-05T17:59:15Z</time>
      </trkpt>
      <trkpt lat="43.64399" lon="1.39966">
        <ele>119</ele>
        <time>2024-11-05T17:59:16Z</time>
      </trkpt>
      <trkpt lat="43.64396" lon="1.39965">
        <ele>119</ele>
        <time>2024-11-05T17:59:17Z</time>
      </trkpt>
      <trkpt lat="43.64393" lon="1.39965">
        <ele>119</ele>
        <time>2024-11-05T17:59:18Z</time>
      </trkpt>
      <trkpt lat="43.64391" lon="1.39964">
        <ele>119</ele>
        <time>2024-11-05T17:59:19Z</time>
      </trkpt>
      <trkpt lat="43.64388" lon="1.39964">
        <ele>119</ele>
        <time>2024-11-05T17:59:20Z</time>
      </trkpt>
      <trkpt lat="43.64386" lon="1.39964">
        <ele>119</ele>
        <time>2024-11-05T17:59:21Z</time>
      </trkpt>
      <trkpt lat="43.64384" lon="1.39965">
        <ele>119</ele>
        <time>2024-11-05T17:59:22Z</time>
      </trkpt>
      <trkpt lat="43.64382" lon="1.39965">
        <ele>119</ele>
        <time>2024-11-05T17:59:23Z</time>
      </trkpt>
      <trkpt lat="43.64379" lon="1.39965">
        <ele>119</ele>
        <time>2024-11-05T17:59:24Z</time>
      </trkpt>
      <trkpt lat="43.64377" lon="1.39964">
        <ele>119</ele>
        <time>2024-11-05T17:59:25Z</time>
      </trkpt>
      <trkpt lat="43.64375" lon="1.39964">
        <ele>119</ele>
        <time>2024-11-05T17:59:26Z</time>
      </trkpt>
      <trkpt lat="43.64373" lon="1.39963">
        <ele>119</ele>
        <time>2024-11-05T17:59:27Z</time>
      </trkpt>
      <trkpt lat="43.64371" lon="1.39963">
        <ele>119</ele>
        <time>2024-11-05T17:59:28Z</time>
      </trkpt>
      <trkpt lat="43.64369" lon="1.39962">
        <ele>119</ele>
        <time>2024-11-05T17:59:29Z</time>
      </trkpt>
      <trkpt lat="43.64366" lon="1.39962">
        <ele>119</ele>
        <time>2024-11-05T17:59:30Z</time>
      </trkpt>
      <trkpt lat="43.64363" lon="1.39962">
        <ele>119</ele>
        <time>2024-11-05T17:59:31Z</time>
      </trkpt>
      <trkpt lat="43.64363" lon="1.39962">
        <ele>119</ele>
        <time>2024-11-05T17:59:32Z</time>
      </trkpt>
      <trkpt lat="43.64357" lon="1.39962">
        <ele>119</ele>
        <time>2024-11-05T17:59:33Z</time>
      </trkpt>
      <trkpt lat="43.64355" lon="1.39961">
        <ele>119</ele>
        <time>2024-11-05T17:59:34Z</time>
      </trkpt>
      <trkpt lat="43.64353" lon="1.3996">
        <ele>119</ele>
        <time>2024-11-05T17:59:35Z</time>
      </trkpt>
      <trkpt lat="43.64351" lon="1.3996">
        <ele>119</ele>
        <time>2024-11-05T17:59:36Z</time>
      </trkpt>
      <trkpt lat="43.64348" lon="1.39959">
        <ele>119</ele>
        <time>2024-11-05T17:59:37Z</time>
      </trkpt>
      <trkpt lat="43.64346" lon="1.39958">
        <ele>119</ele>
        <time>2024-11-05T17:59:38Z</time>
      </trkpt>
      <trkpt lat="43.64344" lon="1.39957">
        <ele>119</ele>
        <time>2024-11-05T17:59:39Z</time>
      </trkpt>
      <trkpt lat="43.64342" lon="1.39956">
        <ele>119</ele>
        <time>2024-11-05T17:59:40Z</time>
      </trkpt>
      <trkpt lat="43.64339" lon="1.39955">
        <ele>119</ele>
        <time>2024-11-05T17:59:41Z</time>
      </trkpt>
      <trkpt lat="43.64338" lon="1.39954">
        <ele>119</ele>
        <time>2024-11-05T17:59:42Z</time>
      </trkpt>
      <trkpt lat="43.64335" lon="1.39953">
        <ele>119</ele>
        <time>2024-11-05T17:59:43Z</time>
      </trkpt>
      <trkpt lat="43.64333" lon="1.39952">
        <ele>119</ele>
        <time>2024-11-05T17:59:44Z</time>
      </trkpt>
      <trkpt lat="43.64331" lon="1.39951">
        <ele>119</ele>
        <time>2024-11-05T17:59:45Z</time>
      </trkpt>
      <trkpt lat="43.64329" lon="1.3995">
        <ele>119</ele>
        <time>2024-11-05T17:59:46Z</time>
      </trkpt>
      <trkpt lat="43.64327" lon="1.3995">
        <ele>119</ele>
        <time>2024-11-05T17:59:47Z</time>
      </trkpt>
      <trkpt lat="43.64324" lon="1.39949">
        <ele>119</ele>
        <time>2024-11-05T17:59:48Z</time>
      </trkpt>
      <trkpt lat="43.64322" lon="1.39948">
        <ele>119</ele>
        <time>2024-11-05T17:59:49Z</time>
      </trkpt>
      <trkpt lat="43.6432" lon="1.39947">
        <ele>119</ele>
        <time>2024-11-05T17:59:50Z</time>
      </trkpt>
      <trkpt lat="43.64318" lon="1.39946">
        <ele>119</ele>
        <time>2024-11-05T17:59:51Z</time>
      </trkpt>
      <trkpt lat="43.64316" lon="1.39945">
        <ele>119</ele>
        <time>2024-11-05T17:59:52Z</time>
      </trkpt>
      <trkpt lat="43.64314" lon="1.39944">
        <ele>119</ele>
        <time>2024-11-05T17:59:53Z</time>
      </trkpt>
      <trkpt lat="43.64312" lon="1.39944">
        <ele>119</ele>
        <time>2024-11-05T17:59:54Z</time>
      </trkpt>
      <trkpt lat="43.6431" lon="1.39943">
        <ele>119</ele>
        <time>2024-11-05T17:59:55Z</time>
      </trkpt>
      <trkpt lat="43.64308" lon="1.39942">
        <ele>119</ele>
        <time>2024-11-05T17:59:56Z</time>
      </trkpt>
      <trkpt lat="43.64306" lon="1.39941">
        <ele>119</ele>
        <time>2024-11-05T17:59:57Z</time>
      </trkpt>
      <trkpt lat="43.64306" lon="1.39941">
        <ele>119</ele>
        <time>2024-11-05T17:59:58Z</time>
      </trkpt>
      <trkpt lat="43.64301" lon="1.39939">
        <ele>119</ele>
        <time>2024-11-05T17:59:59Z</time>
      </trkpt>
      <trkpt lat="43.64299" lon="1.39938">
        <ele>119</ele>
        <time>2024-11-05T18:00:00Z</time>
      </trkpt>
      <trkpt lat="43.64297" lon="1.39937">
        <ele>119</ele>
        <time>2024-11-05T18:00:01Z</time>
      </trkpt>
      <trkpt lat="43.64294" lon="1.39937">
        <ele>119</ele>
        <time>2024-11-05T18:00:02Z</time>
      </trkpt>
      <trkpt lat="43.64292" lon="1.39937">
        <ele>119</ele>
        <time>2024-11-05T18:00:03Z</time>
      </trkpt>
      <trkpt lat="43.6429" lon="1.39936">
        <ele>119</ele>
        <time>2024-11-05T18:00:04Z</time>
      </trkpt>
      <trkpt lat="43.64288" lon="1.39936">
        <ele>119</ele>
        <time>2024-11-05T18:00:05Z</time>
      </trkpt>
      <trkpt lat="43.64286" lon="1.39935">
        <ele>119</ele>
        <time>2024-11-05T18:00:06Z</time>
      </trkpt>
      <trkpt lat="43.64284" lon="1.39934">
        <ele>119</ele>
        <time>2024-11-05T18:00:07Z</time>
      </trkpt>
      <trkpt lat="43.64282" lon="1.39933">
        <ele>119</ele>
        <time>2024-11-05T18:00:08Z</time>
      </trkpt>
      <trkpt lat="43.6428" lon="1.39932">
        <ele>119</ele>
        <time>2024-11-05T18:00:09Z</time>
      </trkpt>
      <trkpt lat="43.64278" lon="1.39932">
        <ele>119</ele>
        <time>2024-11-05T18:00:10Z</time>
      </trkpt>
      <trkpt lat="43.64276" lon="1.39932">
        <ele>119</ele>
        <time>2024-11-05T18:00:11Z</time>
      </trkpt>
      <trkpt lat="43.64273" lon="1.39932">
        <ele>119</ele>
        <time>2024-11-05T18:00:12Z</time>
      </trkpt>
      <trkpt lat="43.64271" lon="1.39931">
        <ele>119</ele>
        <time>2024-11-05T18:00:13Z</time>
      </trkpt>
      <trkpt lat="43.64269" lon="1.39931">
        <ele>119</ele>
        <time>2024-11-05T18:00:14Z</time>
      </trkpt>
      <trkpt lat="43.64266" lon="1.3993">
        <ele>119</ele>
        <time>2024-11-05T18:00:15Z</time>
      </trkpt>
      <trkpt lat="43.64264" lon="1.3993">
        <ele>119</ele>
        <time>2024-11-05T18:00:16Z</time>
      </trkpt>
      <trkpt lat="43.64261" lon="1.3993">
        <ele>120</ele>
        <time>2024-11-05T18:00:17Z</time>
      </trkpt>
      <trkpt lat="43.64261" lon="1.3993">
        <ele>120</ele>
        <time>2024-11-05T18:00:18Z</time>
      </trkpt>
      <trkpt lat="43.64258" lon="1.39929">
        <ele>120</ele>
        <time>2024-11-05T18:00:19Z</time>
      </trkpt>
      <trkpt lat="43.64255" lon="1.39929">
        <ele>120</ele>
        <time>2024-11-05T18:00:20Z</time>
      </trkpt>
      <trkpt lat="43.64253" lon="1.39929">
        <ele>120</ele>
        <time>2024-11-05T18:00:21Z</time>
      </trkpt>
      <trkpt lat="43.64251" lon="1.39929">
        <ele>120</ele>
        <time>2024-11-05T18:00:22Z</time>
      </trkpt>
      <trkpt lat="43.64248" lon="1.39929">
        <ele>120</ele>
        <time>2024-11-05T18:00:23Z</time>
      </trkpt>
      <trkpt lat="43.64246" lon="1.3993">
        <ele>120</ele>
        <time>2024-11-05T18:00:24Z</time>
      </trkpt>
      <trkpt lat="43.64244" lon="1.39931">
        <ele>120</ele>
        <time>2024-11-05T18:00:25Z</time>
      </trkpt>
      <trkpt lat="43.64242" lon="1.39932">
        <ele>120</ele>
        <time>2024-11-05T18:00:26Z</time>
      </trkpt>
      <trkpt lat="43.64242" lon="1.39932">
        <ele>120</ele>
        <time>2024-11-05T18:00:27Z</time>
      </trkpt>
      <trkpt lat="43.64237" lon="1.39935">
        <ele>120</ele>
        <time>2024-11-05T18:00:28Z</time>
      </trkpt>
      <trkpt lat="43.64236" lon="1.39935">
        <ele>120</ele>
        <time>2024-11-05T18:00:29Z</time>
      </trkpt>
      <trkpt lat="43.64234" lon="1.39936">
        <ele>120</ele>
        <time>2024-11-05T18:00:30Z</time>
      </trkpt>
      <trkpt lat="43.64233" lon="1.39937">
        <ele>120</ele>
        <time>2024-11-05T18:00:31Z</time>
      </trkpt>
      <trkpt lat="43.64231" lon="1.39938">
        <ele>120</ele>
        <time>2024-11-05T18:00:32Z</time>
      </trkpt>
      <trkpt lat="43.64229" lon="1.3994">
        <ele>120</ele>
        <time>2024-11-05T18:00:33Z</time>
      </trkpt>
      <trkpt lat="43.64227" lon="1.39943">
        <ele>120</ele>
        <time>2024-11-05T18:00:34Z</time>
      </trkpt>
      <trkpt lat="43.64224" lon="1.39945">
        <ele>120</ele>
        <time>2024-11-05T18:00:35Z</time>
      </trkpt>
      <trkpt lat="43.64222" lon="1.39947">
        <ele>120</ele>
        <time>2024-11-05T18:00:36Z</time>
      </trkpt>
      <trkpt lat="43.6422" lon="1.39949">
        <ele>120</ele>
        <time>2024-11-05T18:00:37Z</time>
      </trkpt>
      <trkpt lat="43.64218" lon="1.39951">
        <ele>120</ele>
        <time>2024-11-05T18:00:38Z</time>
      </trkpt>
      <trkpt lat="43.64216" lon="1.39953">
        <ele>120</ele>
        <time>2024-11-05T18:00:39Z</time>
      </trkpt>
      <trkpt lat="43.64213" lon="1.39955">
        <ele>120</ele>
        <time>2024-11-05T18:00:40Z</time>
      </trkpt>
      <trkpt lat="43.64211" lon="1.39957">
        <ele>120</ele>
        <time>2024-11-05T18:00:41Z</time>
      </trkpt>
      <trkpt lat="43.64209" lon="1.39959">
        <ele>120</ele>
        <time>2024-11-05T18:00:42Z</time>
      </trkpt>
      <trkpt lat="43.64207" lon="1.39961">
        <ele>119</ele>
        <time>2024-11-05T18:00:43Z</time>
      </trkpt>
      <trkpt lat="43.64205" lon="1.39964">
        <ele>119</ele>
        <time>2024-11-05T18:00:44Z</time>
      </trkpt>
      <trkpt lat="43.64203" lon="1.39966">
        <ele>119</ele>
        <time>2024-11-05T18:00:45Z</time>
      </trkpt>
      <trkpt lat="43.64201" lon="1.39968">
        <ele>119</ele>
        <time>2024-11-05T18:00:46Z</time>
      </trkpt>
      <trkpt lat="43.64199" lon="1.39969">
        <ele>119</ele>
        <time>2024-11-05T18:00:47Z</time>
      </trkpt>
      <trkpt lat="43.64196" lon="1.3997">
        <ele>119</ele>
        <time>2024-11-05T18:00:48Z</time>
      </trkpt>
      <trkpt lat="43.64194" lon="1.39971">
        <ele>119</ele>
        <time>2024-11-05T18:00:49Z</time>
      </trkpt>
      <trkpt lat="43.64192" lon="1.39972">
        <ele>120</ele>
        <time>2024-11-05T18:00:50Z</time>
      </trkpt>
      <trkpt lat="43.6419" lon="1.39973">
        <ele>120</ele>
        <time>2024-11-05T18:00:51Z</time>
      </trkpt>
      <trkpt lat="43.64187" lon="1.39974">
        <ele>120</ele>
        <time>2024-11-05T18:00:52Z</time>
      </trkpt>
      <trkpt lat="43.64185" lon="1.39975">
        <ele>120</ele>
        <time>2024-11-05T18:00:53Z</time>
      </trkpt>
      <trkpt lat="43.64182" lon="1.39975">
        <ele>119</ele>
        <time>2024-11-05T18:00:54Z</time>
      </trkpt>
      <trkpt lat="43.6418" lon="1.39976">
        <ele>119</ele>
        <time>2024-11-05T18:00:55Z</time>
      </trkpt>
      <trkpt lat="43.64178" lon="1.39976">
        <ele>119</ele>
        <time>2024-11-05T18:00:56Z</time>
      </trkpt>
      <trkpt lat="43.64175" lon="1.39977">
        <ele>119</ele>
        <time>2024-11-05T18:00:57Z</time>
      </trkpt>
      <trkpt lat="43.64175" lon="1.39977">
        <ele>119</ele>
        <time>2024-11-05T18:00:58Z</time>
      </trkpt>
      <trkpt lat="43.64171" lon="1.39978">
        <ele>119</ele>
        <time>2024-11-05T18:00:59Z</time>
      </trkpt>
      <trkpt lat="43.64169" lon="1.39979">
        <ele>119</ele>
        <time>2024-11-05T18:01:00Z</time>
      </trkpt>
      <trkpt lat="43.64166" lon="1.39979">
        <ele>119</ele>
        <time>2024-11-05T18:01:01Z</time>
      </trkpt>
      <trkpt lat="43.64164" lon="1.3998">
        <ele>119</ele>
        <time>2024-11-05T18:01:02Z</time>
      </trkpt>
      <trkpt lat="43.64162" lon="1.39981">
        <ele>120</ele>
        <time>2024-11-05T18:01:03Z</time>
      </trkpt>
      <trkpt lat="43.64162" lon="1.39981">
        <ele>120</ele>
        <time>2024-11-05T18:01:04Z</time>
      </trkpt>
      <trkpt lat="43.64157" lon="1.39982">
        <ele>120</ele>
        <time>2024-11-05T18:01:05Z</time>
      </trkpt>
      <trkpt lat="43.64154" lon="1.39984">
        <ele>120</ele>
        <time>2024-11-05T18:01:06Z</time>
      </trkpt>
      <trkpt lat="43.64152" lon="1.39984">
        <ele>120</ele>
        <time>2024-11-05T18:01:07Z</time>
      </trkpt>
      <trkpt lat="43.6415" lon="1.39985">
        <ele>120</ele>
        <time>2024-11-05T18:01:08Z</time>
      </trkpt>
      <trkpt lat="43.64148" lon="1.39985">
        <ele>120</ele>
        <time>2024-11-05T18:01:09Z</time>
      </trkpt>
      <trkpt lat="43.64146" lon="1.39985">
        <ele>120</ele>
        <time>2024-11-05T18:01:10Z</time>
      </trkpt>
      <trkpt lat="43.64146" lon="1.39985">
        <ele>120</ele>
        <time>2024-11-05T18:01:11Z</time>
      </trkpt>
      <trkpt lat="43.64142" lon="1.39985">
        <ele>120</ele>
        <time>2024-11-05T18:01:12Z</time>
      </trkpt>
      <trkpt lat="43.6414" lon="1.39986">
        <ele>120</ele>
        <time>2024-11-05T18:01:13Z</time>
      </trkpt>
      <trkpt lat="43.6414" lon="1.39986">
        <ele>120</ele>
        <time>2024-11-05T18:01:14Z</time>
      </trkpt>
      <trkpt lat="43.64137" lon="1.39987">
        <ele>120</ele>
        <time>2024-11-05T18:01:15Z</time>
      </trkpt>
      <trkpt lat="43.64137" lon="1.39987">
        <ele>120</ele>
        <time>2024-11-05T18:01:16Z</time>
      </trkpt>
      <trkpt lat="43.64134" lon="1.39988">
        <ele>120</ele>
        <time>2024-11-05T18:01:17Z</time>
      </trkpt>
      <trkpt lat="43.64134" lon="1.39988">
        <ele>120</ele>
        <time>2024-11-05T18:01:18Z</time>
      </trkpt>
      <trkpt lat="43.64131" lon="1.39988">
        <ele>120</ele>
        <time>2024-11-05T18:01:19Z</time>
      </trkpt>
      <trkpt lat="43.64129" lon="1.39989">
        <ele>120</ele>
        <time>2024-11-05T18:01:20Z</time>
      </trkpt>
      <trkpt lat="43.64126" lon="1.3999">
        <ele>120</ele>
        <time>2024-11-05T18:01:21Z</time>
      </trkpt>
      <trkpt lat="43.64126" lon="1.3999">
        <ele>120</ele>
        <time>2024-11-05T18:01:22Z</time>
      </trkpt>
      <trkpt lat="43.64122" lon="1.39994">
        <ele>120</ele>
        <time>2024-11-05T18:01:23Z</time>
      </trkpt>
      <trkpt lat="43.6412" lon="1.39997">
        <ele>120</ele>
        <time>2024-11-05T18:01:24Z</time>
      </trkpt>
      <trkpt lat="43.64119" lon="1.4">
        <ele>120</ele>
        <time>2024-11-05T18:01:25Z</time>
      </trkpt>
      <trkpt lat="43.64118" lon="1.40003">
        <ele>120</ele>
        <time>2024-11-05T18:01:26Z</time>
      </trkpt>
      <trkpt lat="43.64116" lon="1.40005">
        <ele>120</ele>
        <time>2024-11-05T18:01:27Z</time>
      </trkpt>
      <trkpt lat="43.64115" lon="1.40008">
        <ele>120</ele>
        <time>2024-11-05T18:01:28Z</time>
      </trkpt>
      <trkpt lat="43.64114" lon="1.4001">
        <ele>120</ele>
        <time>2024-11-05T18:01:29Z</time>
      </trkpt>
      <trkpt lat="43.64113" lon="1.40013">
        <ele>121</ele>
        <time>2024-11-05T18:01:30Z</time>
      </trkpt>
      <trkpt lat="43.64112" lon="1.40015">
        <ele>121</ele>
        <time>2024-11-05T18:01:31Z</time>
      </trkpt>
      <trkpt lat="43.64111" lon="1.40018">
        <ele>121</ele>
        <time>2024-11-05T18:01:32Z</time>
      </trkpt>
      <trkpt lat="43.64109" lon="1.40021">
        <ele>121</ele>
        <time>2024-11-05T18:01:33Z</time>
      </trkpt>
      <trkpt lat="43.64108" lon="1.40024">
        <ele>121</ele>
        <time>2024-11-05T18:01:34Z</time>
      </trkpt>
      <trkpt lat="43.64107" lon="1.40026">
        <ele>121</ele>
        <time>2024-11-05T18:01:35Z</time>
      </trkpt>
      <trkpt lat="43.64106" lon="1.40029">
        <ele>121</ele>
        <time>2024-11-05T18:01:36Z</time>
      </trkpt>
      <trkpt lat="43.64105" lon="1.40032">
        <ele>121</ele>
        <time>2024-11-05T18:01:37Z</time>
      </trkpt>
      <trkpt lat="43.64105" lon="1.40032">
        <ele>121</ele>
        <time>2024-11-05T18:01:38Z</time>
      </trkpt>
      <trkpt lat="43.64102" lon="1.40038">
        <ele>121</ele>
        <time>2024-11-05T18:01:39Z</time>
      </trkpt>
      <trkpt lat="43.64101" lon="1.40041">
        <ele>121</ele>
        <time>2024-11-05T18:01:40Z</time>
      </trkpt>
      <trkpt lat="43.641" lon="1.40043">
        <ele>120</ele>
        <time>2024-11-05T18:01:41Z</time>
      </trkpt>
      <trkpt lat="43.641" lon="1.40043">
        <ele>120</ele>
        <time>2024-11-05T18:01:42Z</time>
      </trkpt>
      <trkpt lat="43.64099" lon="1.40049">
        <ele>121</ele>
        <time>2024-11-05T18:01:43Z</time>
      </trkpt>
      <trkpt lat="43.64097" lon="1.40052">
        <ele>121</ele>
        <time>2024-11-05T18:01:44Z</time>
      </trkpt>
      <trkpt lat="43.64096" lon="1.40055">
        <ele>121</ele>
        <time>2024-11-05T18:01:45Z</time>
      </trkpt>
      <trkpt lat="43.64095" lon="1.40058">
        <ele>120</ele>
        <time>2024-11-05T18:01:46Z</time>
      </trkpt>
      <trkpt lat="43.64093" lon="1.4006">
        <ele>120</ele>
        <time>2024-11-05T18:01:47Z</time>
      </trkpt>
      <trkpt lat="43.64092" lon="1.40063">
        <ele>121</ele>
        <time>2024-11-05T18:01:48Z</time>
      </trkpt>
      <trkpt lat="43.6409" lon="1.40066">
        <ele>121</ele>
        <time>2024-11-05T18:01:49Z</time>
      </trkpt>
      <trkpt lat="43.64088" lon="1.40068">
        <ele>121</ele>
        <time>2024-11-05T18:01:50Z</time>
      </trkpt>
      <trkpt lat="43.64087" lon="1.40071">
        <ele>121</ele>
        <time>2024-11-05T18:01:51Z</time>
      </trkpt>
      <trkpt lat="43.64085" lon="1.40074">
        <ele>121</ele>
        <time>2024-11-05T18:01:52Z</time>
      </trkpt>
      <trkpt lat="43.64083" lon="1.40076">
        <ele>121</ele>
        <time>2024-11-05T18:01:53Z</time>
      </trkpt>
      <trkpt lat="43.64081" lon="1.40078">
        <ele>121</ele>
        <time>2024-11-05T18:01:54Z</time>
      </trkpt>
      <trkpt lat="43.64079" lon="1.4008">
        <ele>121</ele>
        <time>2024-11-05T18:01:55Z</time>
      </trkpt>
      <trkpt lat="43.64077" lon="1.40082">
        <ele>121</ele>
        <time>2024-11-05T18:01:56Z</time>
      </trkpt>
      <trkpt lat="43.64076" lon="1.40084">
        <ele>121</ele>
        <time>2024-11-05T18:01:57Z</time>
      </trkpt>
      <trkpt lat="43.64076" lon="1.40084">
        <ele>121</ele>
        <time>2024-11-05T18:01:58Z</time>
      </trkpt>
      <trkpt lat="43.64072" lon="1.40088">
        <ele>121</ele>
        <time>2024-11-05T18:01:59Z</time>
      </trkpt>
      <trkpt lat="43.6407" lon="1.4009">
        <ele>121</ele>
        <time>2024-11-05T18:02:00Z</time>
      </trkpt>
      <trkpt lat="43.64068" lon="1.40092">
        <ele>121</ele>
        <time>2024-11-05T18:02:01Z</time>
      </trkpt>
      <trkpt lat="43.64066" lon="1.40094">
        <ele>121</ele>
        <time>2024-11-05T18:02:02Z</time>
      </trkpt>
      <trkpt lat="43.64064" lon="1.40096">
        <ele>121</ele>
        <time>2024-11-05T18:02:03Z</time>
      </trkpt>
      <trkpt lat="43.64062" lon="1.40098">
        <ele>121</ele>
        <time>2024-11-05T18:02:04Z</time>
      </trkpt>
      <trkpt lat="43.6406" lon="1.401">
        <ele>121</ele>
        <time>2024-11-05T18:02:05Z</time>
      </trkpt>
      <trkpt lat="43.64059" lon="1.40102">
        <ele>121</ele>
        <time>2024-11-05T18:02:06Z</time>
      </trkpt>
      <trkpt lat="43.64057" lon="1.40103">
        <ele>121</ele>
        <time>2024-11-05T18:02:07Z</time>
      </trkpt>
      <trkpt lat="43.64055" lon="1.40105">
        <ele>121</ele>
        <time>2024-11-05T18:02:08Z</time>
      </trkpt>
      <trkpt lat="43.64053" lon="1.40107">
        <ele>121</ele>
        <time>2024-11-05T18:02:09Z</time>
      </trkpt>
      <trkpt lat="43.64051" lon="1.40108">
        <ele>121</ele>
        <time>2024-11-05T18:02:10Z</time>
      </trkpt>
      <trkpt lat="43.64049" lon="1.4011">
        <ele>122</ele>
        <time>2024-11-05T18:02:11Z</time>
      </trkpt>
      <trkpt lat="43.64047" lon="1.40112">
        <ele>122</ele>
        <time>2024-11-05T18:02:12Z</time>
      </trkpt>
      <trkpt lat="43.64045" lon="1.40113">
        <ele>122</ele>
        <time>2024-11-05T18:02:13Z</time>
      </trkpt>
      <trkpt lat="43.64043" lon="1.40115">
        <ele>122</ele>
        <time>2024-11-05T18:02:14Z</time>
      </trkpt>
      <trkpt lat="43.64041" lon="1.40117">
        <ele>122</ele>
        <time>2024-11-05T18:02:15Z</time>
      </trkpt>
      <trkpt lat="43.64039" lon="1.40119">
        <ele>122</ele>
        <time>2024-11-05T18:02:16Z</time>
      </trkpt>
      <trkpt lat="43.64037" lon="1.40121">
        <ele>122</ele>
        <time>2024-11-05T18:02:17Z</time>
      </trkpt>
      <trkpt lat="43.64035" lon="1.40123">
        <ele>121</ele>
        <time>2024-11-05T18:02:18Z</time>
      </trkpt>
      <trkpt lat="43.64034" lon="1.40125">
        <ele>121</ele>
        <time>2024-11-05T18:02:19Z</time>
      </trkpt>
      <trkpt lat="43.64032" lon="1.40127">
        <ele>121</ele>
        <time>2024-11-05T18:02:20Z</time>
      </trkpt>
      <trkpt lat="43.6403" lon="1.40128">
        <ele>121</ele>
        <time>2024-11-05T18:02:21Z</time>
      </trkpt>
      <trkpt lat="43.64028" lon="1.4013">
        <ele>121</ele>
        <time>2024-11-05T18:02:22Z</time>
      </trkpt>
      <trkpt lat="43.64026" lon="1.40132">
        <ele>121</ele>
        <time>2024-11-05T18:02:23Z</time>
      </trkpt>
      <trkpt lat="43.64024" lon="1.40134">
        <ele>121</ele>
        <time>2024-11-05T18:02:24Z</time>
      </trkpt>
      <trkpt lat="43.64022" lon="1.40136">
        <ele>121</ele>
        <time>2024-11-05T18:02:25Z</time>
      </trkpt>
      <trkpt lat="43.64021" lon="1.40138">
        <ele>121</ele>
        <time>2024-11-05T18:02:26Z</time>
      </trkpt>
      <trkpt lat="43.64019" lon="1.40141">
        <ele>121</ele>
        <time>2024-11-05T18:02:27Z</time>
      </trkpt>
      <trkpt lat="43.64017" lon="1.40143">
        <ele>121</ele>
        <time>2024-11-05T18:02:28Z</time>
      </trkpt>
      <trkpt lat="43.64016" lon="1.40145">
        <ele>121</ele>
        <time>2024-11-05T18:02:29Z</time>
      </trkpt>
      <trkpt lat="43.64014" lon="1.40147">
        <ele>121</ele>
        <time>2024-11-05T18:02:30Z</time>
      </trkpt>
      <trkpt lat="43.64012" lon="1.40149">
        <ele>121</ele>
        <time>2024-11-05T18:02:31Z</time>
      </trkpt>
      <trkpt lat="43.6401" lon="1.4015">
        <ele>121</ele>
        <time>2024-11-05T18:02:32Z</time>
      </trkpt>
      <trkpt lat="43.64008" lon="1.40152">
        <ele>121</ele>
        <time>2024-11-05T18:02:33Z</time>
      </trkpt>
      <trkpt lat="43.64006" lon="1.40154">
        <ele>121</ele>
        <time>2024-11-05T18:02:34Z</time>
      </trkpt>
      <trkpt lat="43.64004" lon="1.40156">
        <ele>121</ele>
        <time>2024-11-05T18:02:35Z</time>
      </trkpt>
      <trkpt lat="43.64002" lon="1.40157">
        <ele>121</ele>
        <time>2024-11-05T18:02:36Z</time>
      </trkpt>
      <trkpt lat="43.64001" lon="1.40159">
        <ele>121</ele>
        <time>2024-11-05T18:02:37Z</time>
      </trkpt>
      <trkpt lat="43.63999" lon="1.40161">
        <ele>121</ele>
        <time>2024-11-05T18:02:38Z</time>
      </trkpt>
      <trkpt lat="43.63999" lon="1.40161">
        <ele>121</ele>
        <time>2024-11-05T18:02:39Z</time>
      </trkpt>
      <trkpt lat="43.63996" lon="1.40165">
        <ele>121</ele>
        <time>2024-11-05T18:02:40Z</time>
      </trkpt>
      <trkpt lat="43.63994" lon="1.40166">
        <ele>121</ele>
        <time>2024-11-05T18:02:41Z</time>
      </trkpt>
      <trkpt lat="43.63992" lon="1.40168">
        <ele>121</ele>
        <time>2024-11-05T18:02:42Z</time>
      </trkpt>
      <trkpt lat="43.6399" lon="1.40169">
        <ele>121</ele>
        <time>2024-11-05T18:02:43Z</time>
      </trkpt>
      <trkpt lat="43.63989" lon="1.40171">
        <ele>121</ele>
        <time>2024-11-05T18:02:44Z</time>
      </trkpt>
      <trkpt lat="43.63987" lon="1.40173">
        <ele>121</ele>
        <time>2024-11-05T18:02:45Z</time>
      </trkpt>
      <trkpt lat="43.63985" lon="1.40175">
        <ele>121</ele>
        <time>2024-11-05T18:02:46Z</time>
      </trkpt>
      <trkpt lat="43.63984" lon="1.40177">
        <ele>121</ele>
        <time>2024-11-05T18:02:47Z</time>
      </trkpt>
      <trkpt lat="43.63984" lon="1.40177">
        <ele>121</ele>
        <time>2024-11-05T18:02:48Z</time>
      </trkpt>
      <trkpt lat="43.63981" lon="1.4018">
        <ele>121</ele>
        <time>2024-11-05T18:02:49Z</time>
      </trkpt>
      <trkpt lat="43.63979" lon="1.40181">
        <ele>121</ele>
        <time>2024-11-05T18:02:50Z</time>
      </trkpt>
      <trkpt lat="43.63979" lon="1.40181">
        <ele>121</ele>
        <time>2024-11-05T18:02:51Z</time>
      </trkpt>
      <trkpt lat="43.63977" lon="1.40181">
        <ele>121</ele>
        <time>2024-11-05T18:02:52Z</time>
      </trkpt>
      <trkpt lat="43.63977" lon="1.40181">
        <ele>121</ele>
        <time>2024-11-05T18:02:53Z</time>
      </trkpt>
      <trkpt lat="43.63977" lon="1.40181">
        <ele>121</ele>
        <time>2024-11-05T18:02:54Z</time>
      </trkpt>
      <trkpt lat="43.63977" lon="1.40181">
        <ele>121</ele>
        <time>2024-11-05T18:02:55Z</time>
      </trkpt>
      <trkpt lat="43.63976" lon="1.4018">
        <ele>121</ele>
        <time>2024-11-05T18:02:56Z</time>
      </trkpt>
      <trkpt lat="43.63979" lon="1.40172">
        <ele>121</ele>
        <time>2024-11-05T18:03:48Z</time>
      </trkpt>
      <trkpt lat="43.63979" lon="1.40172">
        <ele>122</ele>
        <time>2024-11-05T18:03:49Z</time>
      </trkpt>
      <trkpt lat="43.63981" lon="1.4017">
        <ele>122</ele>
        <time>2024-11-05T18:03:50Z</time>
      </trkpt>
      <trkpt lat="43.63983" lon="1.40168">
        <ele>122</ele>
        <time>2024-11-05T18:03:51Z</time>
      </trkpt>
      <trkpt lat="43.63985" lon="1.40165">
        <ele>122</ele>
        <time>2024-11-05T18:03:52Z</time>
      </trkpt>
      <trkpt lat="43.63987" lon="1.40163">
        <ele>122</ele>
        <time>2024-11-05T18:03:53Z</time>
      </trkpt>
      <trkpt lat="43.63989" lon="1.40161">
        <ele>121</ele>
        <time>2024-11-05T18:03:54Z</time>
      </trkpt>
      <trkpt lat="43.63991" lon="1.40159">
        <ele>121</ele>
        <time>2024-11-05T18:03:55Z</time>
      </trkpt>
      <trkpt lat="43.63993" lon="1.40156">
        <ele>121</ele>
        <time>2024-11-05T18:03:56Z</time>
      </trkpt>
      <trkpt lat="43.63995" lon="1.40154">
        <ele>121</ele>
        <time>2024-11-05T18:03:57Z</time>
      </trkpt>
      <trkpt lat="43.63997" lon="1.40152">
        <ele>121</ele>
        <time>2024-11-05T18:03:58Z</time>
      </trkpt>
      <trkpt lat="43.63998" lon="1.4015">
        <ele>121</ele>
        <time>2024-11-05T18:03:59Z</time>
      </trkpt>
      <trkpt lat="43.64" lon="1.40148">
        <ele>121</ele>
        <time>2024-11-05T18:04:00Z</time>
      </trkpt>
      <trkpt lat="43.64002" lon="1.40145">
        <ele>121</ele>
        <time>2024-11-05T18:04:01Z</time>
      </trkpt>
      <trkpt lat="43.64004" lon="1.40143">
        <ele>121</ele>
        <time>2024-11-05T18:04:02Z</time>
      </trkpt>
      <trkpt lat="43.64007" lon="1.40141">
        <ele>121</ele>
        <time>2024-11-05T18:04:03Z</time>
      </trkpt>
      <trkpt lat="43.64009" lon="1.40138">
        <ele>121</ele>
        <time>2024-11-05T18:04:04Z</time>
      </trkpt>
      <trkpt lat="43.64011" lon="1.40136">
        <ele>121</ele>
        <time>2024-11-05T18:04:05Z</time>
      </trkpt>
      <trkpt lat="43.64013" lon="1.40134">
        <ele>121</ele>
        <time>2024-11-05T18:04:06Z</time>
      </trkpt>
      <trkpt lat="43.64013" lon="1.40134">
        <ele>121</ele>
        <time>2024-11-05T18:04:07Z</time>
      </trkpt>
      <trkpt lat="43.64017" lon="1.40129">
        <ele>121</ele>
        <time>2024-11-05T18:04:08Z</time>
      </trkpt>
      <trkpt lat="43.64018" lon="1.40127">
        <ele>121</ele>
        <time>2024-11-05T18:04:09Z</time>
      </trkpt>
      <trkpt lat="43.64021" lon="1.40125">
        <ele>121</ele>
        <time>2024-11-05T18:04:10Z</time>
      </trkpt>
      <trkpt lat="43.64023" lon="1.40122">
        <ele>121</ele>
        <time>2024-11-05T18:04:11Z</time>
      </trkpt>
      <trkpt lat="43.64024" lon="1.4012">
        <ele>121</ele>
        <time>2024-11-05T18:04:12Z</time>
      </trkpt>
      <trkpt lat="43.64026" lon="1.40119">
        <ele>121</ele>
        <time>2024-11-05T18:04:13Z</time>
      </trkpt>
      <trkpt lat="43.64028" lon="1.40117">
        <ele>121</ele>
        <time>2024-11-05T18:04:14Z</time>
      </trkpt>
      <trkpt lat="43.6403" lon="1.40115">
        <ele>121</ele>
        <time>2024-11-05T18:04:15Z</time>
      </trkpt>
      <trkpt lat="43.64032" lon="1.40113">
        <ele>121</ele>
        <time>2024-11-05T18:04:16Z</time>
      </trkpt>
      <trkpt lat="43.64034" lon="1.40111">
        <ele>121</ele>
        <time>2024-11-05T18:04:17Z</time>
      </trkpt>
      <trkpt lat="43.64036" lon="1.40109">
        <ele>121</ele>
        <time>2024-11-05T18:04:18Z</time>
      </trkpt>
      <trkpt lat="43.64037" lon="1.40107">
        <ele>121</ele>
        <time>2024-11-05T18:04:19Z</time>
      </trkpt>
      <trkpt lat="43.64039" lon="1.40105">
        <ele>121</ele>
        <time>2024-11-05T18:04:20Z</time>
      </trkpt>
      <trkpt lat="43.64041" lon="1.40103">
        <ele>121</ele>
        <time>2024-11-05T18:04:21Z</time>
      </trkpt>
      <trkpt lat="43.64043" lon="1.40101">
        <ele>121</ele>
        <time>2024-11-05T18:04:22Z</time>
      </trkpt>
      <trkpt lat="43.64045" lon="1.40099">
        <ele>121</ele>
        <time>2024-11-05T18:04:23Z</time>
      </trkpt>
      <trkpt lat="43.64046" lon="1.40097">
        <ele>121</ele>
        <time>2024-11-05T18:04:24Z</time>
      </trkpt>
      <trkpt lat="43.64048" lon="1.40095">
        <ele>121</ele>
        <time>2024-11-05T18:04:25Z</time>
      </trkpt>
      <trkpt lat="43.6405" lon="1.40093">
        <ele>121</ele>
        <time>2024-11-05T18:04:26Z</time>
      </trkpt>
      <trkpt lat="43.64052" lon="1.40091">
        <ele>121</ele>
        <time>2024-11-05T18:04:27Z</time>
      </trkpt>
      <trkpt lat="43.64052" lon="1.40091">
        <ele>121</ele>
        <time>2024-11-05T18:04:28Z</time>
      </trkpt>
      <trkpt lat="43.64056" lon="1.40086">
        <ele>121</ele>
        <time>2024-11-05T18:04:29Z</time>
      </trkpt>
      <trkpt lat="43.64058" lon="1.40084">
        <ele>121</ele>
        <time>2024-11-05T18:04:30Z</time>
      </trkpt>
      <trkpt lat="43.64059" lon="1.40082">
        <ele>121</ele>
        <time>2024-11-05T18:04:31Z</time>
      </trkpt>
      <trkpt lat="43.64061" lon="1.4008">
        <ele>121</ele>
        <time>2024-11-05T18:04:32Z</time>
      </trkpt>
      <trkpt lat="43.64063" lon="1.40078">
        <ele>121</ele>
        <time>2024-11-05T18:04:33Z</time>
      </trkpt>
      <trkpt lat="43.64065" lon="1.40076">
        <ele>121</ele>
        <time>2024-11-05T18:04:34Z</time>
      </trkpt>
      <trkpt lat="43.64066" lon="1.40074">
        <ele>121</ele>
        <time>2024-11-05T18:04:35Z</time>
      </trkpt>
      <trkpt lat="43.64068" lon="1.40072">
        <ele>121</ele>
        <time>2024-11-05T18:04:36Z</time>
      </trkpt>
      <trkpt lat="43.6407" lon="1.40071">
        <ele>121</ele>
        <time>2024-11-05T18:04:37Z</time>
      </trkpt>
      <trkpt lat="43.64072" lon="1.40069">
        <ele>121</ele>
        <time>2024-11-05T18:04:38Z</time>
      </trkpt>
      <trkpt lat="43.64074" lon="1.40067">
        <ele>122</ele>
        <time>2024-11-05T18:04:39Z</time>
      </trkpt>
      <trkpt lat="43.64075" lon="1.40065">
        <ele>122</ele>
        <time>2024-11-05T18:04:40Z</time>
      </trkpt>
      <trkpt lat="43.64077" lon="1.40063">
        <ele>122</ele>
        <time>2024-11-05T18:04:41Z</time>
      </trkpt>
      <trkpt lat="43.64079" lon="1.40061">
        <ele>122</ele>
        <time>2024-11-05T18:04:42Z</time>
      </trkpt>
      <trkpt lat="43.6408" lon="1.40059">
        <ele>122</ele>
        <time>2024-11-05T18:04:43Z</time>
      </trkpt>
      <trkpt lat="43.64082" lon="1.40057">
        <ele>121</ele>
        <time>2024-11-05T18:04:44Z</time>
      </trkpt>
      <trkpt lat="43.64083" lon="1.40055">
        <ele>121</ele>
        <time>2024-11-05T18:04:45Z</time>
      </trkpt>
      <trkpt lat="43.64083" lon="1.40055">
        <ele>121</ele>
        <time>2024-11-05T18:04:46Z</time>
      </trkpt>
      <trkpt lat="43.64087" lon="1.40051">
        <ele>121</ele>
        <time>2024-11-05T18:04:47Z</time>
      </trkpt>
      <trkpt lat="43.64088" lon="1.40048">
        <ele>121</ele>
        <time>2024-11-05T18:04:48Z</time>
      </trkpt>
      <trkpt lat="43.6409" lon="1.40046">
        <ele>121</ele>
        <time>2024-11-05T18:04:49Z</time>
      </trkpt>
      <trkpt lat="43.6409" lon="1.40046">
        <ele>122</ele>
        <time>2024-11-05T18:04:50Z</time>
      </trkpt>
      <trkpt lat="43.64092" lon="1.40042">
        <ele>122</ele>
        <time>2024-11-05T18:04:51Z</time>
      </trkpt>
      <trkpt lat="43.64093" lon="1.4004">
        <ele>122</ele>
        <time>2024-11-05T18:04:52Z</time>
      </trkpt>
      <trkpt lat="43.64094" lon="1.40037">
        <ele>122</ele>
        <time>2024-11-05T18:04:53Z</time>
      </trkpt>
      <trkpt lat="43.64095" lon="1.40035">
        <ele>122</ele>
        <time>2024-11-05T18:04:54Z</time>
      </trkpt>
      <trkpt lat="43.64097" lon="1.40032">
        <ele>121</ele>
        <time>2024-11-05T18:04:55Z</time>
      </trkpt>
      <trkpt lat="43.64098" lon="1.40029">
        <ele>121</ele>
        <time>2024-11-05T18:04:56Z</time>
      </trkpt>
      <trkpt lat="43.64099" lon="1.40026">
        <ele>121</ele>
        <time>2024-11-05T18:04:57Z</time>
      </trkpt>
      <trkpt lat="43.641" lon="1.40024">
        <ele>121</ele>
        <time>2024-11-05T18:04:58Z</time>
      </trkpt>
      <trkpt lat="43.64101" lon="1.40021">
        <ele>121</ele>
        <time>2024-11-05T18:04:59Z</time>
      </trkpt>
      <trkpt lat="43.64102" lon="1.40019">
        <ele>121</ele>
        <time>2024-11-05T18:05:00Z</time>
      </trkpt>
      <trkpt lat="43.64103" lon="1.40016">
        <ele>121</ele>
        <time>2024-11-05T18:05:01Z</time>
      </trkpt>
      <trkpt lat="43.64104" lon="1.40014">
        <ele>121</ele>
        <time>2024-11-05T18:05:02Z</time>
      </trkpt>
      <trkpt lat="43.64105" lon="1.40012">
        <ele>121</ele>
        <time>2024-11-05T18:05:03Z</time>
      </trkpt>
      <trkpt lat="43.64106" lon="1.40009">
        <ele>121</ele>
        <time>2024-11-05T18:05:04Z</time>
      </trkpt>
      <trkpt lat="43.64107" lon="1.40007">
        <ele>121</ele>
        <time>2024-11-05T18:05:05Z</time>
      </trkpt>
      <trkpt lat="43.64109" lon="1.40004">
        <ele>121</ele>
        <time>2024-11-05T18:05:06Z</time>
      </trkpt>
      <trkpt lat="43.6411" lon="1.40002">
        <ele>121</ele>
        <time>2024-11-05T18:05:07Z</time>
      </trkpt>
      <trkpt lat="43.64111" lon="1.39999">
        <ele>121</ele>
        <time>2024-11-05T18:05:08Z</time>
      </trkpt>
      <trkpt lat="43.64111" lon="1.39999">
        <ele>121</ele>
        <time>2024-11-05T18:05:09Z</time>
      </trkpt>
      <trkpt lat="43.64113" lon="1.39995">
        <ele>121</ele>
        <time>2024-11-05T18:05:10Z</time>
      </trkpt>
      <trkpt lat="43.64113" lon="1.39995">
        <ele>121</ele>
        <time>2024-11-05T18:05:11Z</time>
      </trkpt>
      <trkpt lat="43.64115" lon="1.39989">
        <ele>121</ele>
        <time>2024-11-05T18:05:12Z</time>
      </trkpt>
      <trkpt lat="43.64115" lon="1.39987">
        <ele>121</ele>
        <time>2024-11-05T18:05:13Z</time>
      </trkpt>
      <trkpt lat="43.64118" lon="1.39985">
        <ele>121</ele>
        <time>2024-11-05T18:05:14Z</time>
      </trkpt>
      <trkpt lat="43.6412" lon="1.39984">
        <ele>121</ele>
        <time>2024-11-05T18:05:15Z</time>
      </trkpt>
      <trkpt lat="43.64122" lon="1.39983">
        <ele>121</ele>
        <time>2024-11-05T18:05:16Z</time>
      </trkpt>
      <trkpt lat="43.64125" lon="1.39983">
        <ele>121</ele>
        <time>2024-11-05T18:05:17Z</time>
      </trkpt>
      <trkpt lat="43.64127" lon="1.39982">
        <ele>120</ele>
        <time>2024-11-05T18:05:18Z</time>
      </trkpt>
      <trkpt lat="43.64129" lon="1.39982">
        <ele>120</ele>
        <time>2024-11-05T18:05:19Z</time>
      </trkpt>
      <trkpt lat="43.64132" lon="1.39981">
        <ele>120</ele>
        <time>2024-11-05T18:05:20Z</time>
      </trkpt>
      <trkpt lat="43.64134" lon="1.39981">
        <ele>120</ele>
        <time>2024-11-05T18:05:21Z</time>
      </trkpt>
      <trkpt lat="43.64137" lon="1.3998">
        <ele>120</ele>
        <time>2024-11-05T18:05:22Z</time>
      </trkpt>
      <trkpt lat="43.64139" lon="1.39979">
        <ele>120</ele>
        <time>2024-11-05T18:05:23Z</time>
      </trkpt>
      <trkpt lat="43.64142" lon="1.39978">
        <ele>120</ele>
        <time>2024-11-05T18:05:24Z</time>
      </trkpt>
      <trkpt lat="43.64144" lon="1.39977">
        <ele>120</ele>
        <time>2024-11-05T18:05:25Z</time>
      </trkpt>
      <trkpt lat="43.64147" lon="1.39976">
        <ele>120</ele>
        <time>2024-11-05T18:05:26Z</time>
      </trkpt>
      <trkpt lat="43.64149" lon="1.39976">
        <ele>120</ele>
        <time>2024-11-05T18:05:27Z</time>
      </trkpt>
      <trkpt lat="43.64151" lon="1.39975">
        <ele>119</ele>
        <time>2024-11-05T18:05:28Z</time>
      </trkpt>
      <trkpt lat="43.64154" lon="1.39974">
        <ele>119</ele>
        <time>2024-11-05T18:05:29Z</time>
      </trkpt>
      <trkpt lat="43.64156" lon="1.39973">
        <ele>119</ele>
        <time>2024-11-05T18:05:30Z</time>
      </trkpt>
      <trkpt lat="43.64159" lon="1.39972">
        <ele>119</ele>
        <time>2024-11-05T18:05:31Z</time>
      </trkpt>
      <trkpt lat="43.64161" lon="1.39971">
        <ele>119</ele>
        <time>2024-11-05T18:05:32Z</time>
      </trkpt>
      <trkpt lat="43.64163" lon="1.39971">
        <ele>119</ele>
        <time>2024-11-05T18:05:33Z</time>
      </trkpt>
      <trkpt lat="43.64165" lon="1.3997">
        <ele>119</ele>
        <time>2024-11-05T18:05:34Z</time>
      </trkpt>
      <trkpt lat="43.64167" lon="1.3997">
        <ele>119</ele>
        <time>2024-11-05T18:05:35Z</time>
      </trkpt>
      <trkpt lat="43.64169" lon="1.39969">
        <ele>119</ele>
        <time>2024-11-05T18:05:36Z</time>
      </trkpt>
      <trkpt lat="43.64171" lon="1.39969">
        <ele>120</ele>
        <time>2024-11-05T18:05:37Z</time>
      </trkpt>
      <trkpt lat="43.64173" lon="1.39969">
        <ele>120</ele>
        <time>2024-11-05T18:05:38Z</time>
      </trkpt>
      <trkpt lat="43.64175" lon="1.39968">
        <ele>120</ele>
        <time>2024-11-05T18:05:39Z</time>
      </trkpt>
      <trkpt lat="43.64177" lon="1.39968">
        <ele>120</ele>
        <time>2024-11-05T18:05:40Z</time>
      </trkpt>
      <trkpt lat="43.64179" lon="1.39968">
        <ele>120</ele>
        <time>2024-11-05T18:05:41Z</time>
      </trkpt>
      <trkpt lat="43.64181" lon="1.39967">
        <ele>120</ele>
        <time>2024-11-05T18:05:42Z</time>
      </trkpt>
      <trkpt lat="43.64184" lon="1.39967">
        <ele>120</ele>
        <time>2024-11-05T18:05:43Z</time>
      </trkpt>
      <trkpt lat="43.64186" lon="1.39966">
        <ele>120</ele>
        <time>2024-11-05T18:05:44Z</time>
      </trkpt>
      <trkpt lat="43.64188" lon="1.39965">
        <ele>120</ele>
        <time>2024-11-05T18:05:45Z</time>
      </trkpt>
      <trkpt lat="43.6419" lon="1.39964">
        <ele>120</ele>
        <time>2024-11-05T18:05:46Z</time>
      </trkpt>
      <trkpt lat="43.64192" lon="1.39963">
        <ele>120</ele>
        <time>2024-11-05T18:05:47Z</time>
      </trkpt>
      <trkpt lat="43.64195" lon="1.39962">
        <ele>120</ele>
        <time>2024-11-05T18:05:48Z</time>
      </trkpt>
      <trkpt lat="43.64197" lon="1.39961">
        <ele>120</ele>
        <time>2024-11-05T18:05:49Z</time>
      </trkpt>
      <trkpt lat="43.64199" lon="1.39959">
        <ele>120</ele>
        <time>2024-11-05T18:05:50Z</time>
      </trkpt>
      <trkpt lat="43.64201" lon="1.39958">
        <ele>120</ele>
        <time>2024-11-05T18:05:51Z</time>
      </trkpt>
      <trkpt lat="43.64203" lon="1.39956">
        <ele>120</ele>
        <time>2024-11-05T18:05:52Z</time>
      </trkpt>
      <trkpt lat="43.64205" lon="1.39955">
        <ele>120</ele>
        <time>2024-11-05T18:05:53Z</time>
      </trkpt>
      <trkpt lat="43.64206" lon="1.39953">
        <ele>120</ele>
        <time>2024-11-05T18:05:54Z</time>
      </trkpt>
      <trkpt lat="43.64208" lon="1.39951">
        <ele>120</ele>
        <time>2024-11-05T18:05:55Z</time>
      </trkpt>
      <trkpt lat="43.6421" lon="1.39948">
        <ele>120</ele>
        <time>2024-11-05T18:05:56Z</time>
      </trkpt>
      <trkpt lat="43.6421" lon="1.39948">
        <ele>120</ele>
        <time>2024-11-05T18:05:57Z</time>
      </trkpt>
      <trkpt lat="43.64213" lon="1.39944">
        <ele>120</ele>
        <time>2024-11-05T18:05:58Z</time>
      </trkpt>
      <trkpt lat="43.64215" lon="1.39942">
        <ele>119</ele>
        <time>2024-11-05T18:05:59Z</time>
      </trkpt>
      <trkpt lat="43.64216" lon="1.3994">
        <ele>119</ele>
        <time>2024-11-05T18:06:00Z</time>
      </trkpt>
      <trkpt lat="43.64218" lon="1.39939">
        <ele>119</ele>
        <time>2024-11-05T18:06:01Z</time>
      </trkpt>
      <trkpt lat="43.64219" lon="1.39937">
        <ele>119</ele>
        <time>2024-11-05T18:06:02Z</time>
      </trkpt>
      <trkpt lat="43.64221" lon="1.39936">
        <ele>119</ele>
        <time>2024-11-05T18:06:03Z</time>
      </trkpt>
      <trkpt lat="43.64223" lon="1.39934">
        <ele>119</ele>
        <time>2024-11-05T18:06:04Z</time>
      </trkpt>
      <trkpt lat="43.64225" lon="1.39932">
        <ele>120</ele>
        <time>2024-11-05T18:06:05Z</time>
      </trkpt>
      <trkpt lat="43.64227" lon="1.39931">
        <ele>120</ele>
        <time>2024-11-05T18:06:06Z</time>
      </trkpt>
      <trkpt lat="43.64229" lon="1.39929">
        <ele>120</ele>
        <time>2024-11-05T18:06:07Z</time>
      </trkpt>
      <trkpt lat="43.64229" lon="1.39929">
        <ele>120</ele>
        <time>2024-11-05T18:06:08Z</time>
      </trkpt>
      <trkpt lat="43.64232" lon="1.39927">
        <ele>120</ele>
        <time>2024-11-05T18:06:09Z</time>
      </trkpt>
      <trkpt lat="43.64235" lon="1.39926">
        <ele>120</ele>
        <time>2024-11-05T18:06:10Z</time>
      </trkpt>
      <trkpt lat="43.64237" lon="1.39925">
        <ele>120</ele>
        <time>2024-11-05T18:06:11Z</time>
      </trkpt>
      <trkpt lat="43.6424" lon="1.39924">
        <ele>120</ele>
        <time>2024-11-05T18:06:12Z</time>
      </trkpt>
      <trkpt lat="43.64242" lon="1.39923">
        <ele>120</ele>
        <time>2024-11-05T18:06:13Z</time>
      </trkpt>
      <trkpt lat="43.64244" lon="1.39923">
        <ele>120</ele>
        <time>2024-11-05T18:06:14Z</time>
      </trkpt>
      <trkpt lat="43.64246" lon="1.39922">
        <ele>120</ele>
        <time>2024-11-05T18:06:15Z</time>
      </trkpt>
      <trkpt lat="43.64249" lon="1.39922">
        <ele>120</ele>
        <time>2024-11-05T18:06:16Z</time>
      </trkpt>
      <trkpt lat="43.64251" lon="1.39922">
        <ele>120</ele>
        <time>2024-11-05T18:06:17Z</time>
      </trkpt>
      <trkpt lat="43.64254" lon="1.39922">
        <ele>120</ele>
        <time>2024-11-05T18:06:18Z</time>
      </trkpt>
      <trkpt lat="43.64254" lon="1.39922">
        <ele>120</ele>
        <time>2024-11-05T18:06:19Z</time>
      </trkpt>
      <trkpt lat="43.64259" lon="1.39922">
        <ele>120</ele>
        <time>2024-11-05T18:06:20Z</time>
      </trkpt>
      <trkpt lat="43.64259" lon="1.39922">
        <ele>120</ele>
        <time>2024-11-05T18:06:21Z</time>
      </trkpt>
      <trkpt lat="43.64264" lon="1.39922">
        <ele>120</ele>
        <time>2024-11-05T18:06:22Z</time>
      </trkpt>
      <trkpt lat="43.64266" lon="1.39922">
        <ele>120</ele>
        <time>2024-11-05T18:06:23Z</time>
      </trkpt>
      <trkpt lat="43.64268" lon="1.39922">
        <ele>120</ele>
        <time>2024-11-05T18:06:24Z</time>
      </trkpt>
      <trkpt lat="43.64271" lon="1.39922">
        <ele>120</ele>
        <time>2024-11-05T18:06:25Z</time>
      </trkpt>
      <trkpt lat="43.64273" lon="1.39922">
        <ele>120</ele>
        <time>2024-11-05T18:06:26Z</time>
      </trkpt>
      <trkpt lat="43.64275" lon="1.39922">
        <ele>120</ele>
        <time>2024-11-05T18:06:27Z</time>
      </trkpt>
      <trkpt lat="43.64277" lon="1.39922">
        <ele>120</ele>
        <time>2024-11-05T18:06:28Z</time>
      </trkpt>
      <trkpt lat="43.6428" lon="1.39922">
        <ele>120</ele>
        <time>2024-11-05T18:06:29Z</time>
      </trkpt>
      <trkpt lat="43.64282" lon="1.39922">
        <ele>120</ele>
        <time>2024-11-05T18:06:30Z</time>
      </trkpt>
      <trkpt lat="43.64284" lon="1.39923">
        <ele>120</ele>
        <time>2024-11-05T18:06:31Z</time>
      </trkpt>
      <trkpt lat="43.64286" lon="1.39924">
        <ele>120</ele>
        <time>2024-11-05T18:06:32Z</time>
      </trkpt>
      <trkpt lat="43.64289" lon="1.39924">
        <ele>120</ele>
        <time>2024-11-05T18:06:33Z</time>
      </trkpt>
      <trkpt lat="43.64291" lon="1.39925">
        <ele>120</ele>
        <time>2024-11-05T18:06:34Z</time>
      </trkpt>
      <trkpt lat="43.64293" lon="1.39926">
        <ele>120</ele>
        <time>2024-11-05T18:06:35Z</time>
      </trkpt>
      <trkpt lat="43.64295" lon="1.39927">
        <ele>120</ele>
        <time>2024-11-05T18:06:36Z</time>
      </trkpt>
      <trkpt lat="43.64297" lon="1.39927">
        <ele>120</ele>
        <time>2024-11-05T18:06:37Z</time>
      </trkpt>
      <trkpt lat="43.64299" lon="1.39928">
        <ele>120</ele>
        <time>2024-11-05T18:06:38Z</time>
      </trkpt>
      <trkpt lat="43.64301" lon="1.39929">
        <ele>120</ele>
        <time>2024-11-05T18:06:39Z</time>
      </trkpt>
      <trkpt lat="43.64301" lon="1.39929">
        <ele>120</ele>
        <time>2024-11-05T18:06:40Z</time>
      </trkpt>
      <trkpt lat="43.64306" lon="1.39932">
        <ele>120</ele>
        <time>2024-11-05T18:06:41Z</time>
      </trkpt>
      <trkpt lat="43.64308" lon="1.39933">
        <ele>120</ele>
        <time>2024-11-05T18:06:42Z</time>
      </trkpt>
      <trkpt lat="43.64311" lon="1.39933">
        <ele>120</ele>
        <time>2024-11-05T18:06:43Z</time>
      </trkpt>
      <trkpt lat="43.64313" lon="1.39934">
        <ele>119</ele>
        <time>2024-11-05T18:06:44Z</time>
      </trkpt>
      <trkpt lat="43.64315" lon="1.39935">
        <ele>120</ele>
        <time>2024-11-05T18:06:45Z</time>
      </trkpt>
      <trkpt lat="43.64318" lon="1.39936">
        <ele>120</ele>
        <time>2024-11-05T18:06:46Z</time>
      </trkpt>
      <trkpt lat="43.6432" lon="1.39936">
        <ele>120</ele>
        <time>2024-11-05T18:06:47Z</time>
      </trkpt>
      <trkpt lat="43.64322" lon="1.39937">
        <ele>120</ele>
        <time>2024-11-05T18:06:48Z</time>
      </trkpt>
      <trkpt lat="43.64325" lon="1.39938">
        <ele>120</ele>
        <time>2024-11-05T18:06:49Z</time>
      </trkpt>
      <trkpt lat="43.64327" lon="1.39938">
        <ele>120</ele>
        <time>2024-11-05T18:06:50Z</time>
      </trkpt>
      <trkpt lat="43.6433" lon="1.39938">
        <ele>120</ele>
        <time>2024-11-05T18:06:51Z</time>
      </trkpt>
      <trkpt lat="43.64332" lon="1.39939">
        <ele>120</ele>
        <time>2024-11-05T18:06:52Z</time>
      </trkpt>
      <trkpt lat="43.64334" lon="1.39939">
        <ele>120</ele>
        <time>2024-11-05T18:06:53Z</time>
      </trkpt>
      <trkpt lat="43.64336" lon="1.3994">
        <ele>120</ele>
        <time>2024-11-05T18:06:54Z</time>
      </trkpt>
      <trkpt lat="43.64339" lon="1.39941">
        <ele>120</ele>
        <time>2024-11-05T18:06:55Z</time>
      </trkpt>
      <trkpt lat="43.64341" lon="1.39941">
        <ele>120</ele>
        <time>2024-11-05T18:06:56Z</time>
      </trkpt>
      <trkpt lat="43.64343" lon="1.39942">
        <ele>120</ele>
        <time>2024-11-05T18:06:57Z</time>
      </trkpt>
      <trkpt lat="43.64346" lon="1.39942">
        <ele>120</ele>
        <time>2024-11-05T18:06:58Z</time>
      </trkpt>
      <trkpt lat="43.64346" lon="1.39942">
        <ele>120</ele>
        <time>2024-11-05T18:06:59Z</time>
      </trkpt>
      <trkpt lat="43.6435" lon="1.39944">
        <ele>120</ele>
        <time>2024-11-05T18:07:00Z</time>
      </trkpt>
      <trkpt lat="43.64352" lon="1.39945">
        <ele>120</ele>
        <time>2024-11-05T18:07:01Z</time>
      </trkpt>
      <trkpt lat="43.64352" lon="1.39945">
        <ele>120</ele>
        <time>2024-11-05T18:07:02Z</time>
      </trkpt>
      <trkpt lat="43.64357" lon="1.39946">
        <ele>120</ele>
        <time>2024-11-05T18:07:03Z</time>
      </trkpt>
      <trkpt lat="43.64359" lon="1.39947">
        <ele>120</ele>
        <time>2024-11-05T18:07:04Z</time>
      </trkpt>
      <trkpt lat="43.64361" lon="1.39947">
        <ele>120</ele>
        <time>2024-11-05T18:07:05Z</time>
      </trkpt>
      <trkpt lat="43.64363" lon="1.39948">
        <ele>120</ele>
        <time>2024-11-05T18:07:06Z</time>
      </trkpt>
      <trkpt lat="43.64366" lon="1.39948">
        <ele>120</ele>
        <time>2024-11-05T18:07:07Z</time>
      </trkpt>
      <trkpt lat="43.64368" lon="1.39949">
        <ele>120</ele>
        <time>2024-11-05T18:07:08Z</time>
      </trkpt>
      <trkpt lat="43.64371" lon="1.39949">
        <ele>120</ele>
        <time>2024-11-05T18:07:09Z</time>
      </trkpt>
      <trkpt lat="43.64373" lon="1.39949">
        <ele>120</ele>
        <time>2024-11-05T18:07:10Z</time>
      </trkpt>
      <trkpt lat="43.64376" lon="1.3995">
        <ele>120</ele>
        <time>2024-11-05T18:07:11Z</time>
      </trkpt>
      <trkpt lat="43.64379" lon="1.3995">
        <ele>120</ele>
        <time>2024-11-05T18:07:12Z</time>
      </trkpt>
      <trkpt lat="43.64381" lon="1.3995">
        <ele>120</ele>
        <time>2024-11-05T18:07:13Z</time>
      </trkpt>
      <trkpt lat="43.64384" lon="1.39951">
        <ele>120</ele>
        <time>2024-11-05T18:07:14Z</time>
      </trkpt>
      <trkpt lat="43.64386" lon="1.39951">
        <ele>120</ele>
        <time>2024-11-05T18:07:15Z</time>
      </trkpt>
      <trkpt lat="43.64389" lon="1.39951">
        <ele>120</ele>
        <time>2024-11-05T18:07:16Z</time>
      </trkpt>
      <trkpt lat="43.64391" lon="1.39952">
        <ele>120</ele>
        <time>2024-11-05T18:07:17Z</time>
      </trkpt>
      <trkpt lat="43.64393" lon="1.39952">
        <ele>120</ele>
        <time>2024-11-05T18:07:18Z</time>
      </trkpt>
      <trkpt lat="43.64396" lon="1.39951">
        <ele>120</ele>
        <time>2024-11-05T18:07:19Z</time>
      </trkpt>
      <trkpt lat="43.64398" lon="1.39951">
        <ele>120</ele>
        <time>2024-11-05T18:07:20Z</time>
      </trkpt>
      <trkpt lat="43.644" lon="1.39952">
        <ele>120</ele>
        <time>2024-11-05T18:07:21Z</time>
      </trkpt>
      <trkpt lat="43.644" lon="1.39952">
        <ele>120</ele>
        <time>2024-11-05T18:07:22Z</time>
      </trkpt>
      <trkpt lat="43.64405" lon="1.39951">
        <ele>120</ele>
        <time>2024-11-05T18:07:23Z</time>
      </trkpt>
      <trkpt lat="43.64407" lon="1.39951">
        <ele>120</ele>
        <time>2024-11-05T18:07:24Z</time>
      </trkpt>
      <trkpt lat="43.64409" lon="1.39952">
        <ele>120</ele>
        <time>2024-11-05T18:07:25Z</time>
      </trkpt>
      <trkpt lat="43.64411" lon="1.39952">
        <ele>120</ele>
        <time>2024-11-05T18:07:26Z</time>
      </trkpt>
      <trkpt lat="43.64413" lon="1.39952">
        <ele>120</ele>
        <time>2024-11-05T18:07:27Z</time>
      </trkpt>
      <trkpt lat="43.64415" lon="1.39953">
        <ele>120</ele>
        <time>2024-11-05T18:07:28Z</time>
      </trkpt>
      <trkpt lat="43.64418" lon="1.39953">
        <ele>120</ele>
        <time>2024-11-05T18:07:29Z</time>
      </trkpt>
      <trkpt lat="43.6442" lon="1.39953">
        <ele>120</ele>
        <time>2024-11-05T18:07:30Z</time>
      </trkpt>
      <trkpt lat="43.64422" lon="1.39953">
        <ele>120</ele>
        <time>2024-11-05T18:07:31Z</time>
      </trkpt>
      <trkpt lat="43.64424" lon="1.39953">
        <ele>120</ele>
        <time>2024-11-05T18:07:32Z</time>
      </trkpt>
      <trkpt lat="43.64427" lon="1.39953">
        <ele>120</ele>
        <time>2024-11-05T18:07:33Z</time>
      </trkpt>
      <trkpt lat="43.64429" lon="1.39953">
        <ele>120</ele>
        <time>2024-11-05T18:07:34Z</time>
      </trkpt>
      <trkpt lat="43.64431" lon="1.39953">
        <ele>120</ele>
        <time>2024-11-05T18:07:35Z</time>
      </trkpt>
      <trkpt lat="43.64434" lon="1.39953">
        <ele>120</ele>
        <time>2024-11-05T18:07:36Z</time>
      </trkpt>
      <trkpt lat="43.64436" lon="1.39953">
        <ele>120</ele>
        <time>2024-11-05T18:07:37Z</time>
      </trkpt>
      <trkpt lat="43.64438" lon="1.39953">
        <ele>120</ele>
        <time>2024-11-05T18:07:38Z</time>
      </trkpt>
      <trkpt lat="43.64441" lon="1.39953">
        <ele>120</ele>
        <time>2024-11-05T18:07:39Z</time>
      </trkpt>
      <trkpt lat="43.64443" lon="1.39954">
        <ele>120</ele>
        <time>2024-11-05T18:07:40Z</time>
      </trkpt>
      <trkpt lat="43.64445" lon="1.39954">
        <ele>120</ele>
        <time>2024-11-05T18:07:41Z</time>
      </trkpt>
      <trkpt lat="43.64448" lon="1.39954">
        <ele>120</ele>
        <time>2024-11-05T18:07:42Z</time>
      </trkpt>
      <trkpt lat="43.6445" lon="1.39954">
        <ele>120</ele>
        <time>2024-11-05T18:07:43Z</time>
      </trkpt>
      <trkpt lat="43.64452" lon="1.39954">
        <ele>120</ele>
        <time>2024-11-05T18:07:44Z</time>
      </trkpt>
      <trkpt lat="43.64455" lon="1.39954">
        <ele>120</ele>
        <time>2024-11-05T18:07:45Z</time>
      </trkpt>
      <trkpt lat="43.64457" lon="1.39955">
        <ele>120</ele>
        <time>2024-11-05T18:07:46Z</time>
      </trkpt>
      <trkpt lat="43.6446" lon="1.39955">
        <ele>120</ele>
        <time>2024-11-05T18:07:47Z</time>
      </trkpt>
      <trkpt lat="43.64462" lon="1.39955">
        <ele>120</ele>
        <time>2024-11-05T18:07:48Z</time>
      </trkpt>
      <trkpt lat="43.64464" lon="1.39955">
        <ele>121</ele>
        <time>2024-11-05T18:07:49Z</time>
      </trkpt>
      <trkpt lat="43.64467" lon="1.39954">
        <ele>121</ele>
        <time>2024-11-05T18:07:50Z</time>
      </trkpt>
      <trkpt lat="43.64469" lon="1.39954">
        <ele>121</ele>
        <time>2024-11-05T18:07:51Z</time>
      </trkpt>
      <trkpt lat="43.64471" lon="1.39954">
        <ele>121</ele>
        <time>2024-11-05T18:07:52Z</time>
      </trkpt>
      <trkpt lat="43.64473" lon="1.39953">
        <ele>121</ele>
        <time>2024-11-05T18:07:53Z</time>
      </trkpt>
      <trkpt lat="43.64476" lon="1.39952">
        <ele>121</ele>
        <time>2024-11-05T18:07:54Z</time>
      </trkpt>
      <trkpt lat="43.64478" lon="1.39951">
        <ele>121</ele>
        <time>2024-11-05T18:07:55Z</time>
      </trkpt>
      <trkpt lat="43.6448" lon="1.39951">
        <ele>121</ele>
        <time>2024-11-05T18:07:56Z</time>
      </trkpt>
      <trkpt lat="43.64482" lon="1.3995">
        <ele>121</ele>
        <time>2024-11-05T18:07:57Z</time>
      </trkpt>
      <trkpt lat="43.64484" lon="1.3995">
        <ele>121</ele>
        <time>2024-11-05T18:07:58Z</time>
      </trkpt>
      <trkpt lat="43.64486" lon="1.3995">
        <ele>121</ele>
        <time>2024-11-05T18:07:59Z</time>
      </trkpt>
      <trkpt lat="43.64488" lon="1.39949">
        <ele>122</ele>
        <time>2024-11-05T18:08:00Z</time>
      </trkpt>
      <trkpt lat="43.64491" lon="1.39948">
        <ele>122</ele>
        <time>2024-11-05T18:08:01Z</time>
      </trkpt>
      <trkpt lat="43.64493" lon="1.39947">
        <ele>122</ele>
        <time>2024-11-05T18:08:02Z</time>
      </trkpt>
      <trkpt lat="43.64495" lon="1.39947">
        <ele>122</ele>
        <time>2024-11-05T18:08:03Z</time>
      </trkpt>
      <trkpt lat="43.64497" lon="1.39946">
        <ele>122</ele>
        <time>2024-11-05T18:08:04Z</time>
      </trkpt>
      <trkpt lat="43.64499" lon="1.39945">
        <ele>122</ele>
        <time>2024-11-05T18:08:05Z</time>
      </trkpt>
      <trkpt lat="43.64501" lon="1.39944">
        <ele>122</ele>
        <time>2024-11-05T18:08:06Z</time>
      </trkpt>
      <trkpt lat="43.64501" lon="1.39944">
        <ele>122</ele>
        <time>2024-11-05T18:08:07Z</time>
      </trkpt>
      <trkpt lat="43.64504" lon="1.3994">
        <ele>122</ele>
        <time>2024-11-05T18:08:08Z</time>
      </trkpt>
      <trkpt lat="43.64505" lon="1.39938">
        <ele>122</ele>
        <time>2024-11-05T18:08:09Z</time>
      </trkpt>
      <trkpt lat="43.64505" lon="1.39938">
        <ele>122</ele>
        <time>2024-11-05T18:08:10Z</time>
      </trkpt>
      <trkpt lat="43.64505" lon="1.39934">
        <ele>122</ele>
        <time>2024-11-05T18:08:11Z</time>
      </trkpt>
      <trkpt lat="43.64505" lon="1.39934">
        <ele>122</ele>
        <time>2024-11-05T18:08:12Z</time>
      </trkpt>
      <trkpt lat="43.64504" lon="1.3993">
        <ele>122</ele>
        <time>2024-11-05T18:08:13Z</time>
      </trkpt>
      <trkpt lat="43.64504" lon="1.3993">
        <ele>122</ele>
        <time>2024-11-05T18:08:14Z</time>
      </trkpt>
      <trkpt lat="43.64502" lon="1.39927">
        <ele>122</ele>
        <time>2024-11-05T18:08:15Z</time>
      </trkpt>
      <trkpt lat="43.64502" lon="1.39927">
        <ele>122</ele>
        <time>2024-11-05T18:08:16Z</time>
      </trkpt>
      <trkpt lat="43.645" lon="1.39924">
        <ele>122</ele>
        <time>2024-11-05T18:08:17Z</time>
      </trkpt>
      <trkpt lat="43.645" lon="1.39924">
        <ele>122</ele>
        <time>2024-11-05T18:08:18Z</time>
      </trkpt>
      <trkpt lat="43.64498" lon="1.39922">
        <ele>122</ele>
        <time>2024-11-05T18:08:19Z</time>
      </trkpt>
      <trkpt lat="43.64497" lon="1.3992">
        <ele>122</ele>
        <time>2024-11-05T18:08:20Z</time>
      </trkpt>
      <trkpt lat="43.64496" lon="1.39916">
        <ele>122</ele>
        <time>2024-11-05T18:08:21Z</time>
      </trkpt>
      <trkpt lat="43.64495" lon="1.39913">
        <ele>122</ele>
        <time>2024-11-05T18:08:22Z</time>
      </trkpt>
      <trkpt lat="43.64495" lon="1.3991">
        <ele>122</ele>
        <time>2024-11-05T18:08:23Z</time>
      </trkpt>
      <trkpt lat="43.64495" lon="1.39907">
        <ele>122</ele>
        <time>2024-11-05T18:08:24Z</time>
      </trkpt>
      <trkpt lat="43.64494" lon="1.39904">
        <ele>122</ele>
        <time>2024-11-05T18:08:25Z</time>
      </trkpt>
      <trkpt lat="43.64494" lon="1.39901">
        <ele>122</ele>
        <time>2024-11-05T18:08:26Z</time>
      </trkpt>
      <trkpt lat="43.64494" lon="1.39898">
        <ele>122</ele>
        <time>2024-11-05T18:08:27Z</time>
      </trkpt>
      <trkpt lat="43.64494" lon="1.39895">
        <ele>122</ele>
        <time>2024-11-05T18:08:28Z</time>
      </trkpt>
      <trkpt lat="43.64493" lon="1.39892">
        <ele>122</ele>
        <time>2024-11-05T18:08:29Z</time>
      </trkpt>
      <trkpt lat="43.64493" lon="1.39889">
        <ele>122</ele>
        <time>2024-11-05T18:08:30Z</time>
      </trkpt>
      <trkpt lat="43.64494" lon="1.39886">
        <ele>122</ele>
        <time>2024-11-05T18:08:31Z</time>
      </trkpt>
      <trkpt lat="43.64494" lon="1.39883">
        <ele>122</ele>
        <time>2024-11-05T18:08:32Z</time>
      </trkpt>
      <trkpt lat="43.64493" lon="1.3988">
        <ele>122</ele>
        <time>2024-11-05T18:08:33Z</time>
      </trkpt>
      <trkpt lat="43.64493" lon="1.39877">
        <ele>122</ele>
        <time>2024-11-05T18:08:34Z</time>
      </trkpt>
      <trkpt lat="43.64493" lon="1.39874">
        <ele>122</ele>
        <time>2024-11-05T18:08:35Z</time>
      </trkpt>
      <trkpt lat="43.64493" lon="1.39872">
        <ele>122</ele>
        <time>2024-11-05T18:08:36Z</time>
      </trkpt>
      <trkpt lat="43.64493" lon="1.39869">
        <ele>122</ele>
        <time>2024-11-05T18:08:37Z</time>
      </trkpt>
      <trkpt lat="43.64493" lon="1.39866">
        <ele>122</ele>
        <time>2024-11-05T18:08:38Z</time>
      </trkpt>
      <trkpt lat="43.64493" lon="1.39863">
        <ele>122</ele>
        <time>2024-11-05T18:08:39Z</time>
      </trkpt>
      <trkpt lat="43.64493" lon="1.3986">
        <ele>122</ele>
        <time>2024-11-05T18:08:40Z</time>
      </trkpt>
      <trkpt lat="43.64493" lon="1.39857">
        <ele>122</ele>
        <time>2024-11-05T18:08:41Z</time>
      </trkpt>
      <trkpt lat="43.64493" lon="1.39854">
        <ele>122</ele>
        <time>2024-11-05T18:08:42Z</time>
      </trkpt>
      <trkpt lat="43.64493" lon="1.39851">
        <ele>122</ele>
        <time>2024-11-05T18:08:43Z</time>
      </trkpt>
      <trkpt lat="43.64493" lon="1.39848">
        <ele>122</ele>
        <time>2024-11-05T18:08:44Z</time>
      </trkpt>
      <trkpt lat="43.64493" lon="1.39845">
        <ele>123</ele>
        <time>2024-11-05T18:08:45Z</time>
      </trkpt>
      <trkpt lat="43.64493" lon="1.39841">
        <ele>123</ele>
        <time>2024-11-05T18:08:46Z</time>
      </trkpt>
      <trkpt lat="43.64493" lon="1.39838">
        <ele>122</ele>
        <time>2024-11-05T18:08:47Z</time>
      </trkpt>
      <trkpt lat="43.64493" lon="1.39835">
        <ele>122</ele>
        <time>2024-11-05T18:08:48Z</time>
      </trkpt>
      <trkpt lat="43.64493" lon="1.39831">
        <ele>122</ele>
        <time>2024-11-05T18:08:49Z</time>
      </trkpt>
      <trkpt lat="43.64493" lon="1.39828">
        <ele>122</ele>
        <time>2024-11-05T18:08:50Z</time>
      </trkpt>
      <trkpt lat="43.64493" lon="1.39824">
        <ele>122</ele>
        <time>2024-11-05T18:08:51Z</time>
      </trkpt>
      <trkpt lat="43.64493" lon="1.39821">
        <ele>122</ele>
        <time>2024-11-05T18:08:52Z</time>
      </trkpt>
      <trkpt lat="43.64493" lon="1.39821">
        <ele>122</ele>
        <time>2024-11-05T18:08:53Z</time>
      </trkpt>
      <trkpt lat="43.64493" lon="1.39815">
        <ele>122</ele>
        <time>2024-11-05T18:08:54Z</time>
      </trkpt>
      <trkpt lat="43.64493" lon="1.39812">
        <ele>122</ele>
        <time>2024-11-05T18:08:55Z</time>
      </trkpt>
      <trkpt lat="43.64494" lon="1.39808">
        <ele>122</ele>
        <time>2024-11-05T18:08:56Z</time>
      </trkpt>
      <trkpt lat="43.64494" lon="1.39805">
        <ele>122</ele>
        <time>2024-11-05T18:08:57Z</time>
      </trkpt>
      <trkpt lat="43.64494" lon="1.39802">
        <ele>122</ele>
        <time>2024-11-05T18:08:58Z</time>
      </trkpt>
      <trkpt lat="43.64494" lon="1.39798">
        <ele>122</ele>
        <time>2024-11-05T18:08:59Z</time>
      </trkpt>
      <trkpt lat="43.64494" lon="1.39795">
        <ele>122</ele>
        <time>2024-11-05T18:09:00Z</time>
      </trkpt>
      <trkpt lat="43.64494" lon="1.39792">
        <ele>122</ele>
        <time>2024-11-05T18:09:01Z</time>
      </trkpt>
      <trkpt lat="43.64494" lon="1.39789">
        <ele>122</ele>
        <time>2024-11-05T18:09:02Z</time>
      </trkpt>
      <trkpt lat="43.64494" lon="1.39786">
        <ele>122</ele>
        <time>2024-11-05T18:09:03Z</time>
      </trkpt>
      <trkpt lat="43.64494" lon="1.39783">
        <ele>122</ele>
        <time>2024-11-05T18:09:04Z</time>
      </trkpt>
      <trkpt lat="43.64494" lon="1.3978">
        <ele>122</ele>
        <time>2024-11-05T18:09:05Z</time>
      </trkpt>
      <trkpt lat="43.64494" lon="1.39777">
        <ele>122</ele>
        <time>2024-11-05T18:09:06Z</time>
      </trkpt>
      <trkpt lat="43.64494" lon="1.39773">
        <ele>122</ele>
        <time>2024-11-05T18:09:07Z</time>
      </trkpt>
      <trkpt lat="43.64494" lon="1.39773">
        <ele>123</ele>
        <time>2024-11-05T18:09:08Z</time>
      </trkpt>
      <trkpt lat="43.64494" lon="1.39767">
        <ele>123</ele>
        <time>2024-11-05T18:09:09Z</time>
      </trkpt>
      <trkpt lat="43.64494" lon="1.39764">
        <ele>123</ele>
        <time>2024-11-05T18:09:10Z</time>
      </trkpt>
      <trkpt lat="43.64494" lon="1.3976">
        <ele>122</ele>
        <time>2024-11-05T18:09:11Z</time>
      </trkpt>
      <trkpt lat="43.64494" lon="1.39757">
        <ele>122</ele>
        <time>2024-11-05T18:09:12Z</time>
      </trkpt>
      <trkpt lat="43.64494" lon="1.39754">
        <ele>123</ele>
        <time>2024-11-05T18:09:13Z</time>
      </trkpt>
      <trkpt lat="43.64495" lon="1.39751">
        <ele>123</ele>
        <time>2024-11-05T18:09:14Z</time>
      </trkpt>
      <trkpt lat="43.64495" lon="1.39748">
        <ele>123</ele>
        <time>2024-11-05T18:09:15Z</time>
      </trkpt>
      <trkpt lat="43.64495" lon="1.39745">
        <ele>123</ele>
        <time>2024-11-05T18:09:16Z</time>
      </trkpt>
      <trkpt lat="43.64495" lon="1.39742">
        <ele>123</ele>
        <time>2024-11-05T18:09:17Z</time>
      </trkpt>
      <trkpt lat="43.64495" lon="1.39739">
        <ele>122</ele>
        <time>2024-11-05T18:09:18Z</time>
      </trkpt>
      <trkpt lat="43.64495" lon="1.39736">
        <ele>122</ele>
        <time>2024-11-05T18:09:19Z</time>
      </trkpt>
      <trkpt lat="43.64496" lon="1.39733">
        <ele>122</ele>
        <time>2024-11-05T18:09:20Z</time>
      </trkpt>
      <trkpt lat="43.64496" lon="1.39729">
        <ele>123</ele>
        <time>2024-11-05T18:09:21Z</time>
      </trkpt>
      <trkpt lat="43.64496" lon="1.39726">
        <ele>123</ele>
        <time>2024-11-05T18:09:22Z</time>
      </trkpt>
      <trkpt lat="43.64496" lon="1.39723">
        <ele>123</ele>
        <time>2024-11-05T18:09:23Z</time>
      </trkpt>
      <trkpt lat="43.64496" lon="1.3972">
        <ele>123</ele>
        <time>2024-11-05T18:09:24Z</time>
      </trkpt>
      <trkpt lat="43.64496" lon="1.39717">
        <ele>123</ele>
        <time>2024-11-05T18:09:25Z</time>
      </trkpt>
      <trkpt lat="43.64496" lon="1.39714">
        <ele>123</ele>
        <time>2024-11-05T18:09:26Z</time>
      </trkpt>
      <trkpt lat="43.64496" lon="1.39711">
        <ele>123</ele>
        <time>2024-11-05T18:09:27Z</time>
      </trkpt>
      <trkpt lat="43.64496" lon="1.39708">
        <ele>123</ele>
        <time>2024-11-05T18:09:28Z</time>
      </trkpt>
      <trkpt lat="43.64497" lon="1.39705">
        <ele>123</ele>
        <time>2024-11-05T18:09:29Z</time>
      </trkpt>
      <trkpt lat="43.64496" lon="1.39702">
        <ele>123</ele>
        <time>2024-11-05T18:09:30Z</time>
      </trkpt>
      <trkpt lat="43.64497" lon="1.39699">
        <ele>123</ele>
        <time>2024-11-05T18:09:31Z</time>
      </trkpt>
      <trkpt lat="43.64497" lon="1.39696">
        <ele>123</ele>
        <time>2024-11-05T18:09:32Z</time>
      </trkpt>
      <trkpt lat="43.64497" lon="1.39693">
        <ele>123</ele>
        <time>2024-11-05T18:09:33Z</time>
      </trkpt>
      <trkpt lat="43.64497" lon="1.3969">
        <ele>123</ele>
        <time>2024-11-05T18:09:34Z</time>
      </trkpt>
      <trkpt lat="43.64497" lon="1.39687">
        <ele>123</ele>
        <time>2024-11-05T18:09:35Z</time>
      </trkpt>
      <trkpt lat="43.64497" lon="1.39684">
        <ele>123</ele>
        <time>2024-11-05T18:09:36Z</time>
      </trkpt>
      <trkpt lat="43.64496" lon="1.39681">
        <ele>123</ele>
        <time>2024-11-05T18:09:37Z</time>
      </trkpt>
      <trkpt lat="43.64497" lon="1.39677">
        <ele>123</ele>
        <time>2024-11-05T18:09:38Z</time>
      </trkpt>
      <trkpt lat="43.64497" lon="1.39674">
        <ele>123</ele>
        <time>2024-11-05T18:09:39Z</time>
      </trkpt>
      <trkpt lat="43.64497" lon="1.39671">
        <ele>123</ele>
        <time>2024-11-05T18:09:40Z</time>
      </trkpt>
      <trkpt lat="43.64497" lon="1.39668">
        <ele>123</ele>
        <time>2024-11-05T18:09:41Z</time>
      </trkpt>
      <trkpt lat="43.64497" lon="1.39665">
        <ele>123</ele>
        <time>2024-11-05T18:09:42Z</time>
      </trkpt>
      <trkpt lat="43.64497" lon="1.39662">
        <ele>123</ele>
        <time>2024-11-05T18:09:43Z</time>
      </trkpt>
      <trkpt lat="43.64497" lon="1.39659">
        <ele>123</ele>
        <time>2024-11-05T18:09:44Z</time>
      </trkpt>
      <trkpt lat="43.64497" lon="1.39656">
        <ele>123</ele>
        <time>2024-11-05T18:09:45Z</time>
      </trkpt>
      <trkpt lat="43.64497" lon="1.39653">
        <ele>123</ele>
        <time>2024-11-05T18:09:46Z</time>
      </trkpt>
      <trkpt lat="43.64497" lon="1.3965">
        <ele>123</ele>
        <time>2024-11-05T18:09:47Z</time>
      </trkpt>
      <trkpt lat="43.64497" lon="1.39647">
        <ele>123</ele>
        <time>2024-11-05T18:09:48Z</time>
      </trkpt>
      <trkpt lat="43.64497" lon="1.39644">
        <ele>122</ele>
        <time>2024-11-05T18:09:49Z</time>
      </trkpt>
      <trkpt lat="43.64497" lon="1.39641">
        <ele>122</ele>
        <time>2024-11-05T18:09:50Z</time>
      </trkpt>
      <trkpt lat="43.64497" lon="1.39638">
        <ele>122</ele>
        <time>2024-11-05T18:09:51Z</time>
      </trkpt>
      <trkpt lat="43.64497" lon="1.39635">
        <ele>122</ele>
        <time>2024-11-05T18:09:52Z</time>
      </trkpt>
      <trkpt lat="43.64497" lon="1.39632">
        <ele>122</ele>
        <time>2024-11-05T18:09:53Z</time>
      </trkpt>
      <trkpt lat="43.64497" lon="1.39629">
        <ele>122</ele>
        <time>2024-11-05T18:09:54Z</time>
      </trkpt>
      <trkpt lat="43.64497" lon="1.39626">
        <ele>122</ele>
        <time>2024-11-05T18:09:55Z</time>
      </trkpt>
      <trkpt lat="43.64497" lon="1.39622">
        <ele>122</ele>
        <time>2024-11-05T18:09:56Z</time>
      </trkpt>
      <trkpt lat="43.64497" lon="1.39619">
        <ele>122</ele>
        <time>2024-11-05T18:09:57Z</time>
      </trkpt>
      <trkpt lat="43.64497" lon="1.39616">
        <ele>122</ele>
        <time>2024-11-05T18:09:58Z</time>
      </trkpt>
      <trkpt lat="43.64497" lon="1.39613">
        <ele>122</ele>
        <time>2024-11-05T18:09:59Z</time>
      </trkpt>
      <trkpt lat="43.64496" lon="1.3961">
        <ele>122</ele>
        <time>2024-11-05T18:10:00Z</time>
      </trkpt>
      <trkpt lat="43.64496" lon="1.39607">
        <ele>122</ele>
        <time>2024-11-05T18:10:01Z</time>
      </trkpt>
      <trkpt lat="43.64496" lon="1.39604">
        <ele>122</ele>
        <time>2024-11-05T18:10:02Z</time>
      </trkpt>
      <trkpt lat="43.64496" lon="1.39601">
        <ele>122</ele>
        <time>2024-11-05T18:10:03Z</time>
      </trkpt>
      <trkpt lat="43.64495" lon="1.39597">
        <ele>122</ele>
        <time>2024-11-05T18:10:04Z</time>
      </trkpt>
      <trkpt lat="43.64495" lon="1.39594">
        <ele>122</ele>
        <time>2024-11-05T18:10:05Z</time>
      </trkpt>
      <trkpt lat="43.64495" lon="1.3959">
        <ele>122</ele>
        <time>2024-11-05T18:10:06Z</time>
      </trkpt>
      <trkpt lat="43.64495" lon="1.39587">
        <ele>122</ele>
        <time>2024-11-05T18:10:07Z</time>
      </trkpt>
      <trkpt lat="43.64495" lon="1.39584">
        <ele>122</ele>
        <time>2024-11-05T18:10:08Z</time>
      </trkpt>
      <trkpt lat="43.64494" lon="1.3958">
        <ele>122</ele>
        <time>2024-11-05T18:10:09Z</time>
      </trkpt>
      <trkpt lat="43.64494" lon="1.39577">
        <ele>122</ele>
        <time>2024-11-05T18:10:10Z</time>
      </trkpt>
      <trkpt lat="43.64494" lon="1.39574">
        <ele>122</ele>
        <time>2024-11-05T18:10:11Z</time>
      </trkpt>
      <trkpt lat="43.64494" lon="1.39571">
        <ele>122</ele>
        <time>2024-11-05T18:10:12Z</time>
      </trkpt>
      <trkpt lat="43.64493" lon="1.39568">
        <ele>123</ele>
        <time>2024-11-05T18:10:13Z</time>
      </trkpt>
      <trkpt lat="43.64493" lon="1.39565">
        <ele>123</ele>
        <time>2024-11-05T18:10:14Z</time>
      </trkpt>
      <trkpt lat="43.64493" lon="1.39561">
        <ele>123</ele>
        <time>2024-11-05T18:10:15Z</time>
      </trkpt>
      <trkpt lat="43.64492" lon="1.39559">
        <ele>123</ele>
        <time>2024-11-05T18:10:16Z</time>
      </trkpt>
      <trkpt lat="43.64492" lon="1.39555">
        <ele>123</ele>
        <time>2024-11-05T18:10:17Z</time>
      </trkpt>
      <trkpt lat="43.64491" lon="1.39552">
        <ele>123</ele>
        <time>2024-11-05T18:10:18Z</time>
      </trkpt>
      <trkpt lat="43.64491" lon="1.39549">
        <ele>123</ele>
        <time>2024-11-05T18:10:19Z</time>
      </trkpt>
      <trkpt lat="43.64491" lon="1.39545">
        <ele>123</ele>
        <time>2024-11-05T18:10:20Z</time>
      </trkpt>
      <trkpt lat="43.64491" lon="1.39542">
        <ele>123</ele>
        <time>2024-11-05T18:10:21Z</time>
      </trkpt>
      <trkpt lat="43.6449" lon="1.39539">
        <ele>123</ele>
        <time>2024-11-05T18:10:22Z</time>
      </trkpt>
      <trkpt lat="43.6449" lon="1.39536">
        <ele>123</ele>
        <time>2024-11-05T18:10:23Z</time>
      </trkpt>
      <trkpt lat="43.6449" lon="1.39533">
        <ele>123</ele>
        <time>2024-11-05T18:10:24Z</time>
      </trkpt>
      <trkpt lat="43.64489" lon="1.3953">
        <ele>123</ele>
        <time>2024-11-05T18:10:25Z</time>
      </trkpt>
      <trkpt lat="43.64489" lon="1.39527">
        <ele>123</ele>
        <time>2024-11-05T18:10:26Z</time>
      </trkpt>
      <trkpt lat="43.64489" lon="1.39523">
        <ele>123</ele>
        <time>2024-11-05T18:10:27Z</time>
      </trkpt>
      <trkpt lat="43.64488" lon="1.3952">
        <ele>123</ele>
        <time>2024-11-05T18:10:28Z</time>
      </trkpt>
      <trkpt lat="43.64488" lon="1.39517">
        <ele>123</ele>
        <time>2024-11-05T18:10:29Z</time>
      </trkpt>
      <trkpt lat="43.64487" lon="1.39514">
        <ele>123</ele>
        <time>2024-11-05T18:10:30Z</time>
      </trkpt>
      <trkpt lat="43.64487" lon="1.39511">
        <ele>123</ele>
        <time>2024-11-05T18:10:31Z</time>
      </trkpt>
      <trkpt lat="43.64486" lon="1.39508">
        <ele>123</ele>
        <time>2024-11-05T18:10:32Z</time>
      </trkpt>
      <trkpt lat="43.64486" lon="1.39505">
        <ele>123</ele>
        <time>2024-11-05T18:10:33Z</time>
      </trkpt>
      <trkpt lat="43.64486" lon="1.39502">
        <ele>123</ele>
        <time>2024-11-05T18:10:34Z</time>
      </trkpt>
      <trkpt lat="43.64485" lon="1.39498">
        <ele>123</ele>
        <time>2024-11-05T18:10:35Z</time>
      </trkpt>
      <trkpt lat="43.64485" lon="1.39495">
        <ele>123</ele>
        <time>2024-11-05T18:10:36Z</time>
      </trkpt>
      <trkpt lat="43.64484" lon="1.39492">
        <ele>123</ele>
        <time>2024-11-05T18:10:37Z</time>
      </trkpt>
      <trkpt lat="43.64484" lon="1.39489">
        <ele>124</ele>
        <time>2024-11-05T18:10:38Z</time>
      </trkpt>
      <trkpt lat="43.64483" lon="1.39486">
        <ele>123</ele>
        <time>2024-11-05T18:10:39Z</time>
      </trkpt>
      <trkpt lat="43.64483" lon="1.39483">
        <ele>123</ele>
        <time>2024-11-05T18:10:40Z</time>
      </trkpt>
      <trkpt lat="43.64483" lon="1.3948">
        <ele>123</ele>
        <time>2024-11-05T18:10:41Z</time>
      </trkpt>
      <trkpt lat="43.64482" lon="1.39477">
        <ele>124</ele>
        <time>2024-11-05T18:10:42Z</time>
      </trkpt>
      <trkpt lat="43.64482" lon="1.39474">
        <ele>124</ele>
        <time>2024-11-05T18:10:43Z</time>
      </trkpt>
      <trkpt lat="43.64482" lon="1.39472">
        <ele>123</ele>
        <time>2024-11-05T18:10:44Z</time>
      </trkpt>
      <trkpt lat="43.64481" lon="1.39469">
        <ele>124</ele>
        <time>2024-11-05T18:10:45Z</time>
      </trkpt>
      <trkpt lat="43.6448" lon="1.39465">
        <ele>124</ele>
        <time>2024-11-05T18:10:46Z</time>
      </trkpt>
      <trkpt lat="43.6448" lon="1.39463">
        <ele>124</ele>
        <time>2024-11-05T18:10:47Z</time>
      </trkpt>
      <trkpt lat="43.6448" lon="1.3946">
        <ele>124</ele>
        <time>2024-11-05T18:10:48Z</time>
      </trkpt>
      <trkpt lat="43.64479" lon="1.39457">
        <ele>124</ele>
        <time>2024-11-05T18:10:49Z</time>
      </trkpt>
      <trkpt lat="43.64479" lon="1.39454">
        <ele>124</ele>
        <time>2024-11-05T18:10:50Z</time>
      </trkpt>
      <trkpt lat="43.64478" lon="1.39451">
        <ele>124</ele>
        <time>2024-11-05T18:10:51Z</time>
      </trkpt>
      <trkpt lat="43.64478" lon="1.39448">
        <ele>124</ele>
        <time>2024-11-05T18:10:52Z</time>
      </trkpt>
      <trkpt lat="43.64477" lon="1.39446">
        <ele>124</ele>
        <time>2024-11-05T18:10:53Z</time>
      </trkpt>
      <trkpt lat="43.64477" lon="1.39443">
        <ele>124</ele>
        <time>2024-11-05T18:10:54Z</time>
      </trkpt>
      <trkpt lat="43.64477" lon="1.3944">
        <ele>123</ele>
        <time>2024-11-05T18:10:55Z</time>
      </trkpt>
      <trkpt lat="43.64476" lon="1.39437">
        <ele>124</ele>
        <time>2024-11-05T18:10:56Z</time>
      </trkpt>
      <trkpt lat="43.64476" lon="1.39434">
        <ele>124</ele>
        <time>2024-11-05T18:10:57Z</time>
      </trkpt>
      <trkpt lat="43.64475" lon="1.39431">
        <ele>124</ele>
        <time>2024-11-05T18:10:58Z</time>
      </trkpt>
      <trkpt lat="43.64474" lon="1.39428">
        <ele>124</ele>
        <time>2024-11-05T18:10:59Z</time>
      </trkpt>
      <trkpt lat="43.64474" lon="1.39425">
        <ele>124</ele>
        <time>2024-11-05T18:11:00Z</time>
      </trkpt>
      <trkpt lat="43.64473" lon="1.39422">
        <ele>125</ele>
        <time>2024-11-05T18:11:01Z</time>
      </trkpt>
      <trkpt lat="43.64473" lon="1.39419">
        <ele>125</ele>
        <time>2024-11-05T18:11:02Z</time>
      </trkpt>
      <trkpt lat="43.64472" lon="1.39416">
        <ele>125</ele>
        <time>2024-11-05T18:11:03Z</time>
      </trkpt>
      <trkpt lat="43.64472" lon="1.39414">
        <ele>124</ele>
        <time>2024-11-05T18:11:04Z</time>
      </trkpt>
      <trkpt lat="43.64471" lon="1.39411">
        <ele>124</ele>
        <time>2024-11-05T18:11:05Z</time>
      </trkpt>
      <trkpt lat="43.64471" lon="1.39411">
        <ele>124</ele>
        <time>2024-11-05T18:11:06Z</time>
      </trkpt>
      <trkpt lat="43.6447" lon="1.39404">
        <ele>124</ele>
        <time>2024-11-05T18:11:07Z</time>
      </trkpt>
      <trkpt lat="43.6447" lon="1.39404">
        <ele>124</ele>
        <time>2024-11-05T18:11:08Z</time>
      </trkpt>
      <trkpt lat="43.6447" lon="1.39402">
        <ele>124</ele>
        <time>2024-11-05T18:11:09Z</time>
      </trkpt>
      <trkpt lat="43.6447" lon="1.39398">
        <ele>124</ele>
        <time>2024-11-05T18:11:10Z</time>
      </trkpt>
      <trkpt lat="43.6447" lon="1.39398">
        <ele>124</ele>
        <time>2024-11-05T18:11:11Z</time>
      </trkpt>
      <trkpt lat="43.6447" lon="1.39394">
        <ele>124</ele>
        <time>2024-11-05T18:11:12Z</time>
      </trkpt>
      <trkpt lat="43.6447" lon="1.39394">
        <ele>124</ele>
        <time>2024-11-05T18:11:13Z</time>
      </trkpt>
      <trkpt lat="43.64469" lon="1.39389">
        <ele>124</ele>
        <time>2024-11-05T18:11:14Z</time>
      </trkpt>
      <trkpt lat="43.64469" lon="1.39389">
        <ele>124</ele>
        <time>2024-11-05T18:11:15Z</time>
      </trkpt>
      <trkpt lat="43.64468" lon="1.39384">
        <ele>124</ele>
        <time>2024-11-05T18:11:16Z</time>
      </trkpt>
      <trkpt lat="43.64468" lon="1.39384">
        <ele>124</ele>
        <time>2024-11-05T18:11:17Z</time>
      </trkpt>
      <trkpt lat="43.64467" lon="1.39379">
        <ele>124</ele>
        <time>2024-11-05T18:11:18Z</time>
      </trkpt>
      <trkpt lat="43.64466" lon="1.39377">
        <ele>124</ele>
        <time>2024-11-05T18:11:19Z</time>
      </trkpt>
      <trkpt lat="43.64465" lon="1.39374">
        <ele>124</ele>
        <time>2024-11-05T18:11:20Z</time>
      </trkpt>
      <trkpt lat="43.64465" lon="1.39371">
        <ele>124</ele>
        <time>2024-11-05T18:11:21Z</time>
      </trkpt>
      <trkpt lat="43.64464" lon="1.39368">
        <ele>123</ele>
        <time>2024-11-05T18:11:22Z</time>
      </trkpt>
      <trkpt lat="43.64464" lon="1.39365">
        <ele>124</ele>
        <time>2024-11-05T18:11:23Z</time>
      </trkpt>
      <trkpt lat="43.64463" lon="1.39362">
        <ele>124</ele>
        <time>2024-11-05T18:11:24Z</time>
      </trkpt>
      <trkpt lat="43.64462" lon="1.3936">
        <ele>124</ele>
        <time>2024-11-05T18:11:25Z</time>
      </trkpt>
      <trkpt lat="43.64462" lon="1.39357">
        <ele>124</ele>
        <time>2024-11-05T18:11:26Z</time>
      </trkpt>
      <trkpt lat="43.64461" lon="1.39354">
        <ele>124</ele>
        <time>2024-11-05T18:11:27Z</time>
      </trkpt>
      <trkpt lat="43.64461" lon="1.39351">
        <ele>123</ele>
        <time>2024-11-05T18:11:28Z</time>
      </trkpt>
      <trkpt lat="43.6446" lon="1.39348">
        <ele>123</ele>
        <time>2024-11-05T18:11:29Z</time>
      </trkpt>
      <trkpt lat="43.6446" lon="1.39345">
        <ele>123</ele>
        <time>2024-11-05T18:11:30Z</time>
      </trkpt>
      <trkpt lat="43.64459" lon="1.39342">
        <ele>123</ele>
        <time>2024-11-05T18:11:31Z</time>
      </trkpt>
      <trkpt lat="43.64458" lon="1.39339">
        <ele>123</ele>
        <time>2024-11-05T18:11:32Z</time>
      </trkpt>
      <trkpt lat="43.64458" lon="1.39339">
        <ele>123</ele>
        <time>2024-11-05T18:11:33Z</time>
      </trkpt>
      <trkpt lat="43.64457" lon="1.39334">
        <ele>123</ele>
        <time>2024-11-05T18:11:34Z</time>
      </trkpt>
      <trkpt lat="43.64457" lon="1.39331">
        <ele>124</ele>
        <time>2024-11-05T18:11:35Z</time>
      </trkpt>
      <trkpt lat="43.64456" lon="1.39329">
        <ele>124</ele>
        <time>2024-11-05T18:11:36Z</time>
      </trkpt>
      <trkpt lat="43.64455" lon="1.39326">
        <ele>124</ele>
        <time>2024-11-05T18:11:37Z</time>
      </trkpt>
      <trkpt lat="43.64455" lon="1.39323">
        <ele>124</ele>
        <time>2024-11-05T18:11:38Z</time>
      </trkpt>
      <trkpt lat="43.64454" lon="1.39321">
        <ele>124</ele>
        <time>2024-11-05T18:11:39Z</time>
      </trkpt>
      <trkpt lat="43.64453" lon="1.39318">
        <ele>124</ele>
        <time>2024-11-05T18:11:40Z</time>
      </trkpt>
      <trkpt lat="43.64452" lon="1.39316">
        <ele>124</ele>
        <time>2024-11-05T18:11:41Z</time>
      </trkpt>
      <trkpt lat="43.64452" lon="1.39313">
        <ele>123</ele>
        <time>2024-11-05T18:11:42Z</time>
      </trkpt>
      <trkpt lat="43.64452" lon="1.39313">
        <ele>123</ele>
        <time>2024-11-05T18:11:43Z</time>
      </trkpt>
      <trkpt lat="43.64452" lon="1.39313">
        <ele>123</ele>
        <time>2024-11-05T18:11:44Z</time>
      </trkpt>
      <trkpt lat="43.64452" lon="1.39305">
        <ele>123</ele>
        <time>2024-11-05T18:11:45Z</time>
      </trkpt>
      <trkpt lat="43.64452" lon="1.39301">
        <ele>123</ele>
        <time>2024-11-05T18:11:46Z</time>
      </trkpt>
      <trkpt lat="43.64451" lon="1.39298">
        <ele>123</ele>
        <time>2024-11-05T18:11:47Z</time>
      </trkpt>
      <trkpt lat="43.6445" lon="1.39296">
        <ele>123</ele>
        <time>2024-11-05T18:11:48Z</time>
      </trkpt>
      <trkpt lat="43.6445" lon="1.39294">
        <ele>123</ele>
        <time>2024-11-05T18:11:49Z</time>
      </trkpt>
      <trkpt lat="43.64449" lon="1.39291">
        <ele>123</ele>
        <time>2024-11-05T18:11:50Z</time>
      </trkpt>
      <trkpt lat="43.64449" lon="1.39288">
        <ele>124</ele>
        <time>2024-11-05T18:11:51Z</time>
      </trkpt>
      <trkpt lat="43.64448" lon="1.39285">
        <ele>124</ele>
        <time>2024-11-05T18:11:52Z</time>
      </trkpt>
      <trkpt lat="43.64448" lon="1.39282">
        <ele>124</ele>
        <time>2024-11-05T18:11:53Z</time>
      </trkpt>
      <trkpt lat="43.64447" lon="1.3928">
        <ele>124</ele>
        <time>2024-11-05T18:11:54Z</time>
      </trkpt>
      <trkpt lat="43.64446" lon="1.39277">
        <ele>124</ele>
        <time>2024-11-05T18:11:55Z</time>
      </trkpt>
      <trkpt lat="43.64445" lon="1.39274">
        <ele>124</ele>
        <time>2024-11-05T18:11:56Z</time>
      </trkpt>
      <trkpt lat="43.64444" lon="1.39271">
        <ele>124</ele>
        <time>2024-11-05T18:11:57Z</time>
      </trkpt>
      <trkpt lat="43.64444" lon="1.39268">
        <ele>124</ele>
        <time>2024-11-05T18:11:58Z</time>
      </trkpt>
      <trkpt lat="43.64443" lon="1.39265">
        <ele>124</ele>
        <time>2024-11-05T18:11:59Z</time>
      </trkpt>
      <trkpt lat="43.64442" lon="1.39262">
        <ele>124</ele>
        <time>2024-11-05T18:12:00Z</time>
      </trkpt>
      <trkpt lat="43.64441" lon="1.39259">
        <ele>124</ele>
        <time>2024-11-05T18:12:01Z</time>
      </trkpt>
      <trkpt lat="43.64439" lon="1.39257">
        <ele>124</ele>
        <time>2024-11-05T18:12:02Z</time>
      </trkpt>
      <trkpt lat="43.64438" lon="1.39254">
        <ele>124</ele>
        <time>2024-11-05T18:12:03Z</time>
      </trkpt>
      <trkpt lat="43.64437" lon="1.39251">
        <ele>124</ele>
        <time>2024-11-05T18:12:04Z</time>
      </trkpt>
      <trkpt lat="43.64436" lon="1.39248">
        <ele>124</ele>
        <time>2024-11-05T18:12:05Z</time>
      </trkpt>
      <trkpt lat="43.64435" lon="1.39246">
        <ele>124</ele>
        <time>2024-11-05T18:12:06Z</time>
      </trkpt>
      <trkpt lat="43.64434" lon="1.39243">
        <ele>124</ele>
        <time>2024-11-05T18:12:07Z</time>
      </trkpt>
      <trkpt lat="43.64432" lon="1.39241">
        <ele>124</ele>
        <time>2024-11-05T18:12:08Z</time>
      </trkpt>
      <trkpt lat="43.64431" lon="1.39238">
        <ele>124</ele>
        <time>2024-11-05T18:12:09Z</time>
      </trkpt>
      <trkpt lat="43.6443" lon="1.39235">
        <ele>124</ele>
        <time>2024-11-05T18:12:10Z</time>
      </trkpt>
      <trkpt lat="43.64428" lon="1.39233">
        <ele>124</ele>
        <time>2024-11-05T18:12:11Z</time>
      </trkpt>
      <trkpt lat="43.64427" lon="1.39231">
        <ele>124</ele>
        <time>2024-11-05T18:12:12Z</time>
      </trkpt>
      <trkpt lat="43.64426" lon="1.39228">
        <ele>124</ele>
        <time>2024-11-05T18:12:13Z</time>
      </trkpt>
      <trkpt lat="43.64425" lon="1.39226">
        <ele>124</ele>
        <time>2024-11-05T18:12:14Z</time>
      </trkpt>
      <trkpt lat="43.64424" lon="1.39223">
        <ele>124</ele>
        <time>2024-11-05T18:12:15Z</time>
      </trkpt>
      <trkpt lat="43.64422" lon="1.39221">
        <ele>125</ele>
        <time>2024-11-05T18:12:16Z</time>
      </trkpt>
      <trkpt lat="43.64421" lon="1.39218">
        <ele>125</ele>
        <time>2024-11-05T18:12:17Z</time>
      </trkpt>
      <trkpt lat="43.6442" lon="1.39216">
        <ele>125</ele>
        <time>2024-11-05T18:12:18Z</time>
      </trkpt>
      <trkpt lat="43.64419" lon="1.39214">
        <ele>125</ele>
        <time>2024-11-05T18:12:19Z</time>
      </trkpt>
      <trkpt lat="43.64418" lon="1.39211">
        <ele>125</ele>
        <time>2024-11-05T18:12:20Z</time>
      </trkpt>
      <trkpt lat="43.64417" lon="1.39208">
        <ele>125</ele>
        <time>2024-11-05T18:12:21Z</time>
      </trkpt>
      <trkpt lat="43.64416" lon="1.39206">
        <ele>125</ele>
        <time>2024-11-05T18:12:22Z</time>
      </trkpt>
      <trkpt lat="43.64414" lon="1.39203">
        <ele>125</ele>
        <time>2024-11-05T18:12:23Z</time>
      </trkpt>
      <trkpt lat="43.64413" lon="1.39201">
        <ele>125</ele>
        <time>2024-11-05T18:12:24Z</time>
      </trkpt>
      <trkpt lat="43.64412" lon="1.39198">
        <ele>125</ele>
        <time>2024-11-05T18:12:25Z</time>
      </trkpt>
      <trkpt lat="43.64411" lon="1.39195">
        <ele>126</ele>
        <time>2024-11-05T18:12:26Z</time>
      </trkpt>
      <trkpt lat="43.6441" lon="1.39193">
        <ele>126</ele>
        <time>2024-11-05T18:12:27Z</time>
      </trkpt>
      <trkpt lat="43.64409" lon="1.3919">
        <ele>126</ele>
        <time>2024-11-05T18:12:28Z</time>
      </trkpt>
      <trkpt lat="43.64408" lon="1.39187">
        <ele>126</ele>
        <time>2024-11-05T18:12:29Z</time>
      </trkpt>
      <trkpt lat="43.64407" lon="1.39185">
        <ele>127</ele>
        <time>2024-11-05T18:12:30Z</time>
      </trkpt>
      <trkpt lat="43.64406" lon="1.39181">
        <ele>127</ele>
        <time>2024-11-05T18:12:31Z</time>
      </trkpt>
      <trkpt lat="43.64406" lon="1.39178">
        <ele>127</ele>
        <time>2024-11-05T18:12:32Z</time>
      </trkpt>
      <trkpt lat="43.64406" lon="1.39175">
        <ele>128</ele>
        <time>2024-11-05T18:12:33Z</time>
      </trkpt>
      <trkpt lat="43.64405" lon="1.39172">
        <ele>128</ele>
        <time>2024-11-05T18:12:34Z</time>
      </trkpt>
      <trkpt lat="43.64405" lon="1.39169">
        <ele>128</ele>
        <time>2024-11-05T18:12:35Z</time>
      </trkpt>
      <trkpt lat="43.64405" lon="1.39166">
        <ele>128</ele>
        <time>2024-11-05T18:12:36Z</time>
      </trkpt>
      <trkpt lat="43.64405" lon="1.39163">
        <ele>128</ele>
        <time>2024-11-05T18:12:37Z</time>
      </trkpt>
      <trkpt lat="43.64405" lon="1.3916">
        <ele>129</ele>
        <time>2024-11-05T18:12:38Z</time>
      </trkpt>
      <trkpt lat="43.64406" lon="1.39158">
        <ele>129</ele>
        <time>2024-11-05T18:12:39Z</time>
      </trkpt>
      <trkpt lat="43.64406" lon="1.39155">
        <ele>129</ele>
        <time>2024-11-05T18:12:40Z</time>
      </trkpt>
      <trkpt lat="43.64406" lon="1.39152">
        <ele>129</ele>
        <time>2024-11-05T18:12:41Z</time>
      </trkpt>
      <trkpt lat="43.64407" lon="1.39149">
        <ele>129</ele>
        <time>2024-11-05T18:12:42Z</time>
      </trkpt>
      <trkpt lat="43.64407" lon="1.39149">
        <ele>130</ele>
        <time>2024-11-05T18:12:43Z</time>
      </trkpt>
      <trkpt lat="43.64407" lon="1.39145">
        <ele>130</ele>
        <time>2024-11-05T18:12:44Z</time>
      </trkpt>
      <trkpt lat="43.64407" lon="1.39145">
        <ele>130</ele>
        <time>2024-11-05T18:12:45Z</time>
      </trkpt>
      <trkpt lat="43.64408" lon="1.39141">
        <ele>130</ele>
        <time>2024-11-05T18:12:46Z</time>
      </trkpt>
      <trkpt lat="43.64408" lon="1.39141">
        <ele>131</ele>
        <time>2024-11-05T18:12:47Z</time>
      </trkpt>
      <trkpt lat="43.64409" lon="1.39136">
        <ele>131</ele>
        <time>2024-11-05T18:12:48Z</time>
      </trkpt>
      <trkpt lat="43.64409" lon="1.39136">
        <ele>131</ele>
        <time>2024-11-05T18:12:49Z</time>
      </trkpt>
      <trkpt lat="43.6441" lon="1.39131">
        <ele>131</ele>
        <time>2024-11-05T18:12:50Z</time>
      </trkpt>
      <trkpt lat="43.6441" lon="1.39131">
        <ele>131</ele>
        <time>2024-11-05T18:12:51Z</time>
      </trkpt>
      <trkpt lat="43.64411" lon="1.39127">
        <ele>131</ele>
        <time>2024-11-05T18:12:52Z</time>
      </trkpt>
      <trkpt lat="43.64412" lon="1.39125">
        <ele>131</ele>
        <time>2024-11-05T18:12:53Z</time>
      </trkpt>
      <trkpt lat="43.64412" lon="1.39122">
        <ele>132</ele>
        <time>2024-11-05T18:12:54Z</time>
      </trkpt>
      <trkpt lat="43.64413" lon="1.3912">
        <ele>132</ele>
        <time>2024-11-05T18:12:55Z</time>
      </trkpt>
      <trkpt lat="43.64414" lon="1.39117">
        <ele>133</ele>
        <time>2024-11-05T18:12:56Z</time>
      </trkpt>
      <trkpt lat="43.64416" lon="1.39114">
        <ele>133</ele>
        <time>2024-11-05T18:12:57Z</time>
      </trkpt>
      <trkpt lat="43.64417" lon="1.39111">
        <ele>133</ele>
        <time>2024-11-05T18:12:58Z</time>
      </trkpt>
      <trkpt lat="43.64418" lon="1.39108">
        <ele>133</ele>
        <time>2024-11-05T18:12:59Z</time>
      </trkpt>
      <trkpt lat="43.64418" lon="1.39108">
        <ele>134</ele>
        <time>2024-11-05T18:13:00Z</time>
      </trkpt>
      <trkpt lat="43.6442" lon="1.39102">
        <ele>134</ele>
        <time>2024-11-05T18:13:01Z</time>
      </trkpt>
      <trkpt lat="43.64421" lon="1.39099">
        <ele>134</ele>
        <time>2024-11-05T18:13:02Z</time>
      </trkpt>
      <trkpt lat="43.64423" lon="1.39097">
        <ele>134</ele>
        <time>2024-11-05T18:13:03Z</time>
      </trkpt>
      <trkpt lat="43.64425" lon="1.39094">
        <ele>134</ele>
        <time>2024-11-05T18:13:04Z</time>
      </trkpt>
      <trkpt lat="43.64426" lon="1.39092">
        <ele>134</ele>
        <time>2024-11-05T18:13:05Z</time>
      </trkpt>
      <trkpt lat="43.64429" lon="1.39089">
        <ele>134</ele>
        <time>2024-11-05T18:13:06Z</time>
      </trkpt>
      <trkpt lat="43.64429" lon="1.39089">
        <ele>135</ele>
        <time>2024-11-05T18:13:07Z</time>
      </trkpt>
      <trkpt lat="43.64432" lon="1.39083">
        <ele>135</ele>
        <time>2024-11-05T18:13:08Z</time>
      </trkpt>
      <trkpt lat="43.64434" lon="1.39081">
        <ele>135</ele>
        <time>2024-11-05T18:13:09Z</time>
      </trkpt>
      <trkpt lat="43.64435" lon="1.39078">
        <ele>135</ele>
        <time>2024-11-05T18:13:10Z</time>
      </trkpt>
      <trkpt lat="43.64437" lon="1.39075">
        <ele>135</ele>
        <time>2024-11-05T18:13:11Z</time>
      </trkpt>
      <trkpt lat="43.64438" lon="1.39073">
        <ele>135</ele>
        <time>2024-11-05T18:13:12Z</time>
      </trkpt>
      <trkpt lat="43.6444" lon="1.3907">
        <ele>135</ele>
        <time>2024-11-05T18:13:13Z</time>
      </trkpt>
      <trkpt lat="43.64441" lon="1.39068">
        <ele>136</ele>
        <time>2024-11-05T18:13:14Z</time>
      </trkpt>
      <trkpt lat="43.64441" lon="1.39068">
        <ele>136</ele>
        <time>2024-11-05T18:13:15Z</time>
      </trkpt>
      <trkpt lat="43.64442" lon="1.39064">
        <ele>135</ele>
        <time>2024-11-05T18:13:16Z</time>
      </trkpt>
      <trkpt lat="43.64442" lon="1.39064">
        <ele>135</ele>
        <time>2024-11-05T18:13:17Z</time>
      </trkpt>
      <trkpt lat="43.64444" lon="1.39061">
        <ele>135</ele>
        <time>2024-11-05T18:13:18Z</time>
      </trkpt>
      <trkpt lat="43.64444" lon="1.39061">
        <ele>136</ele>
        <time>2024-11-05T18:13:19Z</time>
      </trkpt>
      <trkpt lat="43.64444" lon="1.39061">
        <ele>136</ele>
        <time>2024-11-05T18:13:20Z</time>
      </trkpt>
      <trkpt lat="43.64453" lon="1.39044">
        <ele>137</ele>
        <time>2024-11-05T18:14:59Z</time>
      </trkpt>
      <trkpt lat="43.64453" lon="1.39044">
        <ele>137</ele>
        <time>2024-11-05T18:15:00Z</time>
      </trkpt>
      <trkpt lat="43.64455" lon="1.39042">
        <ele>137</ele>
        <time>2024-11-05T18:15:01Z</time>
      </trkpt>
      <trkpt lat="43.64455" lon="1.39042">
        <ele>137</ele>
        <time>2024-11-05T18:15:02Z</time>
      </trkpt>
      <trkpt lat="43.64458" lon="1.3904">
        <ele>137</ele>
        <time>2024-11-05T18:15:03Z</time>
      </trkpt>
      <trkpt lat="43.64458" lon="1.3904">
        <ele>137</ele>
        <time>2024-11-05T18:15:04Z</time>
      </trkpt>
      <trkpt lat="43.64461" lon="1.39038">
        <ele>137</ele>
        <time>2024-11-05T18:15:05Z</time>
      </trkpt>
      <trkpt lat="43.64463" lon="1.39037">
        <ele>137</ele>
        <time>2024-11-05T18:15:06Z</time>
      </trkpt>
      <trkpt lat="43.64465" lon="1.39035">
        <ele>137</ele>
        <time>2024-11-05T18:15:07Z</time>
      </trkpt>
      <trkpt lat="43.64466" lon="1.39034">
        <ele>136</ele>
        <time>2024-11-05T18:15:08Z</time>
      </trkpt>
      <trkpt lat="43.64468" lon="1.39032">
        <ele>136</ele>
        <time>2024-11-05T18:15:09Z</time>
      </trkpt>
      <trkpt lat="43.6447" lon="1.39029">
        <ele>136</ele>
        <time>2024-11-05T18:15:10Z</time>
      </trkpt>
      <trkpt lat="43.64472" lon="1.39026">
        <ele>136</ele>
        <time>2024-11-05T18:15:11Z</time>
      </trkpt>
      <trkpt lat="43.64474" lon="1.39023">
        <ele>136</ele>
        <time>2024-11-05T18:15:12Z</time>
      </trkpt>
      <trkpt lat="43.64475" lon="1.3902">
        <ele>137</ele>
        <time>2024-11-05T18:15:13Z</time>
      </trkpt>
      <trkpt lat="43.64477" lon="1.39017">
        <ele>137</ele>
        <time>2024-11-05T18:15:14Z</time>
      </trkpt>
      <trkpt lat="43.64478" lon="1.39013">
        <ele>137</ele>
        <time>2024-11-05T18:15:15Z</time>
      </trkpt>
      <trkpt lat="43.6448" lon="1.3901">
        <ele>137</ele>
        <time>2024-11-05T18:15:16Z</time>
      </trkpt>
      <trkpt lat="43.64481" lon="1.39007">
        <ele>137</ele>
        <time>2024-11-05T18:15:17Z</time>
      </trkpt>
      <trkpt lat="43.64481" lon="1.39007">
        <ele>137</ele>
        <time>2024-11-05T18:15:18Z</time>
      </trkpt>
      <trkpt lat="43.64484" lon="1.39">
        <ele>137</ele>
        <time>2024-11-05T18:15:19Z</time>
      </trkpt>
      <trkpt lat="43.64485" lon="1.38996">
        <ele>137</ele>
        <time>2024-11-05T18:15:20Z</time>
      </trkpt>
      <trkpt lat="43.64486" lon="1.38993">
        <ele>137</ele>
        <time>2024-11-05T18:15:21Z</time>
      </trkpt>
      <trkpt lat="43.64488" lon="1.38989">
        <ele>137</ele>
        <time>2024-11-05T18:15:22Z</time>
      </trkpt>
      <trkpt lat="43.64488" lon="1.38986">
        <ele>137</ele>
        <time>2024-11-05T18:15:23Z</time>
      </trkpt>
      <trkpt lat="43.6449" lon="1.38983">
        <ele>137</ele>
        <time>2024-11-05T18:15:24Z</time>
      </trkpt>
      <trkpt lat="43.64491" lon="1.38979">
        <ele>137</ele>
        <time>2024-11-05T18:15:25Z</time>
      </trkpt>
      <trkpt lat="43.64492" lon="1.38976">
        <ele>137</ele>
        <time>2024-11-05T18:15:26Z</time>
      </trkpt>
      <trkpt lat="43.64493" lon="1.38973">
        <ele>137</ele>
        <time>2024-11-05T18:15:27Z</time>
      </trkpt>
      <trkpt lat="43.64494" lon="1.3897">
        <ele>137</ele>
        <time>2024-11-05T18:15:28Z</time>
      </trkpt>
      <trkpt lat="43.64495" lon="1.38967">
        <ele>137</ele>
        <time>2024-11-05T18:15:29Z</time>
      </trkpt>
      <trkpt lat="43.64496" lon="1.38964">
        <ele>137</ele>
        <time>2024-11-05T18:15:30Z</time>
      </trkpt>
      <trkpt lat="43.64497" lon="1.38961">
        <ele>137</ele>
        <time>2024-11-05T18:15:31Z</time>
      </trkpt>
      <trkpt lat="43.64498" lon="1.38958">
        <ele>137</ele>
        <time>2024-11-05T18:15:32Z</time>
      </trkpt>
      <trkpt lat="43.64499" lon="1.38954">
        <ele>137</ele>
        <time>2024-11-05T18:15:33Z</time>
      </trkpt>
      <trkpt lat="43.64501" lon="1.38951">
        <ele>137</ele>
        <time>2024-11-05T18:15:34Z</time>
      </trkpt>
      <trkpt lat="43.64502" lon="1.38948">
        <ele>137</ele>
        <time>2024-11-05T18:15:35Z</time>
      </trkpt>
      <trkpt lat="43.64503" lon="1.38945">
        <ele>137</ele>
        <time>2024-11-05T18:15:36Z</time>
      </trkpt>
      <trkpt lat="43.64503" lon="1.38945">
        <ele>137</ele>
        <time>2024-11-05T18:15:37Z</time>
      </trkpt>
      <trkpt lat="43.64505" lon="1.3894">
        <ele>137</ele>
        <time>2024-11-05T18:15:38Z</time>
      </trkpt>
      <trkpt lat="43.64507" lon="1.38937">
        <ele>137</ele>
        <time>2024-11-05T18:15:39Z</time>
      </trkpt>
      <trkpt lat="43.64508" lon="1.38933">
        <ele>137</ele>
        <time>2024-11-05T18:15:40Z</time>
      </trkpt>
      <trkpt lat="43.64508" lon="1.3893">
        <ele>137</ele>
        <time>2024-11-05T18:15:41Z</time>
      </trkpt>
      <trkpt lat="43.64509" lon="1.38927">
        <ele>137</ele>
        <time>2024-11-05T18:15:42Z</time>
      </trkpt>
      <trkpt lat="43.64509" lon="1.38924">
        <ele>137</ele>
        <time>2024-11-05T18:15:43Z</time>
      </trkpt>
      <trkpt lat="43.64509" lon="1.38921">
        <ele>137</ele>
        <time>2024-11-05T18:15:44Z</time>
      </trkpt>
      <trkpt lat="43.64509" lon="1.38917">
        <ele>137</ele>
        <time>2024-11-05T18:15:45Z</time>
      </trkpt>
      <trkpt lat="43.64509" lon="1.38914">
        <ele>137</ele>
        <time>2024-11-05T18:15:46Z</time>
      </trkpt>
      <trkpt lat="43.64509" lon="1.38911">
        <ele>137</ele>
        <time>2024-11-05T18:15:47Z</time>
      </trkpt>
      <trkpt lat="43.64508" lon="1.38907">
        <ele>137</ele>
        <time>2024-11-05T18:15:48Z</time>
      </trkpt>
      <trkpt lat="43.64507" lon="1.38905">
        <ele>137</ele>
        <time>2024-11-05T18:15:49Z</time>
      </trkpt>
      <trkpt lat="43.64507" lon="1.38902">
        <ele>137</ele>
        <time>2024-11-05T18:15:50Z</time>
      </trkpt>
      <trkpt lat="43.64506" lon="1.38898">
        <ele>137</ele>
        <time>2024-11-05T18:15:51Z</time>
      </trkpt>
      <trkpt lat="43.64506" lon="1.38898">
        <ele>137</ele>
        <time>2024-11-05T18:15:52Z</time>
      </trkpt>
      <trkpt lat="43.64505" lon="1.38891">
        <ele>137</ele>
        <time>2024-11-05T18:15:53Z</time>
      </trkpt>
      <trkpt lat="43.64504" lon="1.38888">
        <ele>137</ele>
        <time>2024-11-05T18:15:54Z</time>
      </trkpt>
      <trkpt lat="43.64503" lon="1.38884">
        <ele>137</ele>
        <time>2024-11-05T18:15:55Z</time>
      </trkpt>
      <trkpt lat="43.64503" lon="1.38881">
        <ele>137</ele>
        <time>2024-11-05T18:15:56Z</time>
      </trkpt>
      <trkpt lat="43.64502" lon="1.38878">
        <ele>137</ele>
        <time>2024-11-05T18:15:57Z</time>
      </trkpt>
      <trkpt lat="43.64501" lon="1.38875">
        <ele>137</ele>
        <time>2024-11-05T18:15:58Z</time>
      </trkpt>
      <trkpt lat="43.64501" lon="1.38872">
        <ele>137</ele>
        <time>2024-11-05T18:15:59Z</time>
      </trkpt>
      <trkpt lat="43.64502" lon="1.38869">
        <ele>137</ele>
        <time>2024-11-05T18:16:00Z</time>
      </trkpt>
      <trkpt lat="43.64503" lon="1.38866">
        <ele>137</ele>
        <time>2024-11-05T18:16:01Z</time>
      </trkpt>
      <trkpt lat="43.64504" lon="1.38864">
        <ele>137</ele>
        <time>2024-11-05T18:16:02Z</time>
      </trkpt>
      <trkpt lat="43.64506" lon="1.38862">
        <ele>137</ele>
        <time>2024-11-05T18:16:03Z</time>
      </trkpt>
      <trkpt lat="43.64509" lon="1.3886">
        <ele>137</ele>
        <time>2024-11-05T18:16:04Z</time>
      </trkpt>
      <trkpt lat="43.64511" lon="1.38858">
        <ele>137</ele>
        <time>2024-11-05T18:16:05Z</time>
      </trkpt>
      <trkpt lat="43.64514" lon="1.38857">
        <ele>137</ele>
        <time>2024-11-05T18:16:06Z</time>
      </trkpt>
      <trkpt lat="43.64517" lon="1.38856">
        <ele>137</ele>
        <time>2024-11-05T18:16:07Z</time>
      </trkpt>
      <trkpt lat="43.64519" lon="1.38856">
        <ele>137</ele>
        <time>2024-11-05T18:16:08Z</time>
      </trkpt>
      <trkpt lat="43.64522" lon="1.38855">
        <ele>137</ele>
        <time>2024-11-05T18:16:09Z</time>
      </trkpt>
      <trkpt lat="43.64524" lon="1.38854">
        <ele>137</ele>
        <time>2024-11-05T18:16:10Z</time>
      </trkpt>
      <trkpt lat="43.64527" lon="1.38854">
        <ele>137</ele>
        <time>2024-11-05T18:16:11Z</time>
      </trkpt>
      <trkpt lat="43.64529" lon="1.38853">
        <ele>137</ele>
        <time>2024-11-05T18:16:12Z</time>
      </trkpt>
      <trkpt lat="43.64532" lon="1.38852">
        <ele>137</ele>
        <time>2024-11-05T18:16:13Z</time>
      </trkpt>
      <trkpt lat="43.64534" lon="1.38851">
        <ele>136</ele>
        <time>2024-11-05T18:16:14Z</time>
      </trkpt>
      <trkpt lat="43.64536" lon="1.3885">
        <ele>136</ele>
        <time>2024-11-05T18:16:15Z</time>
      </trkpt>
      <trkpt lat="43.64539" lon="1.3885">
        <ele>136</ele>
        <time>2024-11-05T18:16:16Z</time>
      </trkpt>
      <trkpt lat="43.64541" lon="1.38849">
        <ele>136</ele>
        <time>2024-11-05T18:16:17Z</time>
      </trkpt>
      <trkpt lat="43.64544" lon="1.38848">
        <ele>136</ele>
        <time>2024-11-05T18:16:18Z</time>
      </trkpt>
      <trkpt lat="43.64546" lon="1.38848">
        <ele>136</ele>
        <time>2024-11-05T18:16:19Z</time>
      </trkpt>
      <trkpt lat="43.64549" lon="1.38848">
        <ele>136</ele>
        <time>2024-11-05T18:16:20Z</time>
      </trkpt>
      <trkpt lat="43.64551" lon="1.38847">
        <ele>136</ele>
        <time>2024-11-05T18:16:21Z</time>
      </trkpt>
      <trkpt lat="43.64554" lon="1.38847">
        <ele>136</ele>
        <time>2024-11-05T18:16:22Z</time>
      </trkpt>
      <trkpt lat="43.64556" lon="1.38846">
        <ele>136</ele>
        <time>2024-11-05T18:16:23Z</time>
      </trkpt>
      <trkpt lat="43.64558" lon="1.38846">
        <ele>136</ele>
        <time>2024-11-05T18:16:24Z</time>
      </trkpt>
      <trkpt lat="43.64561" lon="1.38846">
        <ele>136</ele>
        <time>2024-11-05T18:16:25Z</time>
      </trkpt>
      <trkpt lat="43.64563" lon="1.38845">
        <ele>136</ele>
        <time>2024-11-05T18:16:26Z</time>
      </trkpt>
      <trkpt lat="43.64565" lon="1.38845">
        <ele>136</ele>
        <time>2024-11-05T18:16:27Z</time>
      </trkpt>
      <trkpt lat="43.64568" lon="1.38845">
        <ele>136</ele>
        <time>2024-11-05T18:16:28Z</time>
      </trkpt>
      <trkpt lat="43.6457" lon="1.38844">
        <ele>136</ele>
        <time>2024-11-05T18:16:29Z</time>
      </trkpt>
      <trkpt lat="43.64573" lon="1.38844">
        <ele>137</ele>
        <time>2024-11-05T18:16:30Z</time>
      </trkpt>
      <trkpt lat="43.64575" lon="1.38844">
        <ele>137</ele>
        <time>2024-11-05T18:16:31Z</time>
      </trkpt>
      <trkpt lat="43.64577" lon="1.38843">
        <ele>137</ele>
        <time>2024-11-05T18:16:32Z</time>
      </trkpt>
      <trkpt lat="43.64579" lon="1.38843">
        <ele>136</ele>
        <time>2024-11-05T18:16:33Z</time>
      </trkpt>
      <trkpt lat="43.64579" lon="1.38843">
        <ele>136</ele>
        <time>2024-11-05T18:16:34Z</time>
      </trkpt>
      <trkpt lat="43.64585" lon="1.38842">
        <ele>136</ele>
        <time>2024-11-05T18:16:35Z</time>
      </trkpt>
      <trkpt lat="43.64587" lon="1.38842">
        <ele>136</ele>
        <time>2024-11-05T18:16:36Z</time>
      </trkpt>
      <trkpt lat="43.64589" lon="1.38841">
        <ele>136</ele>
        <time>2024-11-05T18:16:37Z</time>
      </trkpt>
      <trkpt lat="43.64592" lon="1.38841">
        <ele>136</ele>
        <time>2024-11-05T18:16:38Z</time>
      </trkpt>
      <trkpt lat="43.64594" lon="1.3884">
        <ele>136</ele>
        <time>2024-11-05T18:16:39Z</time>
      </trkpt>
      <trkpt lat="43.64597" lon="1.38839">
        <ele>136</ele>
        <time>2024-11-05T18:16:40Z</time>
      </trkpt>
      <trkpt lat="43.646" lon="1.38839">
        <ele>136</ele>
        <time>2024-11-05T18:16:41Z</time>
      </trkpt>
      <trkpt lat="43.64603" lon="1.38838">
        <ele>136</ele>
        <time>2024-11-05T18:16:42Z</time>
      </trkpt>
      <trkpt lat="43.64605" lon="1.38837">
        <ele>136</ele>
        <time>2024-11-05T18:16:43Z</time>
      </trkpt>
      <trkpt lat="43.64608" lon="1.38836">
        <ele>136</ele>
        <time>2024-11-05T18:16:44Z</time>
      </trkpt>
      <trkpt lat="43.64611" lon="1.38835">
        <ele>136</ele>
        <time>2024-11-05T18:16:45Z</time>
      </trkpt>
      <trkpt lat="43.64613" lon="1.38834">
        <ele>136</ele>
        <time>2024-11-05T18:16:46Z</time>
      </trkpt>
      <trkpt lat="43.64616" lon="1.38834">
        <ele>136</ele>
        <time>2024-11-05T18:16:47Z</time>
      </trkpt>
      <trkpt lat="43.64618" lon="1.38833">
        <ele>136</ele>
        <time>2024-11-05T18:16:48Z</time>
      </trkpt>
      <trkpt lat="43.6462" lon="1.38832">
        <ele>136</ele>
        <time>2024-11-05T18:16:49Z</time>
      </trkpt>
      <trkpt lat="43.64622" lon="1.38831">
        <ele>136</ele>
        <time>2024-11-05T18:16:50Z</time>
      </trkpt>
      <trkpt lat="43.64625" lon="1.38829">
        <ele>136</ele>
        <time>2024-11-05T18:16:51Z</time>
      </trkpt>
      <trkpt lat="43.64627" lon="1.38828">
        <ele>136</ele>
        <time>2024-11-05T18:16:52Z</time>
      </trkpt>
      <trkpt lat="43.64629" lon="1.38827">
        <ele>137</ele>
        <time>2024-11-05T18:16:53Z</time>
      </trkpt>
      <trkpt lat="43.64632" lon="1.38825">
        <ele>137</ele>
        <time>2024-11-05T18:16:54Z</time>
      </trkpt>
      <trkpt lat="43.64634" lon="1.38825">
        <ele>137</ele>
        <time>2024-11-05T18:16:55Z</time>
      </trkpt>
      <trkpt lat="43.64636" lon="1.38824">
        <ele>137</ele>
        <time>2024-11-05T18:16:56Z</time>
      </trkpt>
      <trkpt lat="43.64638" lon="1.38823">
        <ele>137</ele>
        <time>2024-11-05T18:16:57Z</time>
      </trkpt>
      <trkpt lat="43.64641" lon="1.38822">
        <ele>137</ele>
        <time>2024-11-05T18:16:58Z</time>
      </trkpt>
      <trkpt lat="43.64643" lon="1.38821">
        <ele>137</ele>
        <time>2024-11-05T18:16:59Z</time>
      </trkpt>
      <trkpt lat="43.64646" lon="1.3882">
        <ele>137</ele>
        <time>2024-11-05T18:17:00Z</time>
      </trkpt>
      <trkpt lat="43.64648" lon="1.38819">
        <ele>137</ele>
        <time>2024-11-05T18:17:01Z</time>
      </trkpt>
      <trkpt lat="43.6465" lon="1.38818">
        <ele>137</ele>
        <time>2024-11-05T18:17:02Z</time>
      </trkpt>
      <trkpt lat="43.64653" lon="1.38817">
        <ele>137</ele>
        <time>2024-11-05T18:17:03Z</time>
      </trkpt>
      <trkpt lat="43.64655" lon="1.38817">
        <ele>137</ele>
        <time>2024-11-05T18:17:04Z</time>
      </trkpt>
      <trkpt lat="43.64658" lon="1.38817">
        <ele>137</ele>
        <time>2024-11-05T18:17:05Z</time>
      </trkpt>
      <trkpt lat="43.6466" lon="1.38816">
        <ele>137</ele>
        <time>2024-11-05T18:17:06Z</time>
      </trkpt>
      <trkpt lat="43.64663" lon="1.38815">
        <ele>137</ele>
        <time>2024-11-05T18:17:07Z</time>
      </trkpt>
      <trkpt lat="43.64665" lon="1.38814">
        <ele>137</ele>
        <time>2024-11-05T18:17:08Z</time>
      </trkpt>
      <trkpt lat="43.64667" lon="1.38813">
        <ele>137</ele>
        <time>2024-11-05T18:17:09Z</time>
      </trkpt>
      <trkpt lat="43.6467" lon="1.38811">
        <ele>137</ele>
        <time>2024-11-05T18:17:10Z</time>
      </trkpt>
      <trkpt lat="43.64672" lon="1.3881">
        <ele>137</ele>
        <time>2024-11-05T18:17:11Z</time>
      </trkpt>
      <trkpt lat="43.64678" lon="1.38809">
        <ele>136</ele>
        <time>2024-11-05T18:17:13Z</time>
      </trkpt>
      <trkpt lat="43.6468" lon="1.38807">
        <ele>136</ele>
        <time>2024-11-05T18:17:14Z</time>
      </trkpt>
      <trkpt lat="43.64682" lon="1.38806">
        <ele>136</ele>
        <time>2024-11-05T18:17:15Z</time>
      </trkpt>
      <trkpt lat="43.64685" lon="1.38805">
        <ele>136</ele>
        <time>2024-11-05T18:17:16Z</time>
      </trkpt>
      <trkpt lat="43.64687" lon="1.38804">
        <ele>136</ele>
        <time>2024-11-05T18:17:17Z</time>
      </trkpt>
      <trkpt lat="43.64689" lon="1.38803">
        <ele>137</ele>
        <time>2024-11-05T18:17:18Z</time>
      </trkpt>
      <trkpt lat="43.64692" lon="1.38802">
        <ele>137</ele>
        <time>2024-11-05T18:17:19Z</time>
      </trkpt>
      <trkpt lat="43.64694" lon="1.38801">
        <ele>137</ele>
        <time>2024-11-05T18:17:20Z</time>
      </trkpt>
      <trkpt lat="43.64696" lon="1.388">
        <ele>137</ele>
        <time>2024-11-05T18:17:21Z</time>
      </trkpt>
      <trkpt lat="43.64699" lon="1.38799">
        <ele>137</ele>
        <time>2024-11-05T18:17:22Z</time>
      </trkpt>
      <trkpt lat="43.64701" lon="1.38799">
        <ele>137</ele>
        <time>2024-11-05T18:17:23Z</time>
      </trkpt>
      <trkpt lat="43.64704" lon="1.38798">
        <ele>137</ele>
        <time>2024-11-05T18:17:24Z</time>
      </trkpt>
      <trkpt lat="43.64706" lon="1.38797">
        <ele>137</ele>
        <time>2024-11-05T18:17:25Z</time>
      </trkpt>
      <trkpt lat="43.64709" lon="1.38796">
        <ele>137</ele>
        <time>2024-11-05T18:17:26Z</time>
      </trkpt>
      <trkpt lat="43.64711" lon="1.38795">
        <ele>137</ele>
        <time>2024-11-05T18:17:27Z</time>
      </trkpt>
      <trkpt lat="43.64713" lon="1.38793">
        <ele>137</ele>
        <time>2024-11-05T18:17:28Z</time>
      </trkpt>
      <trkpt lat="43.64716" lon="1.38792">
        <ele>137</ele>
        <time>2024-11-05T18:17:29Z</time>
      </trkpt>
      <trkpt lat="43.64718" lon="1.38791">
        <ele>137</ele>
        <time>2024-11-05T18:17:30Z</time>
      </trkpt>
      <trkpt lat="43.64718" lon="1.38791">
        <ele>137</ele>
        <time>2024-11-05T18:17:31Z</time>
      </trkpt>
      <trkpt lat="43.6472" lon="1.38789">
        <ele>137</ele>
        <time>2024-11-05T18:17:32Z</time>
      </trkpt>
      <trkpt lat="43.64725" lon="1.38786">
        <ele>137</ele>
        <time>2024-11-05T18:17:33Z</time>
      </trkpt>
      <trkpt lat="43.64727" lon="1.38784">
        <ele>137</ele>
        <time>2024-11-05T18:17:34Z</time>
      </trkpt>
      <trkpt lat="43.64729" lon="1.38782">
        <ele>137</ele>
        <time>2024-11-05T18:17:35Z</time>
      </trkpt>
      <trkpt lat="43.64731" lon="1.38781">
        <ele>137</ele>
        <time>2024-11-05T18:17:36Z</time>
      </trkpt>
      <trkpt lat="43.64733" lon="1.38779">
        <ele>137</ele>
        <time>2024-11-05T18:17:37Z</time>
      </trkpt>
      <trkpt lat="43.64736" lon="1.38777">
        <ele>137</ele>
        <time>2024-11-05T18:17:38Z</time>
      </trkpt>
      <trkpt lat="43.64738" lon="1.38776">
        <ele>137</ele>
        <time>2024-11-05T18:17:39Z</time>
      </trkpt>
      <trkpt lat="43.6474" lon="1.38774">
        <ele>137</ele>
        <time>2024-11-05T18:17:40Z</time>
      </trkpt>
      <trkpt lat="43.64742" lon="1.38772">
        <ele>137</ele>
        <time>2024-11-05T18:17:41Z</time>
      </trkpt>
      <trkpt lat="43.64745" lon="1.3877">
        <ele>137</ele>
        <time>2024-11-05T18:17:42Z</time>
      </trkpt>
      <trkpt lat="43.64747" lon="1.38768">
        <ele>137</ele>
        <time>2024-11-05T18:17:43Z</time>
      </trkpt>
      <trkpt lat="43.6475" lon="1.38767">
        <ele>137</ele>
        <time>2024-11-05T18:17:44Z</time>
      </trkpt>
      <trkpt lat="43.64752" lon="1.38765">
        <ele>137</ele>
        <time>2024-11-05T18:17:45Z</time>
      </trkpt>
      <trkpt lat="43.64754" lon="1.38763">
        <ele>137</ele>
        <time>2024-11-05T18:17:46Z</time>
      </trkpt>
      <trkpt lat="43.64757" lon="1.38762">
        <ele>137</ele>
        <time>2024-11-05T18:17:47Z</time>
      </trkpt>
      <trkpt lat="43.64759" lon="1.3876">
        <ele>136</ele>
        <time>2024-11-05T18:17:48Z</time>
      </trkpt>
      <trkpt lat="43.64761" lon="1.38759">
        <ele>136</ele>
        <time>2024-11-05T18:17:49Z</time>
      </trkpt>
      <trkpt lat="43.64764" lon="1.38757">
        <ele>136</ele>
        <time>2024-11-05T18:17:50Z</time>
      </trkpt>
      <trkpt lat="43.64764" lon="1.38757">
        <ele>136</ele>
        <time>2024-11-05T18:17:51Z</time>
      </trkpt>
      <trkpt lat="43.64768" lon="1.38754">
        <ele>136</ele>
        <time>2024-11-05T18:17:52Z</time>
      </trkpt>
      <trkpt lat="43.6477" lon="1.38752">
        <ele>136</ele>
        <time>2024-11-05T18:17:53Z</time>
      </trkpt>
      <trkpt lat="43.64772" lon="1.3875">
        <ele>136</ele>
        <time>2024-11-05T18:17:54Z</time>
      </trkpt>
      <trkpt lat="43.64773" lon="1.38749">
        <ele>136</ele>
        <time>2024-11-05T18:17:55Z</time>
      </trkpt>
      <trkpt lat="43.64775" lon="1.38747">
        <ele>136</ele>
        <time>2024-11-05T18:17:56Z</time>
      </trkpt>
      <trkpt lat="43.64778" lon="1.38745">
        <ele>136</ele>
        <time>2024-11-05T18:17:57Z</time>
      </trkpt>
      <trkpt lat="43.6478" lon="1.38744">
        <ele>136</ele>
        <time>2024-11-05T18:17:58Z</time>
      </trkpt>
      <trkpt lat="43.64782" lon="1.38742">
        <ele>136</ele>
        <time>2024-11-05T18:17:59Z</time>
      </trkpt>
      <trkpt lat="43.64784" lon="1.3874">
        <ele>136</ele>
        <time>2024-11-05T18:18:00Z</time>
      </trkpt>
      <trkpt lat="43.64786" lon="1.38738">
        <ele>136</ele>
        <time>2024-11-05T18:18:01Z</time>
      </trkpt>
      <trkpt lat="43.64788" lon="1.38736">
        <ele>136</ele>
        <time>2024-11-05T18:18:02Z</time>
      </trkpt>
      <trkpt lat="43.6479" lon="1.38735">
        <ele>136</ele>
        <time>2024-11-05T18:18:03Z</time>
      </trkpt>
      <trkpt lat="43.64792" lon="1.38734">
        <ele>136</ele>
        <time>2024-11-05T18:18:04Z</time>
      </trkpt>
      <trkpt lat="43.64794" lon="1.38732">
        <ele>136</ele>
        <time>2024-11-05T18:18:05Z</time>
      </trkpt>
      <trkpt lat="43.64797" lon="1.38731">
        <ele>136</ele>
        <time>2024-11-05T18:18:06Z</time>
      </trkpt>
      <trkpt lat="43.64799" lon="1.38729">
        <ele>136</ele>
        <time>2024-11-05T18:18:07Z</time>
      </trkpt>
      <trkpt lat="43.64801" lon="1.38728">
        <ele>136</ele>
        <time>2024-11-05T18:18:08Z</time>
      </trkpt>
      <trkpt lat="43.64801" lon="1.38728">
        <ele>136</ele>
        <time>2024-11-05T18:18:09Z</time>
      </trkpt>
      <trkpt lat="43.64805" lon="1.38726">
        <ele>137</ele>
        <time>2024-11-05T18:18:10Z</time>
      </trkpt>
      <trkpt lat="43.64807" lon="1.38724">
        <ele>137</ele>
        <time>2024-11-05T18:18:11Z</time>
      </trkpt>
      <trkpt lat="43.64809" lon="1.38723">
        <ele>137</ele>
        <time>2024-11-05T18:18:12Z</time>
      </trkpt>
      <trkpt lat="43.64812" lon="1.38721">
        <ele>137</ele>
        <time>2024-11-05T18:18:13Z</time>
      </trkpt>
      <trkpt lat="43.64814" lon="1.3872">
        <ele>137</ele>
        <time>2024-11-05T18:18:14Z</time>
      </trkpt>
      <trkpt lat="43.64816" lon="1.38718">
        <ele>137</ele>
        <time>2024-11-05T18:18:15Z</time>
      </trkpt>
      <trkpt lat="43.64818" lon="1.38716">
        <ele>137</ele>
        <time>2024-11-05T18:18:16Z</time>
      </trkpt>
      <trkpt lat="43.6482" lon="1.38714">
        <ele>137</ele>
        <time>2024-11-05T18:18:17Z</time>
      </trkpt>
      <trkpt lat="43.64823" lon="1.38712">
        <ele>137</ele>
        <time>2024-11-05T18:18:18Z</time>
      </trkpt>
      <trkpt lat="43.64825" lon="1.3871">
        <ele>137</ele>
        <time>2024-11-05T18:18:19Z</time>
      </trkpt>
      <trkpt lat="43.64827" lon="1.38709">
        <ele>137</ele>
        <time>2024-11-05T18:18:20Z</time>
      </trkpt>
      <trkpt lat="43.64829" lon="1.38707">
        <ele>137</ele>
        <time>2024-11-05T18:18:21Z</time>
      </trkpt>
      <trkpt lat="43.64831" lon="1.38705">
        <ele>137</ele>
        <time>2024-11-05T18:18:22Z</time>
      </trkpt>
      <trkpt lat="43.64834" lon="1.38704">
        <ele>137</ele>
        <time>2024-11-05T18:18:23Z</time>
      </trkpt>
      <trkpt lat="43.64836" lon="1.38703">
        <ele>137</ele>
        <time>2024-11-05T18:18:24Z</time>
      </trkpt>
      <trkpt lat="43.64838" lon="1.38702">
        <ele>137</ele>
        <time>2024-11-05T18:18:25Z</time>
      </trkpt>
      <trkpt lat="43.64841" lon="1.387">
        <ele>136</ele>
        <time>2024-11-05T18:18:26Z</time>
      </trkpt>
      <trkpt lat="43.64843" lon="1.38699">
        <ele>136</ele>
        <time>2024-11-05T18:18:27Z</time>
      </trkpt>
      <trkpt lat="43.64843" lon="1.38699">
        <ele>136</ele>
        <time>2024-11-05T18:18:28Z</time>
      </trkpt>
      <trkpt lat="43.64847" lon="1.38696">
        <ele>136</ele>
        <time>2024-11-05T18:18:29Z</time>
      </trkpt>
      <trkpt lat="43.64849" lon="1.38695">
        <ele>136</ele>
        <time>2024-11-05T18:18:30Z</time>
      </trkpt>
      <trkpt lat="43.64851" lon="1.38693">
        <ele>136</ele>
        <time>2024-11-05T18:18:31Z</time>
      </trkpt>
      <trkpt lat="43.64851" lon="1.38693">
        <ele>136</ele>
        <time>2024-11-05T18:18:32Z</time>
      </trkpt>
      <trkpt lat="43.64856" lon="1.3869">
        <ele>136</ele>
        <time>2024-11-05T18:18:33Z</time>
      </trkpt>
      <trkpt lat="43.64858" lon="1.38688">
        <ele>136</ele>
        <time>2024-11-05T18:18:34Z</time>
      </trkpt>
      <trkpt lat="43.64861" lon="1.38686">
        <ele>136</ele>
        <time>2024-11-05T18:18:35Z</time>
      </trkpt>
      <trkpt lat="43.64863" lon="1.38685">
        <ele>136</ele>
        <time>2024-11-05T18:18:36Z</time>
      </trkpt>
      <trkpt lat="43.64865" lon="1.38683">
        <ele>136</ele>
        <time>2024-11-05T18:18:37Z</time>
      </trkpt>
      <trkpt lat="43.64867" lon="1.38681">
        <ele>136</ele>
        <time>2024-11-05T18:18:38Z</time>
      </trkpt>
      <trkpt lat="43.64869" lon="1.38679">
        <ele>136</ele>
        <time>2024-11-05T18:18:39Z</time>
      </trkpt>
      <trkpt lat="43.64871" lon="1.38678">
        <ele>136</ele>
        <time>2024-11-05T18:18:40Z</time>
      </trkpt>
      <trkpt lat="43.64874" lon="1.38676">
        <ele>136</ele>
        <time>2024-11-05T18:18:41Z</time>
      </trkpt>
      <trkpt lat="43.64876" lon="1.38674">
        <ele>136</ele>
        <time>2024-11-05T18:18:42Z</time>
      </trkpt>
      <trkpt lat="43.64878" lon="1.38673">
        <ele>136</ele>
        <time>2024-11-05T18:18:43Z</time>
      </trkpt>
      <trkpt lat="43.64881" lon="1.38671">
        <ele>136</ele>
        <time>2024-11-05T18:18:44Z</time>
      </trkpt>
      <trkpt lat="43.64883" lon="1.3867">
        <ele>136</ele>
        <time>2024-11-05T18:18:45Z</time>
      </trkpt>
      <trkpt lat="43.64885" lon="1.38668">
        <ele>136</ele>
        <time>2024-11-05T18:18:46Z</time>
      </trkpt>
      <trkpt lat="43.64888" lon="1.38667">
        <ele>136</ele>
        <time>2024-11-05T18:18:47Z</time>
      </trkpt>
      <trkpt lat="43.6489" lon="1.38666">
        <ele>136</ele>
        <time>2024-11-05T18:18:48Z</time>
      </trkpt>
      <trkpt lat="43.64892" lon="1.38664">
        <ele>136</ele>
        <time>2024-11-05T18:18:49Z</time>
      </trkpt>
      <trkpt lat="43.64895" lon="1.38663">
        <ele>136</ele>
        <time>2024-11-05T18:18:50Z</time>
      </trkpt>
      <trkpt lat="43.64897" lon="1.38662">
        <ele>136</ele>
        <time>2024-11-05T18:18:51Z</time>
      </trkpt>
      <trkpt lat="43.64899" lon="1.3866">
        <ele>136</ele>
        <time>2024-11-05T18:18:52Z</time>
      </trkpt>
      <trkpt lat="43.64902" lon="1.38659">
        <ele>136</ele>
        <time>2024-11-05T18:18:53Z</time>
      </trkpt>
      <trkpt lat="43.64904" lon="1.38658">
        <ele>136</ele>
        <time>2024-11-05T18:18:54Z</time>
      </trkpt>
      <trkpt lat="43.64906" lon="1.38657">
        <ele>136</ele>
        <time>2024-11-05T18:18:55Z</time>
      </trkpt>
      <trkpt lat="43.64908" lon="1.38655">
        <ele>136</ele>
        <time>2024-11-05T18:18:56Z</time>
      </trkpt>
      <trkpt lat="43.64911" lon="1.38654">
        <ele>136</ele>
        <time>2024-11-05T18:18:57Z</time>
      </trkpt>
      <trkpt lat="43.64913" lon="1.38652">
        <ele>136</ele>
        <time>2024-11-05T18:18:58Z</time>
      </trkpt>
      <trkpt lat="43.64915" lon="1.38651">
        <ele>136</ele>
        <time>2024-11-05T18:18:59Z</time>
      </trkpt>
      <trkpt lat="43.64918" lon="1.38649">
        <ele>136</ele>
        <time>2024-11-05T18:19:00Z</time>
      </trkpt>
      <trkpt lat="43.6492" lon="1.38648">
        <ele>136</ele>
        <time>2024-11-05T18:19:01Z</time>
      </trkpt>
      <trkpt lat="43.64922" lon="1.38646">
        <ele>136</ele>
        <time>2024-11-05T18:19:02Z</time>
      </trkpt>
      <trkpt lat="43.64925" lon="1.38645">
        <ele>136</ele>
        <time>2024-11-05T18:19:03Z</time>
      </trkpt>
      <trkpt lat="43.64927" lon="1.38643">
        <ele>136</ele>
        <time>2024-11-05T18:19:04Z</time>
      </trkpt>
      <trkpt lat="43.64929" lon="1.38641">
        <ele>136</ele>
        <time>2024-11-05T18:19:05Z</time>
      </trkpt>
      <trkpt lat="43.64929" lon="1.38641">
        <ele>136</ele>
        <time>2024-11-05T18:19:06Z</time>
      </trkpt>
      <trkpt lat="43.64934" lon="1.38638">
        <ele>136</ele>
        <time>2024-11-05T18:19:07Z</time>
      </trkpt>
      <trkpt lat="43.64936" lon="1.38637">
        <ele>136</ele>
        <time>2024-11-05T18:19:08Z</time>
      </trkpt>
      <trkpt lat="43.64938" lon="1.38635">
        <ele>136</ele>
        <time>2024-11-05T18:19:09Z</time>
      </trkpt>
      <trkpt lat="43.64941" lon="1.38634">
        <ele>136</ele>
        <time>2024-11-05T18:19:10Z</time>
      </trkpt>
      <trkpt lat="43.64943" lon="1.38632">
        <ele>136</ele>
        <time>2024-11-05T18:19:11Z</time>
      </trkpt>
      <trkpt lat="43.64945" lon="1.38631">
        <ele>136</ele>
        <time>2024-11-05T18:19:12Z</time>
      </trkpt>
      <trkpt lat="43.64948" lon="1.38629">
        <ele>136</ele>
        <time>2024-11-05T18:19:13Z</time>
      </trkpt>
      <trkpt lat="43.6495" lon="1.38628">
        <ele>136</ele>
        <time>2024-11-05T18:19:14Z</time>
      </trkpt>
      <trkpt lat="43.64952" lon="1.38627">
        <ele>136</ele>
        <time>2024-11-05T18:19:15Z</time>
      </trkpt>
      <trkpt lat="43.64955" lon="1.38626">
        <ele>136</ele>
        <time>2024-11-05T18:19:16Z</time>
      </trkpt>
      <trkpt lat="43.64957" lon="1.38625">
        <ele>136</ele>
        <time>2024-11-05T18:19:17Z</time>
      </trkpt>
      <trkpt lat="43.6496" lon="1.38624">
        <ele>136</ele>
        <time>2024-11-05T18:19:18Z</time>
      </trkpt>
      <trkpt lat="43.64962" lon="1.38623">
        <ele>136</ele>
        <time>2024-11-05T18:19:19Z</time>
      </trkpt>
      <trkpt lat="43.64964" lon="1.38621">
        <ele>136</ele>
        <time>2024-11-05T18:19:20Z</time>
      </trkpt>
      <trkpt lat="43.64966" lon="1.3862">
        <ele>136</ele>
        <time>2024-11-05T18:19:21Z</time>
      </trkpt>
      <trkpt lat="43.64969" lon="1.38618">
        <ele>136</ele>
        <time>2024-11-05T18:19:22Z</time>
      </trkpt>
      <trkpt lat="43.64971" lon="1.38617">
        <ele>136</ele>
        <time>2024-11-05T18:19:23Z</time>
      </trkpt>
      <trkpt lat="43.64974" lon="1.38616">
        <ele>136</ele>
        <time>2024-11-05T18:19:24Z</time>
      </trkpt>
      <trkpt lat="43.64976" lon="1.38615">
        <ele>136</ele>
        <time>2024-11-05T18:19:25Z</time>
      </trkpt>
      <trkpt lat="43.64979" lon="1.38613">
        <ele>136</ele>
        <time>2024-11-05T18:19:26Z</time>
      </trkpt>
      <trkpt lat="43.64981" lon="1.38612">
        <ele>136</ele>
        <time>2024-11-05T18:19:27Z</time>
      </trkpt>
      <trkpt lat="43.64984" lon="1.3861">
        <ele>136</ele>
        <time>2024-11-05T18:19:28Z</time>
      </trkpt>
      <trkpt lat="43.64986" lon="1.38609">
        <ele>136</ele>
        <time>2024-11-05T18:19:29Z</time>
      </trkpt>
      <trkpt lat="43.64988" lon="1.38608">
        <ele>136</ele>
        <time>2024-11-05T18:19:30Z</time>
      </trkpt>
      <trkpt lat="43.6499" lon="1.38606">
        <ele>136</ele>
        <time>2024-11-05T18:19:31Z</time>
      </trkpt>
      <trkpt lat="43.64993" lon="1.38605">
        <ele>136</ele>
        <time>2024-11-05T18:19:32Z</time>
      </trkpt>
      <trkpt lat="43.64995" lon="1.38604">
        <ele>136</ele>
        <time>2024-11-05T18:19:33Z</time>
      </trkpt>
      <trkpt lat="43.64997" lon="1.38603">
        <ele>136</ele>
        <time>2024-11-05T18:19:34Z</time>
      </trkpt>
      <trkpt lat="43.65" lon="1.38602">
        <ele>136</ele>
        <time>2024-11-05T18:19:35Z</time>
      </trkpt>
      <trkpt lat="43.65002" lon="1.38601">
        <ele>136</ele>
        <time>2024-11-05T18:19:36Z</time>
      </trkpt>
      <trkpt lat="43.65004" lon="1.38599">
        <ele>136</ele>
        <time>2024-11-05T18:19:37Z</time>
      </trkpt>
      <trkpt lat="43.65006" lon="1.38598">
        <ele>136</ele>
        <time>2024-11-05T18:19:38Z</time>
      </trkpt>
      <trkpt lat="43.65009" lon="1.38597">
        <ele>136</ele>
        <time>2024-11-05T18:19:39Z</time>
      </trkpt>
      <trkpt lat="43.65011" lon="1.38595">
        <ele>136</ele>
        <time>2024-11-05T18:19:40Z</time>
      </trkpt>
      <trkpt lat="43.65013" lon="1.38594">
        <ele>136</ele>
        <time>2024-11-05T18:19:41Z</time>
      </trkpt>
      <trkpt lat="43.65016" lon="1.38592">
        <ele>136</ele>
        <time>2024-11-05T18:19:42Z</time>
      </trkpt>
      <trkpt lat="43.65018" lon="1.38591">
        <ele>136</ele>
        <time>2024-11-05T18:19:43Z</time>
      </trkpt>
      <trkpt lat="43.65021" lon="1.38589">
        <ele>136</ele>
        <time>2024-11-05T18:19:44Z</time>
      </trkpt>
      <trkpt lat="43.65023" lon="1.38588">
        <ele>136</ele>
        <time>2024-11-05T18:19:45Z</time>
      </trkpt>
      <trkpt lat="43.65025" lon="1.38586">
        <ele>136</ele>
        <time>2024-11-05T18:19:46Z</time>
      </trkpt>
      <trkpt lat="43.65027" lon="1.38585">
        <ele>136</ele>
        <time>2024-11-05T18:19:47Z</time>
      </trkpt>
      <trkpt lat="43.6503" lon="1.38584">
        <ele>136</ele>
        <time>2024-11-05T18:19:48Z</time>
      </trkpt>
      <trkpt lat="43.65032" lon="1.38583">
        <ele>136</ele>
        <time>2024-11-05T18:19:49Z</time>
      </trkpt>
      <trkpt lat="43.65034" lon="1.38582">
        <ele>136</ele>
        <time>2024-11-05T18:19:50Z</time>
      </trkpt>
      <trkpt lat="43.65036" lon="1.38581">
        <ele>136</ele>
        <time>2024-11-05T18:19:51Z</time>
      </trkpt>
      <trkpt lat="43.65038" lon="1.38579">
        <ele>136</ele>
        <time>2024-11-05T18:19:52Z</time>
      </trkpt>
      <trkpt lat="43.6504" lon="1.38578">
        <ele>136</ele>
        <time>2024-11-05T18:19:53Z</time>
      </trkpt>
      <trkpt lat="43.65042" lon="1.38576">
        <ele>136</ele>
        <time>2024-11-05T18:19:54Z</time>
      </trkpt>
      <trkpt lat="43.65044" lon="1.38573">
        <ele>136</ele>
        <time>2024-11-05T18:19:55Z</time>
      </trkpt>
      <trkpt lat="43.65046" lon="1.38569">
        <ele>136</ele>
        <time>2024-11-05T18:19:56Z</time>
      </trkpt>
      <trkpt lat="43.65048" lon="1.38566">
        <ele>136</ele>
        <time>2024-11-05T18:19:57Z</time>
      </trkpt>
      <trkpt lat="43.65049" lon="1.38562">
        <ele>136</ele>
        <time>2024-11-05T18:19:58Z</time>
      </trkpt>
      <trkpt lat="43.65051" lon="1.38559">
        <ele>136</ele>
        <time>2024-11-05T18:19:59Z</time>
      </trkpt>
      <trkpt lat="43.65053" lon="1.38558">
        <ele>136</ele>
        <time>2024-11-05T18:20:00Z</time>
      </trkpt>
      <trkpt lat="43.65055" lon="1.38556">
        <ele>136</ele>
        <time>2024-11-05T18:20:01Z</time>
      </trkpt>
      <trkpt lat="43.65058" lon="1.38555">
        <ele>136</ele>
        <time>2024-11-05T18:20:02Z</time>
      </trkpt>
      <trkpt lat="43.6506" lon="1.38554">
        <ele>136</ele>
        <time>2024-11-05T18:20:03Z</time>
      </trkpt>
      <trkpt lat="43.65064" lon="1.38552">
        <ele>136</ele>
        <time>2024-11-05T18:20:04Z</time>
      </trkpt>
      <trkpt lat="43.65065" lon="1.38552">
        <ele>136</ele>
        <time>2024-11-05T18:20:05Z</time>
      </trkpt>
      <trkpt lat="43.65067" lon="1.38551">
        <ele>136</ele>
        <time>2024-11-05T18:20:06Z</time>
      </trkpt>
      <trkpt lat="43.6507" lon="1.3855">
        <ele>136</ele>
        <time>2024-11-05T18:20:07Z</time>
      </trkpt>
      <trkpt lat="43.65072" lon="1.38549">
        <ele>136</ele>
        <time>2024-11-05T18:20:08Z</time>
      </trkpt>
      <trkpt lat="43.65075" lon="1.38548">
        <ele>136</ele>
        <time>2024-11-05T18:20:09Z</time>
      </trkpt>
      <trkpt lat="43.65077" lon="1.38547">
        <ele>136</ele>
        <time>2024-11-05T18:20:10Z</time>
      </trkpt>
      <trkpt lat="43.6508" lon="1.38546">
        <ele>136</ele>
        <time>2024-11-05T18:20:11Z</time>
      </trkpt>
      <trkpt lat="43.65083" lon="1.38545">
        <ele>136</ele>
        <time>2024-11-05T18:20:12Z</time>
      </trkpt>
      <trkpt lat="43.65085" lon="1.38543">
        <ele>136</ele>
        <time>2024-11-05T18:20:13Z</time>
      </trkpt>
      <trkpt lat="43.65087" lon="1.38542">
        <ele>136</ele>
        <time>2024-11-05T18:20:14Z</time>
      </trkpt>
      <trkpt lat="43.65089" lon="1.3854">
        <ele>136</ele>
        <time>2024-11-05T18:20:15Z</time>
      </trkpt>
      <trkpt lat="43.65091" lon="1.38537">
        <ele>136</ele>
        <time>2024-11-05T18:20:16Z</time>
      </trkpt>
      <trkpt lat="43.65093" lon="1.38534">
        <ele>136</ele>
        <time>2024-11-05T18:20:17Z</time>
      </trkpt>
      <trkpt lat="43.65094" lon="1.38531">
        <ele>136</ele>
        <time>2024-11-05T18:20:18Z</time>
      </trkpt>
      <trkpt lat="43.65095" lon="1.38528">
        <ele>136</ele>
        <time>2024-11-05T18:20:19Z</time>
      </trkpt>
      <trkpt lat="43.65095" lon="1.38524">
        <ele>136</ele>
        <time>2024-11-05T18:20:20Z</time>
      </trkpt>
      <trkpt lat="43.65096" lon="1.3852">
        <ele>136</ele>
        <time>2024-11-05T18:20:21Z</time>
      </trkpt>
      <trkpt lat="43.65096" lon="1.3852">
        <ele>136</ele>
        <time>2024-11-05T18:20:22Z</time>
      </trkpt>
      <trkpt lat="43.65097" lon="1.38514">
        <ele>136</ele>
        <time>2024-11-05T18:20:23Z</time>
      </trkpt>
      <trkpt lat="43.65098" lon="1.38511">
        <ele>136</ele>
        <time>2024-11-05T18:20:24Z</time>
      </trkpt>
      <trkpt lat="43.65099" lon="1.38507">
        <ele>136</ele>
        <time>2024-11-05T18:20:25Z</time>
      </trkpt>
      <trkpt lat="43.65098" lon="1.38504">
        <ele>136</ele>
        <time>2024-11-05T18:20:26Z</time>
      </trkpt>
      <trkpt lat="43.65097" lon="1.385">
        <ele>136</ele>
        <time>2024-11-05T18:20:27Z</time>
      </trkpt>
      <trkpt lat="43.65096" lon="1.38497">
        <ele>136</ele>
        <time>2024-11-05T18:20:28Z</time>
      </trkpt>
      <trkpt lat="43.65095" lon="1.38493">
        <ele>136</ele>
        <time>2024-11-05T18:20:29Z</time>
      </trkpt>
      <trkpt lat="43.65094" lon="1.3849">
        <ele>136</ele>
        <time>2024-11-05T18:20:30Z</time>
      </trkpt>
      <trkpt lat="43.65093" lon="1.38487">
        <ele>136</ele>
        <time>2024-11-05T18:20:31Z</time>
      </trkpt>
      <trkpt lat="43.65092" lon="1.38483">
        <ele>137</ele>
        <time>2024-11-05T18:20:32Z</time>
      </trkpt>
      <trkpt lat="43.65091" lon="1.3848">
        <ele>137</ele>
        <time>2024-11-05T18:20:33Z</time>
      </trkpt>
      <trkpt lat="43.65089" lon="1.38477">
        <ele>137</ele>
        <time>2024-11-05T18:20:34Z</time>
      </trkpt>
      <trkpt lat="43.65088" lon="1.38474">
        <ele>137</ele>
        <time>2024-11-05T18:20:35Z</time>
      </trkpt>
      <trkpt lat="43.65087" lon="1.3847">
        <ele>137</ele>
        <time>2024-11-05T18:20:36Z</time>
      </trkpt>
      <trkpt lat="43.65086" lon="1.38467">
        <ele>137</ele>
        <time>2024-11-05T18:20:37Z</time>
      </trkpt>
      <trkpt lat="43.65085" lon="1.38463">
        <ele>137</ele>
        <time>2024-11-05T18:20:38Z</time>
      </trkpt>
      <trkpt lat="43.65084" lon="1.3846">
        <ele>137</ele>
        <time>2024-11-05T18:20:39Z</time>
      </trkpt>
      <trkpt lat="43.65082" lon="1.38457">
        <ele>137</ele>
        <time>2024-11-05T18:20:40Z</time>
      </trkpt>
      <trkpt lat="43.65081" lon="1.38453">
        <ele>137</ele>
        <time>2024-11-05T18:20:41Z</time>
      </trkpt>
      <trkpt lat="43.6508" lon="1.3845">
        <ele>137</ele>
        <time>2024-11-05T18:20:42Z</time>
      </trkpt>
      <trkpt lat="43.65078" lon="1.38447">
        <ele>137</ele>
        <time>2024-11-05T18:20:43Z</time>
      </trkpt>
      <trkpt lat="43.65077" lon="1.38443">
        <ele>137</ele>
        <time>2024-11-05T18:20:44Z</time>
      </trkpt>
      <trkpt lat="43.65076" lon="1.3844">
        <ele>137</ele>
        <time>2024-11-05T18:20:45Z</time>
      </trkpt>
      <trkpt lat="43.65075" lon="1.38437">
        <ele>137</ele>
        <time>2024-11-05T18:20:46Z</time>
      </trkpt>
      <trkpt lat="43.65073" lon="1.38433">
        <ele>137</ele>
        <time>2024-11-05T18:20:47Z</time>
      </trkpt>
      <trkpt lat="43.65072" lon="1.3843">
        <ele>137</ele>
        <time>2024-11-05T18:20:48Z</time>
      </trkpt>
      <trkpt lat="43.65071" lon="1.38427">
        <ele>137</ele>
        <time>2024-11-05T18:20:49Z</time>
      </trkpt>
      <trkpt lat="43.6507" lon="1.38424">
        <ele>137</ele>
        <time>2024-11-05T18:20:50Z</time>
      </trkpt>
      <trkpt lat="43.6507" lon="1.3842">
        <ele>137</ele>
        <time>2024-11-05T18:20:51Z</time>
      </trkpt>
      <trkpt lat="43.65069" lon="1.38415">
        <ele>137</ele>
        <time>2024-11-05T18:20:52Z</time>
      </trkpt>
      <trkpt lat="43.65068" lon="1.38412">
        <ele>137</ele>
        <time>2024-11-05T18:20:53Z</time>
      </trkpt>
      <trkpt lat="43.65067" lon="1.38409">
        <ele>137</ele>
        <time>2024-11-05T18:20:54Z</time>
      </trkpt>
      <trkpt lat="43.65066" lon="1.38405">
        <ele>137</ele>
        <time>2024-11-05T18:20:55Z</time>
      </trkpt>
      <trkpt lat="43.65065" lon="1.38402">
        <ele>137</ele>
        <time>2024-11-05T18:20:56Z</time>
      </trkpt>
      <trkpt lat="43.65064" lon="1.38398">
        <ele>137</ele>
        <time>2024-11-05T18:20:57Z</time>
      </trkpt>
      <trkpt lat="43.65064" lon="1.38394">
        <ele>136</ele>
        <time>2024-11-05T18:20:58Z</time>
      </trkpt>
      <trkpt lat="43.65062" lon="1.3839">
        <ele>136</ele>
        <time>2024-11-05T18:20:59Z</time>
      </trkpt>
      <trkpt lat="43.65062" lon="1.3839">
        <ele>137</ele>
        <time>2024-11-05T18:21:00Z</time>
      </trkpt>
      <trkpt lat="43.65061" lon="1.38384">
        <ele>137</ele>
        <time>2024-11-05T18:21:01Z</time>
      </trkpt>
      <trkpt lat="43.65059" lon="1.3838">
        <ele>137</ele>
        <time>2024-11-05T18:21:02Z</time>
      </trkpt>
      <trkpt lat="43.65058" lon="1.38377">
        <ele>137</ele>
        <time>2024-11-05T18:21:03Z</time>
      </trkpt>
      <trkpt lat="43.65057" lon="1.38374">
        <ele>137</ele>
        <time>2024-11-05T18:21:04Z</time>
      </trkpt>
      <trkpt lat="43.65056" lon="1.3837">
        <ele>137</ele>
        <time>2024-11-05T18:21:05Z</time>
      </trkpt>
      <trkpt lat="43.65056" lon="1.3837">
        <ele>137</ele>
        <time>2024-11-05T18:21:06Z</time>
      </trkpt>
      <trkpt lat="43.65054" lon="1.38363">
        <ele>137</ele>
        <time>2024-11-05T18:21:07Z</time>
      </trkpt>
      <trkpt lat="43.65053" lon="1.3836">
        <ele>137</ele>
        <time>2024-11-05T18:21:08Z</time>
      </trkpt>
      <trkpt lat="43.65051" lon="1.38356">
        <ele>137</ele>
        <time>2024-11-05T18:21:09Z</time>
      </trkpt>
      <trkpt lat="43.6505" lon="1.38353">
        <ele>137</ele>
        <time>2024-11-05T18:21:10Z</time>
      </trkpt>
      <trkpt lat="43.65049" lon="1.38349">
        <ele>137</ele>
        <time>2024-11-05T18:21:11Z</time>
      </trkpt>
      <trkpt lat="43.65048" lon="1.38346">
        <ele>137</ele>
        <time>2024-11-05T18:21:12Z</time>
      </trkpt>
      <trkpt lat="43.65047" lon="1.38342">
        <ele>138</ele>
        <time>2024-11-05T18:21:13Z</time>
      </trkpt>
      <trkpt lat="43.65046" lon="1.3834">
        <ele>138</ele>
        <time>2024-11-05T18:21:14Z</time>
      </trkpt>
      <trkpt lat="43.65046" lon="1.38337">
        <ele>138</ele>
        <time>2024-11-05T18:21:15Z</time>
      </trkpt>
      <trkpt lat="43.65045" lon="1.38334">
        <ele>138</ele>
        <time>2024-11-05T18:21:16Z</time>
      </trkpt>
      <trkpt lat="43.65044" lon="1.3833">
        <ele>137</ele>
        <time>2024-11-05T18:21:17Z</time>
      </trkpt>
      <trkpt lat="43.65043" lon="1.38326">
        <ele>137</ele>
        <time>2024-11-05T18:21:18Z</time>
      </trkpt>
      <trkpt lat="43.65042" lon="1.38322">
        <ele>137</ele>
        <time>2024-11-05T18:21:19Z</time>
      </trkpt>
      <trkpt lat="43.65041" lon="1.38319">
        <ele>138</ele>
        <time>2024-11-05T18:21:20Z</time>
      </trkpt>
      <trkpt lat="43.6504" lon="1.38315">
        <ele>138</ele>
        <time>2024-11-05T18:21:21Z</time>
      </trkpt>
      <trkpt lat="43.65038" lon="1.38312">
        <ele>138</ele>
        <time>2024-11-05T18:21:22Z</time>
      </trkpt>
      <trkpt lat="43.65037" lon="1.38309">
        <ele>138</ele>
        <time>2024-11-05T18:21:23Z</time>
      </trkpt>
      <trkpt lat="43.65036" lon="1.38305">
        <ele>138</ele>
        <time>2024-11-05T18:21:24Z</time>
      </trkpt>
      <trkpt lat="43.65036" lon="1.38305">
        <ele>137</ele>
        <time>2024-11-05T18:21:25Z</time>
      </trkpt>
      <trkpt lat="43.65034" lon="1.38299">
        <ele>137</ele>
        <time>2024-11-05T18:21:26Z</time>
      </trkpt>
      <trkpt lat="43.65033" lon="1.38295">
        <ele>137</ele>
        <time>2024-11-05T18:21:27Z</time>
      </trkpt>
      <trkpt lat="43.65032" lon="1.38292">
        <ele>137</ele>
        <time>2024-11-05T18:21:28Z</time>
      </trkpt>
      <trkpt lat="43.65031" lon="1.38289">
        <ele>137</ele>
        <time>2024-11-05T18:21:29Z</time>
      </trkpt>
      <trkpt lat="43.6503" lon="1.38285">
        <ele>137</ele>
        <time>2024-11-05T18:21:30Z</time>
      </trkpt>
      <trkpt lat="43.65029" lon="1.38282">
        <ele>137</ele>
        <time>2024-11-05T18:21:31Z</time>
      </trkpt>
      <trkpt lat="43.65027" lon="1.38279">
        <ele>137</ele>
        <time>2024-11-05T18:21:32Z</time>
      </trkpt>
      <trkpt lat="43.65026" lon="1.38276">
        <ele>137</ele>
        <time>2024-11-05T18:21:33Z</time>
      </trkpt>
      <trkpt lat="43.65026" lon="1.38272">
        <ele>137</ele>
        <time>2024-11-05T18:21:34Z</time>
      </trkpt>
      <trkpt lat="43.65025" lon="1.38269">
        <ele>137</ele>
        <time>2024-11-05T18:21:35Z</time>
      </trkpt>
      <trkpt lat="43.65024" lon="1.38265">
        <ele>137</ele>
        <time>2024-11-05T18:21:36Z</time>
      </trkpt>
      <trkpt lat="43.65023" lon="1.38262">
        <ele>138</ele>
        <time>2024-11-05T18:21:37Z</time>
      </trkpt>
      <trkpt lat="43.65022" lon="1.38259">
        <ele>138</ele>
        <time>2024-11-05T18:21:38Z</time>
      </trkpt>
      <trkpt lat="43.65021" lon="1.38255">
        <ele>138</ele>
        <time>2024-11-05T18:21:39Z</time>
      </trkpt>
      <trkpt lat="43.6502" lon="1.38251">
        <ele>138</ele>
        <time>2024-11-05T18:21:40Z</time>
      </trkpt>
      <trkpt lat="43.65019" lon="1.38247">
        <ele>138</ele>
        <time>2024-11-05T18:21:41Z</time>
      </trkpt>
      <trkpt lat="43.65018" lon="1.38243">
        <ele>138</ele>
        <time>2024-11-05T18:21:42Z</time>
      </trkpt>
      <trkpt lat="43.65018" lon="1.38243">
        <ele>138</ele>
        <time>2024-11-05T18:21:43Z</time>
      </trkpt>
      <trkpt lat="43.65016" lon="1.38236">
        <ele>138</ele>
        <time>2024-11-05T18:21:44Z</time>
      </trkpt>
      <trkpt lat="43.65015" lon="1.38233">
        <ele>137</ele>
        <time>2024-11-05T18:21:45Z</time>
      </trkpt>
      <trkpt lat="43.65014" lon="1.38229">
        <ele>137</ele>
        <time>2024-11-05T18:21:46Z</time>
      </trkpt>
      <trkpt lat="43.65013" lon="1.38226">
        <ele>138</ele>
        <time>2024-11-05T18:21:47Z</time>
      </trkpt>
      <trkpt lat="43.65012" lon="1.38223">
        <ele>138</ele>
        <time>2024-11-05T18:21:48Z</time>
      </trkpt>
      <trkpt lat="43.65011" lon="1.38219">
        <ele>137</ele>
        <time>2024-11-05T18:21:49Z</time>
      </trkpt>
      <trkpt lat="43.6501" lon="1.38216">
        <ele>137</ele>
        <time>2024-11-05T18:21:50Z</time>
      </trkpt>
      <trkpt lat="43.65008" lon="1.38212">
        <ele>137</ele>
        <time>2024-11-05T18:21:51Z</time>
      </trkpt>
      <trkpt lat="43.65007" lon="1.38209">
        <ele>137</ele>
        <time>2024-11-05T18:21:52Z</time>
      </trkpt>
      <trkpt lat="43.65006" lon="1.38206">
        <ele>137</ele>
        <time>2024-11-05T18:21:53Z</time>
      </trkpt>
      <trkpt lat="43.65005" lon="1.38202">
        <ele>137</ele>
        <time>2024-11-05T18:21:54Z</time>
      </trkpt>
      <trkpt lat="43.65004" lon="1.38199">
        <ele>137</ele>
        <time>2024-11-05T18:21:55Z</time>
      </trkpt>
      <trkpt lat="43.65003" lon="1.38196">
        <ele>137</ele>
        <time>2024-11-05T18:21:56Z</time>
      </trkpt>
      <trkpt lat="43.65003" lon="1.38196">
        <ele>137</ele>
        <time>2024-11-05T18:21:57Z</time>
      </trkpt>
      <trkpt lat="43.65003" lon="1.38196">
        <ele>137</ele>
        <time>2024-11-05T18:21:58Z</time>
      </trkpt>
    </trkseg>
  </trk>
</gpx>